GFSGBSN_prec_radar_000.txt.gz
Reflectivity
10 17 14 -8 -20 -10 -7 -20 -20 -20 -20 -19 -20 -20 -20 -20 -20 -20 -20 -20 -20 -14 -1 -7 -20 -20 17 -1 -3 -20 -20 -20 -20 -16 -15 -20 6 5 13 4 -20 -20 -20 -20 -20 -20 -20
-20 14 15 13 -20 7 -15 16 3 -20 -20 -20 -1 -20 -20 -20 -20 -20 -20 -20 -20 -20 -20 -20 -1 21 7 -7 -20 -20 -20 -20 -20 -20 -20 -20 -6 -20 -20 2 6 -20 -20 -20 -20 -20 -20
-10 -20 14 14 -17 -20 -20 5 9 -20 -20 -20 1 -7 -20 -20 -20 -20 -20 -20 -20 -20 -20 -20 11 -16 14 -20 -20 -20 -20 -20 -20 -20 -20 -20 -20 24 -18 19 -20 -20 -20 -20 -20 -20 -20
11 9 2 5 6 -5 1 -20 -20 -20 -20 -20 -7 10 -18 -20 -20 -20 -20 -20 -20 -8 -16 -20 -20 3 -2 -20 -20 -20 -20 -20 -20 -20 -20 -20 -20 13 28 -20 6 16 12 9 -20 -20 -20
-20 17 15 13 14 12 -6 -7 -20 -2 -18 -20 -16 6 -20 9 -20 -20 -20 -20 -2 -20 18 14 -16 7 -7 -20 -20 -20 -20 -20 -20 -20 -20 -20 -2 15 26 12 21 18 9 -20 -20 -20 -20
2 -10 14 12 13 13 5 12 -20 -20 7 -20 -18 5 11 13 -20 0 10 3 19 19 21 12 12 -5 -20 -20 -20 -20 -20 -20 -20 12 -9 9 6 24 23 7 12 11 7 -15 -20 -20 -20
9 -8 -4 13 11 10 16 12 4 -20 -3 -20 -20 4 8 11 -20 -20 7 6 28 21 7 -18 -15 -20 -20 -20 -20 -20 -20 -20 -20 23 19 -10 19 14 17 18 -2 -20 -20 -7 -20 -20 -20
12 -1 -18 9 14 14 15 16 -20 -20 -20 -20 -20 5 1 3 16 -20 18 21 8 -1 22 -11 6 3 -10 -20 -16 -20 -20 -20 -17 -3 22 14 10 5 40 0 -9 -20 -19 -20 -20 -20 -20
-4 4 -14 -14 8 15 17 11 9 -20 -20 -20 -20 1 -16 13 -7 -4 17 25 21 27 34 19 14 20 18 -20 -16 26 -20 -20 -20 8 30 27 6 18 34 17 28 4 -20 -20 -20 -20 -20
5 -19 11 -20 -5 16 14 9 4 -20 -20 -20 -18 -13 -2 -20 -14 7 22 22 29 34 39 17 18 22 21 13 -10 -20 -20 -20 21 20 34 15 0 25 14 11 10 7 -19 -20 -20 12 12
-18 12 -1 -20 -20 20 19 13 6 -18 -20 -20 -20 -20 11 -20 -1 6 8 28 25 37 21 5 -3 7 -4 -18 -20 -20 -20 -20 15 13 34 25 27 32 21 14 11 9 -20 -20 -19 -7 -20
-5 8 5 10 -20 16 20 19 20 13 18 -11 -20 3 -20 13 14 -2 17 31 30 29 14 11 15 9 13 1 -3 25 17 3 17 3 16 19 17 40 19 16 17 -14 -20 -20 -18 -19 -12
24 1 1 9 17 7 17 16 15 11 16 14 9 2 -15 -20 2 -11 20 30 27 16 16 26 24 31 25 -7 -10 18 4 -6 28 26 21 30 39 19 18 32 25 -10 -8 13 13 9 -13
-3 19 -8 6 -20 18 18 17 11 19 18 15 17 14 -19 -17 -16 -3 30 32 19 23 22 27 20 17 20 1 6 7 4 5 28 10 6 37 29 35 3 25 33 -18 -17 -16 3 -20 -20
26 23 23 22 15 13 17 14 10 17 10 10 18 2 0 -12 20 11 31 22 11 22 19 30 29 15 12 10 -20 16 2 -15 11 8 24 32 37 31 18 -14 0 8 -4 -20 -20 -20 -20
32 22 19 19 16 13 11 16 13 16 17 6 2 -4 -10 -16 18 26 33 24 25 26 28 4 -20 -12 -4 -18 -20 19 -20 -13 -11 -14 26 25 31 29 10 12 11 15 -12 -20 -20 -20 -20
32 23 14 21 22 12 11 12 17 16 18 12 -10 -17 -20 -0 19 25 33 28 24 26 6 -20 -20 -20 -20 -20 -20 3 -20 -18 -20 -18 12 4 18 9 11 9 13 12 16 -17 -20 -20 -20
35 28 15 24 19 -16 12 13 20 18 12 8 -20 -6 4 9 25 21 15 30 27 17 -19 -20 -20 -20 -20 -20 -5 2 -20 -10 -20 8 -20 -17 -18 6 9 -16 15 -14 -20 -11 -7 -20 -20
33 23 22 22 16 4 11 13 17 15 12 -20 -20 -13 25 18 19 13 18 32 30 13 -20 -17 -20 -20 -20 -20 -20 -8 -20 5 -17 -20 -20 -20 -20 -20 10 -11 -19 2 -20 -20 -20 -20 -20
27 31 23 11 20 8 11 15 11 13 18 -2 -20 4 25 25 3 22 34 33 31 0 -1 21 -20 -20 -20 -20 -20 -20 -20 -20 -20 -20 -20 -20 -20 -20 -20 -20 -20 -20 -20 -20 -20 -20 -20
30 33 23 22 24 14 10 16 12 14 18 5 -20 -20 -15 17 2 -4 32 30 33 21 18 19 -11 -20 -20 -20 -20 -16 -15 -20 -20 -5 -6 -20 -20 -20 -20 -20 -20 -20 -20 -20 -20 -20 -20
28 35 26 20 22 19 13 14 14 13 17 5 -20 -20 -20 -20 -20 -17 33 26 36 27 14 23 -9 -20 -20 -20 -20 -20 -20 -20 -20 -15 -20 -20 -20 -20 -20 -20 -20 -20 -20 -20 -20 -20 -20
21 35 27 14 13 22 9 14 15 13 19 -7 -20 -20 -20 -20 -20 -20 27 28 32 32 20 28 23 4 -20 -20 -19 3 -19 5 16 8 -20 -20 -20 -20 -20 -20 -20 -20 -20 -20 -20 -20 -20
13 35 25 16 13 22 -14 12 12 10 5 -17 -20 -20 -20 -20 -20 13 20 26 30 10 25 24 -11 -2 -20 -20 -20 -19 25 -6 12 14 13 -20 -20 -20 -20 -20 -20 -20 -20 -20 -20 -20 -20
12 31 30 24 21 27 -20 -20 10 -1 11 -0 -20 -20 -20 -20 -20 8 -5 32 26 8 28 -5 -20 -20 -10 -14 -8 -2 19 21 10 11 3 -6 -20 -20 -20 18 -20 -20 -20 -20 -20 -20 -20
19 28 29 25 16 36 -14 -20 10 -19 16 11 -20 -20 -20 -20 -20 6 7 23 31 4 -20 -9 -20 -20 -20 -20 2 -14 7 -8 -7 -5 25 11 20 22 11 -20 -20 -20 -20 -20 -20 -20 -20
12 25 29 30 26 31 11 -13 6 1 16 10 -20 -20 -20 -20 -20 5 -20 2 31 22 -20 2 8 13 7 -11 -12 -20 -20 -20 -20 -18 -5 -14 4 29 -10 -20 -20 -20 -20 -20 -20 -20 -20
18 23 35 33 30 25 9 2 3 9 12 13 -15 -20 -20 -20 -20 -6 -20 10 31 30 9 -20 -14 5 26 1 -20 -20 -20 -20 -20 -20 -20 -15 -20 -20 -20 -1 10 -11 -17 -20 -20 -20 -20
21 16 36 36 25 13 17 -5 9 -3 9 18 -8 -20 -20 -20 -20 1 -20 -20 15 15 28 18 8 11 7 21 -20 12 5 5 -20 -20 -20 -20 -20 -20 -20 -20 -20 -9 -20 -20 -20 -20 -20

GFSGBSN_prec_radar_003.txt.gz
Reflectivity
6 -20 -20 15 11 -20 -0 -14 -20 -20 -20 -20 -19 3 -13 -20 3 -20 -20 -20 -20 -20 -20 -20 -5 -20 -4 11 -3 -20 -20 -20 -20 -20 -20 -20 -20 -20 8 -20 -20 -11 -20 -20 -20 -20 -20
13 -8 -16 -20 -3 7 -20 -20 -1 -20 -20 -20 -20 1 -9 -20 -17 -20 -20 -20 -20 -20 -20 -20 -17 -7 1 9 -20 -20 -20 -20 -20 -20 -2 -20 -20 -20 -20 -20 -2 -18 -20 -20 -20 -20 -20
15 -12 -20 -19 -20 -9 -1 -15 -20 -9 -20 -20 -20 -10 4 -20 -20 -5 -20 -20 -20 -20 -20 -20 -1 -13 12 -19 -20 -20 -20 -20 -20 -20 -20 -20 -20 -20 -18 9 -20 18 -20 -20 -20 -20 -20
12 13 -7 -10 -18 14 -15 5 -19 -20 -20 -20 -20 -7 -6 -20 -20 -6 11 -20 -20 -20 -20 -20 -20 3 15 -20 -20 -20 -20 -20 -20 -20 -20 -20 -20 -20 5 7 -18 14 21 3 -20 -20 -20
-10 13 -20 13 -20 -20 -5 11 6 -10 -20 -20 -20 -20 -20 -18 -20 -3 -15 -20 10 -7 -20 -20 -11 5 2 -20 -20 -20 -20 -20 -20 -20 -20 -20 4 12 4 16 11 27 19 7 -9 -20 -20
-20 7 14 7 14 -20 -20 -6 16 -6 -20 -5 2 -20 -20 -20 -20 -3 14 20 21 19 -17 7 11 18 -20 -20 -20 -20 -20 -20 -20 -20 -20 -8 6 23 7 18 19 20 7 -2 -12 -20 -20
4 5 14 5 -20 -20 -20 -20 2 -3 13 -0 10 -5 -20 -20 -14 -20 -20 -8 -6 5 11 -20 -20 -20 -20 -20 -20 -20 -20 -20 -20 -5 10 6 13 17 -20 -20 10 18 24 -20 -20 -20 -20
-20 -20 -20 -20 -20 15 -20 -20 -20 5 13 -20 12 -9 -8 -20 -20 15 11 8 -9 -8 12 -10 -13 -20 -19 -20 -20 -20 -20 -4 4 7 5 22 12 -20 -20 -12 31 22 24 6 8 -12 -20
18 -20 -12 -20 -20 17 -1 -20 -20 -20 12 -20 5 -20 -20 -20 -12 20 13 -20 7 21 32 17 -2 17 8 10 7 -11 -20 -10 6 6 12 21 -20 -20 -20 -10 28 9 23 2 -5 5 -20
22 2 -4 3 -20 -13 6 -12 11 -20 4 -19 -2 -20 -20 4 -14 -15 12 -20 -3 22 33 19 7 9 8 25 25 0 -16 -20 13 6 7 23 12 -5 10 4 23 17 -19 19 8 15 -19
36 36 22 25 18 9 5 20 8 15 16 8 -20 -20 -4 -20 4 15 -11 -20 13 29 23 -20 5 -6 7 29 0 5 -20 24 13 17 3 6 -10 -13 16 -14 17 37 43 11 23 -20 11
35 27 21 20 20 -20 -18 17 20 11 3 14 2 -20 -20 11 7 -3 -18 15 16 23 12 4 11 6 18 15 -13 -13 -20 2 -20 16 23 -20 8 21 -6 17 19 26 27 6 18 4 -4
31 28 35 21 20 26 15 18 14 14 -19 9 13 7 -20 -20 6 -20 2 13 20 11 7 19 21 14 10 11 13 19 13 17 20 10 32 27 31 33 6 29 41 36 29 29 13 11 -20
22 29 35 23 22 16 -5 18 19 19 15 11 16 17 1 -20 11 17 6 24 18 -3 -20 24 28 27 32 19 12 13 21 20 6 19 40 7 -2 24 11 30 42 24 36 3 -7 -4 -20
18 28 35 25 -15 21 10 23 19 15 8 24 10 14 11 -18 18 7 17 12 14 6 5 25 23 28 31 24 -20 -18 -15 22 -15 9 34 -17 0 10 23 22 24 25 36 14 -20 -20 -20
13 26 39 27 22 19 19 22 17 13 7 23 11 -16 2 -19 -5 25 17 22 20 2 28 26 -3 -12 16 9 -3 9 -5 -20 -20 21 22 28 24 26 35 22 14 33 -12 -6 -20 -20 -18
19 29 35 28 26 18 6 23 18 9 10 27 12 -10 -20 -20 19 19 11 27 11 15 26 -1 -3 -20 7 -13 -20 -12 -11 -20 -15 12 26 35 37 30 35 13 29 13 24 -7 -20 -20 -14
25 32 34 32 23 21 25 15 27 4 5 27 10 11 9 9 13 13 8 28 17 30 27 2 -19 -20 -20 -20 -20 7 -20 -19 -19 16 34 32 35 31 25 -7 4 31 -20 -20 -20 -20 -20
17 24 32 31 20 23 31 -1 9 15 12 -0 14 1 16 -4 19 12 15 30 24 7 15 -20 -20 -20 -20 -20 -13 -20 -20 -20 -16 13 24 22 38 32 35 -5 -5 6 16 -20 -20 -20 -20
16 28 28 32 20 19 35 1 -0 13 23 -16 14 12 23 25 16 14 24 30 22 -14 3 -20 -18 -20 -20 -20 -20 -20 -20 -20 -12 -19 25 2 3 3 -20 -20 -20 -20 -20 -20 -20 -20 -20
20 25 27 38 23 22 35 8 5 12 18 13 19 -6 13 23 1 -11 28 27 33 21 -15 -20 11 -17 -19 -20 -20 -15 -20 -20 -20 -20 -19 -14 3 -17 -6 -20 -20 -20 -19 -16 -20 -20 -20
21 5 25 35 22 23 39 11 -11 7 24 21 17 -17 -9 9 -20 -14 10 29 25 28 10 -0 25 -20 -20 -20 -20 -20 -20 -20 7 -19 -19 -20 -6 -20 -20 -20 -20 -20 -20 -20 -20 -20 -20
13 21 24 26 21 26 20 25 -17 7 27 11 10 -15 -20 -13 10 6 -12 23 24 25 18 -19 2 4 -19 -20 -20 -20 1 10 -8 -20 -20 6 -20 -16 -0 -20 -20 -20 -20 -20 -20 -20 -20
12 20 19 25 26 24 26 26 -20 14 13 -5 -5 4 -20 -20 -20 -15 -20 24 32 27 16 14 12 12 -19 -17 -20 -20 -4 -20 1 -20 -20 -9 -18 -16 -20 -20 -20 -20 -20 -20 -20 -20 -20
15 11 19 28 30 18 30 33 -20 2 11 6 8 19 -17 -20 -20 -20 -19 28 29 19 26 15 18 -4 1 -9 6 -8 -12 -9 15 -12 -1 -5 6 12 -19 -19 -20 -20 -20 -20 -20 -20 -20
7 18 20 27 27 24 31 22 -0 -14 6 1 -7 21 20 -20 -20 -20 0 27 25 10 7 16 28 24 14 -9 13 -0 11 0 12 9 18 19 19 -12 -20 -20 -20 -20 -20 -20 -20 -20 -20
-1 17 21 23 30 17 19 26 18 -20 -16 7 -4 12 22 -17 -20 -20 9 24 29 19 26 17 -8 15 -17 2 24 13 -0 -15 -12 -14 20 19 7 -1 -20 -9 -20 -20 -20 -20 -20 -20 -20
-20 10 13 22 23 20 22 27 25 -8 -19 7 -4 15 12 1 -20 -20 -8 26 32 24 -10 -20 -19 -14 13 26 20 -20 -20 -20 -20 -20 -19 2 16 -4 -9 27 -20 -20 -20 -20 -20 -20 -20
2 8 16 16 32 15 27 25 25 11 -12 -20 -3 3 10 -6 -20 -20 -16 16 30 29 22 20 -8 -20 -20 3 -20 -20 -20 -20 -20 -20 -20 -8 -20 -20 -20 -16 -18 -20 4 -2 -20 -20 -20

GFSGBSN_prec_radar_006.txt.gz
Reflectivity
-19 1 12 -15 3 12 -12 -4 13 -14 -20 -20 -20 -20 -20 -20 -20 -7 -20 -20 -20 -20 -20 -20 -20 -20 -20 -7 -10 -20 -20 -20 -20 -20 -20 -20 -18 -20 -20 -14 -20 -20 -20 -20 -20 -20 -20
-2 -20 13 -14 -20 15 13 -20 -10 -20 -20 -20 -20 -20 -20 -17 -20 -6 -20 -20 -20 -9 -20 -20 -20 -20 -16 -4 -20 -20 -20 -20 -20 -20 -3 -18 -2 -20 -20 -20 3 -17 -20 -20 -20 -20 -20
-1 -20 -20 12 -20 -20 -0 4 9 -20 -20 -1 -20 -20 -20 -18 -20 -20 -20 -20 -20 -20 -20 11 -20 -20 9 -20 -20 -20 -20 -20 -20 -20 -13 -12 -20 -20 -20 -20 -20 -20 -16 -1 -20 -20 -20
-20 -20 -20 -17 -15 -20 16 -19 5 -20 -20 -20 -20 -20 -20 1 -0 -20 -20 -20 -20 -20 10 15 -20 2 -13 -20 -20 -20 -20 -20 -20 -20 -20 -20 -16 -20 -18 -16 -20 12 26 11 -20 -20 -20
-20 -20 -20 -20 -9 -20 9 -13 -19 -15 -20 -20 -20 -20 -20 -5 12 -20 -5 -20 -20 -13 -4 7 -17 5 -17 -20 -20 -20 -20 -20 -20 -20 -20 -20 -20 -20 13 1 14 2 -17 -20 -20 -20 -20
31 -20 -20 -20 -20 -20 -5 10 -11 0 -20 -20 -20 -20 -10 -11 -13 -20 -3 -20 -20 -12 8 14 -11 11 -20 -20 -20 -20 -20 -20 -20 -20 -20 -20 -7 4 -4 11 0 -4 11 -20 -12 -20 -20
16 25 4 -20 -20 -20 -20 -13 -20 -20 -20 7 -20 -20 -20 -20 -20 -2 -11 -20 -20 -11 2 -20 -20 -20 -20 -20 -20 -20 -20 -20 -20 -20 -20 -15 10 6 -20 -20 -20 -11 7 26 -20 -20 -14
13 4 23 18 -11 -20 -20 -12 -20 -20 -20 16 -20 -20 -20 -20 -11 17 6 -0 -20 -19 1 16 -9 -15 -19 -19 -20 -20 -20 -17 -8 -2 -20 6 -3 -20 -20 -20 -16 -20 -4 -1 -20 -6 9
-8 5 28 33 15 -5 -20 -20 -20 -20 -20 9 -20 -20 -20 -20 7 14 -5 -20 -20 -20 23 18 -14 -17 -20 15 -13 -20 -20 -20 -20 -7 -10 -14 -20 -20 -20 -16 6 6 5 10 -18 -20 22
0 -6 18 36 33 17 17 20 21 -11 -2 18 4 -20 -20 -19 -1 -20 -4 14 -20 -15 26 -2 -14 -12 -17 14 4 -20 9 -20 -19 -19 -20 12 -20 -20 -8 -18 -20 1 -20 -8 8 28 -3
-3 9 -14 3 17 17 20 -10 14 18 17 8 -0 5 -20 -20 14 9 -20 -20 -17 15 7 -20 2 -7 -20 -8 -9 -17 10 25 7 -20 20 6 -20 -7 0 -20 -20 -17 -17 5 29 39 -11
3 12 -1 12 22 35 19 16 19 19 15 7 10 8 2 11 -15 -20 -14 -20 -10 7 -3 -10 -5 -2 16 3 -4 19 -19 13 -15 19 12 -11 -16 23 -7 -20 -20 -20 -20 14 45 29 15
8 18 16 12 22 34 28 24 18 25 18 12 12 1 1 -19 -16 -20 -20 0 9 1 -20 -1 3 6 -10 12 13 26 20 10 11 12 13 9 -20 20 26 24 12 20 9 27 35 41 37
4 -0 21 20 23 30 31 5 -15 28 20 10 22 12 8 -20 -20 -20 -15 7 -2 -20 -20 -4 2 9 20 15 18 28 25 19 19 22 12 -5 -18 -20 -20 -17 23 16 8 40 13 29 7
0 20 22 20 23 37 34 22 -17 18 23 19 21 23 -3 17 10 -12 -16 6 -15 3 8 19 26 23 14 10 25 15 10 22 -20 -13 14 31 2 6 0 -3 24 14 31 35 44 19 -20
20 23 22 11 23 40 29 19 21 21 28 18 24 24 11 31 22 20 8 13 -1 10 14 27 20 -20 2 -7 -4 -6 15 -20 -12 7 8 19 19 0 12 22 16 19 23 41 24 -10 -20
19 20 16 16 26 40 30 12 22 38 19 22 12 23 13 27 27 21 8 1 -6 10 27 26 -18 -12 -3 -20 -20 -20 -20 -20 -19 -20 13 19 26 4 19 19 16 41 42 30 39 22 -20
18 17 26 30 31 38 29 18 20 30 20 24 15 25 14 19 22 15 7 -6 19 20 28 29 -20 -20 -20 8 -20 -9 -19 7 -20 -7 3 24 32 19 10 7 26 6 33 37 19 17 -13
4 14 21 33 40 34 22 29 5 24 19 11 26 25 26 20 8 7 -4 11 27 26 18 24 -20 -20 -20 7 -19 -20 -20 -1 -16 14 22 29 29 20 33 36 37 44 34 0 10 -20 3
-18 10 25 27 28 31 30 35 36 17 -7 -20 19 28 29 29 -6 6 -2 19 25 19 16 -3 -20 -20 -20 -20 -20 -6 -16 -11 -11 16 27 35 33 41 22 -5 -9 -7 -12 -18 -18 -20 -20
-20 0 10 23 30 22 34 26 42 14 14 -3 18 14 6 19 9 6 20 15 28 26 11 -19 -20 -20 -20 -15 -19 -20 -17 -9 -17 -9 24 33 40 31 -1 -20 -1 15 7 17 -20 -18 -20
-20 -12 14 20 21 34 24 14 40 32 22 26 19 3 20 17 -15 -2 -20 12 27 30 35 -3 -20 -4 5 -20 -20 -20 -4 -20 -20 -20 -14 -13 -2 -11 -6 -20 -20 -11 -20 -20 -5 -20 -20
-20 -20 14 10 16 33 18 41 34 26 22 20 20 -0 1 4 -16 13 1 5 13 32 27 8 -13 -20 9 -20 12 2 -15 -20 -19 -20 -20 -20 -20 -15 -20 -20 -20 -20 -20 -20 -20 -20 -20
-20 -20 8 11 14 27 19 39 35 24 15 9 1 3 20 23 -4 -7 1 10 12 33 30 24 -8 13 22 21 4 15 8 -20 -15 18 -20 -20 -20 -20 -20 -20 -20 -20 -20 -20 -20 -20 -20
2 -20 -10 4 11 17 24 42 32 23 13 -3 4 24 24 19 17 -9 -20 6 -5 22 29 26 16 -17 -19 9 20 22 29 -14 -20 -20 6 -17 8 0 -20 -20 -20 -20 -20 -20 -20 -20 -20
-14 -17 10 -1 9 16 17 26 4 22 16 15 5 17 23 21 28 -12 -20 -8 27 29 30 27 17 4 26 25 13 15 14 3 -16 8 -8 3 -9 -20 -20 -20 -20 -20 -20 -20 -20 -20 -20
-2 -19 6 13 13 15 -11 25 22 20 24 5 10 -9 21 20 -2 -6 -20 -15 29 29 28 18 13 20 17 21 10 -3 -5 -20 -20 -20 -19 14 -4 -4 -20 -20 -20 -20 -20 -20 -20 -20 -20
-20 -20 5 3 5 10 5 26 26 27 22 9 -0 -20 14 14 -0 -3 -20 7 33 27 30 8 7 25 26 18 2 -20 -20 -20 -20 -20 -20 19 24 10 10 -16 -20 -20 -20 -20 -20 -20 -20
-20 -20 3 8 18 14 3 29 31 25 25 14 3 -20 16 20 -1 -20 -20 -20 33 27 32 30 24 -1 12 5 -20 -7 -20 -20 -20 -20 -20 2 -19 -7 -20 -20 -18 -20 -20 -20 -20 -20 -20

GFSGBSN_prec_radar_009.txt.gz
Reflectivity
2 -20 -20 -20 -20 4 -20 12 -20 5 -9 -20 -20 -20 -20 -14 -15 -20 -20 -20 -20 -20 -20 -13 -14 -15 -11 7 -11 -20 -20 -20 -20 -20 -20 -20 -20 -20 -20 -20 -20 -20 -20 -20 -20 -20 -20
23 -0 -20 -20 -20 9 -20 -20 14 -17 -1 -19 -20 -20 -20 -20 -3 -20 -20 -20 -20 -20 -20 -20 -20 10 -8 -10 -20 -20 -20 -20 -20 -20 -20 -20 -20 -20 -9 -20 -20 -20 -20 -20 -20 -20 -20
11 27 -20 -20 -20 -12 -6 -20 11 15 11 -20 -13 -20 -20 -20 -20 -20 -20 -20 -9 -20 -20 -20 -20 -20 -16 -20 -20 -20 -20 -20 -20 -20 -20 -20 0 9 2 -20 -20 -20 -20 -20 -20 -20 -20
8 12 29 -10 -20 -20 -14 -20 14 12 16 12 -12 -20 -20 -20 -20 -17 -20 -20 -4 4 -20 -20 -20 -6 -20 -20 -20 -20 -20 -20 -20 -20 -20 -20 -20 -20 -20 -20 -20 -20 7 -1 -20 -20 -20
-18 -8 11 30 -6 -20 -20 -20 -6 12 9 18 9 -20 -20 -20 -20 1 -20 -9 -20 -20 -8 -20 -10 -20 -20 -20 -20 -20 -20 -20 -20 -20 -20 -20 -20 -20 -20 -5 -9 -8 -3 -1 -15 -20 -20
-20 -20 10 8 21 9 -20 0 -11 8 8 -2 12 1 -20 -20 -20 -8 -11 -20 -20 1 7 13 -7 -5 -20 -20 -20 -20 -20 -20 -20 -20 -20 -20 -20 -20 -20 9 9 9 -0 -19 -12 -20 1
12 15 1 3 16 29 26 -13 -18 -20 -14 -20 8 20 -7 -20 -20 -20 -20 -20 -20 -20 13 -20 -20 -20 -20 -20 -20 -20 -20 -20 -20 -20 -20 -20 -1 2 -20 -20 -20 -20 -18 5 -14 -20 -20
19 15 -8 11 19 26 20 17 21 -20 -20 -18 9 4 -1 -19 -20 -20 -20 -16 -20 -20 -20 -20 -20 -20 -20 -20 -19 -20 -20 -20 -18 -20 -20 -11 -14 -20 -20 -20 -20 -19 -14 -20 -20 -20 18
-20 2 1 -20 13 7 12 22 18 23 1 10 -13 22 6 15 -13 9 -20 -20 -20 -20 -20 -19 -12 -20 -20 -20 -10 -17 -20 -20 -20 -3 -20 -20 -20 -20 -20 -20 -4 2 -20 -20 -20 -20 9
-15 -17 12 5 2 17 16 33 29 18 22 17 19 17 12 -12 -4 -20 -17 -20 -20 -5 8 1 -20 6 -16 -13 16 -2 -7 -18 10 -18 -20 -20 -20 -20 -16 -20 -20 -8 -20 -20 -20 6 10
-18 16 -6 13 15 -1 14 36 34 19 21 -11 20 18 12 -20 -20 -20 -20 -20 -18 -2 -20 -20 -11 -20 -20 0 3 -20 -16 20 19 -19 11 -9 -20 -20 -20 -20 -5 -20 -20 -20 10 9 15
-12 -20 19 17 21 14 21 31 33 30 4 29 -2 18 12 -6 -20 -20 -20 -20 -12 -20 -20 -12 -20 -10 3 -3 6 12 -2 11 15 31 32 1 -20 -12 -20 -20 -20 -20 -12 -13 16 21 20
-11 2 19 20 9 10 19 -11 18 34 0 23 28 13 12 -19 -18 -20 -20 -20 -17 -20 -20 -20 -7 -8 -20 -6 7 12 7 21 28 28 20 -5 -20 -20 -20 -20 -20 11 10 16 17 16 1
-6 -12 23 19 20 26 25 12 23 26 26 27 32 25 20 -12 -16 -20 -20 6 -4 -20 -20 -20 -18 -14 9 -20 13 4 20 30 18 31 5 -9 -20 -20 -20 -18 -20 -20 10 -1 -2 -20 -14
9 12 22 14 -4 33 27 20 16 41 30 25 36 32 -7 11 -7 -16 -20 -12 -20 -20 -20 -1 1 26 -0 12 -5 18 5 31 -19 -20 -20 -18 -18 -20 -20 -20 -20 -20 3 -20 11 11 21
-11 15 19 15 34 20 20 18 19 36 30 27 37 18 21 13 24 16 -12 -20 -20 -20 -20 5 19 12 -20 -18 14 7 -20 -20 -20 -20 -20 -14 13 21 17 -3 16 12 -20 9 25 18 -1
-1 6 5 25 36 29 29 32 34 33 14 27 29 16 25 12 30 31 16 -20 -20 -20 -18 16 20 9 -20 -20 -20 -20 -20 -20 -20 -20 3 6 8 24 36 -2 -2 27 33 6 20 33 35
2 -20 -20 27 27 36 33 32 36 21 24 36 37 9 23 25 32 25 5 -20 -12 -20 6 20 32 3 -20 -20 -20 -20 -20 -20 0 4 7 17 28 22 -6 19 -9 11 33 8 10 14 41
-20 -15 -14 14 23 30 31 36 28 6 18 46 36 25 25 22 28 17 -17 -15 -11 6 9 22 25 -20 -20 -16 -20 -20 -20 -14 -10 16 30 27 25 10 12 32 29 17 8 18 27 37 36
11 -20 -20 -16 16 33 31 23 12 25 26 41 18 36 26 35 12 -16 -3 -2 5 11 11 27 22 -20 -10 -13 -20 -12 -20 -20 6 9 27 31 31 31 15 -16 -6 9 -4 18 38 41 9
11 -20 -20 -20 19 29 24 29 22 44 40 26 9 30 1 27 19 1 -6 5 2 22 20 31 13 -20 -20 -20 -20 -20 -20 -20 -3 6 23 33 32 39 18 -8 -4 14 23 39 44 26 -14
-20 -20 -20 -11 24 12 32 30 15 15 41 19 -20 5 1 -7 -20 -16 12 16 8 11 22 21 21 -20 -20 -20 -20 -20 -20 -20 -20 -11 8 28 38 34 6 13 25 29 30 37 31 19 -20
12 -20 -20 9 4 18 25 29 35 30 34 33 -16 -20 -16 -16 -17 13 -1 -16 -20 3 17 12 9 -16 -20 -20 -17 -20 -20 -19 -20 -13 1 28 30 23 30 21 19 26 -12 -20 -20 -20 -20
-6 -20 -11 7 -4 15 17 26 25 39 38 28 -11 19 32 -0 -13 2 -19 -5 -8 -11 15 15 14 -16 -20 -20 6 -18 -6 -20 -18 1 -20 -20 -2 -14 -14 -12 -14 -20 -15 -20 -20 -16 -20
17 -20 -20 -20 9 18 14 19 31 36 25 24 -20 -13 19 5 10 25 21 -20 -20 -17 15 24 15 -16 -7 19 -3 21 19 7 -8 -19 4 -20 -20 -20 -20 -20 -20 -20 -20 -20 -20 -20 -20
12 -1 -20 -20 11 9 7 21 35 28 33 29 15 22 19 17 3 -8 21 -20 -20 -20 21 22 25 20 23 13 15 30 5 -0 -15 -20 -20 -20 -20 -20 -20 -20 -20 -20 -20 -20 -20 -20 -20
22 -20 -20 -20 14 9 13 21 37 21 16 11 17 17 17 23 -4 -8 17 5 -20 -16 28 31 21 22 -3 24 -2 24 -20 -20 -19 -20 8 14 -6 -19 -20 -20 -20 -20 -20 -20 -20 -20 -20
-18 -9 -20 -20 10 10 6 23 34 29 21 21 5 6 17 6 -5 -9 -2 10 -11 17 27 29 29 16 15 27 28 0 -2 -20 -20 -20 -14 10 5 2 -12 -8 -20 -20 -20 -20 -20 -20 -20
17 -19 -19 -20 -18 5 14 14 17 27 20 18 10 -1 17 8 -0 4 6 -20 -17 18 25 25 23 9 4 -12 -12 20 -17 -20 -20 -20 -20 -20 -20 -20 -20 -20 -20 -20 -20 -20 -20 -20 -20

GFSGBSN_prec_radar_012.txt.gz
Reflectivity
13 18 24 22 -20 -20 -20 -5 -20 10 5 16 9 -20 -20 -20 -20 -20 -20 -20 -20 -20 -20 -20 -20 -20 -20 6 -20 -20 -20 -20 -20 -20 -7 -20 -20 -20 -20 -20 -20 -20 -20 -20 -20 -20 -20
-16 6 7 16 26 -20 -20 -20 -20 -20 8 12 2 -10 -20 -20 -19 -20 -20 -20 -20 -20 -20 -20 -20 -20 -20 -20 -20 -20 -20 -20 -20 -20 -20 -18 -20 -20 -20 -20 -20 -20 -20 -20 -20 -20 -20
-20 -20 -20 -19 11 33 -1 -20 8 -20 7 15 14 0 -20 -20 -20 -20 -20 -20 -15 -20 -20 -20 -20 -20 -1 -20 -20 -20 -20 -20 -20 -20 -20 -20 -20 4 -18 -20 -20 -20 -20 -20 -20 -20 -20
15 -4 -20 -20 -3 7 28 12 -16 -20 -17 6 18 1 -18 -20 -20 -3 -20 -20 -20 -0 -20 -20 -20 -14 -20 -20 -20 -20 -20 -20 -20 -20 -20 -20 -20 -20 -20 -20 -20 -20 -20 -20 -20 -20 -20
1 18 11 7 -1 7 13 26 16 -14 -20 11 18 8 0 -20 -20 -20 12 -20 -20 -20 -20 -20 -20 -20 -20 -20 -20 -20 -20 -20 -20 -20 -20 -18 -17 -20 -20 13 -5 -20 -12 -20 -20 -20 -20
-20 -13 -11 15 -20 -5 20 5 27 18 -8 -18 11 13 12 5 -15 -20 14 11 -20 -9 10 14 -0 -6 -20 -20 -20 -20 -20 -20 -20 -20 -20 -20 -20 -20 -20 -11 2 -15 -16 -20 -20 -20 -20
-20 -13 7 4 11 -12 11 8 10 20 19 28 13 12 23 13 16 -20 -13 -20 -20 -20 12 -20 -20 -20 -20 -20 -20 -20 -20 -20 -20 -20 -20 -20 -10 -6 -20 -20 -20 -20 -20 -20 -20 -20 -20
-20 3 12 15 11 9 -8 -14 19 22 25 18 -20 17 8 16 11 -20 -20 -20 -20 -20 -20 -20 -20 -20 -20 -20 -20 -20 -20 -20 -20 -18 -20 -1 -9 -20 -20 -20 -20 -20 -20 -20 -20 -20 -20
-20 -20 2 12 17 0 17 -2 -11 37 22 25 22 -11 17 17 18 14 -20 -20 -20 -20 -20 -20 -20 -20 -20 -7 -16 -18 -20 -20 -20 -20 -20 -10 -20 -20 -20 -20 -14 -20 -20 -20 -20 -20 -20
-20 -20 -13 13 4 13 13 8 7 29 33 32 20 -14 21 19 13 -20 4 -20 -20 -20 -20 -20 -20 -2 3 10 -4 -5 -20 -20 10 -18 -20 7 -20 -20 -20 -1 -20 -20 -20 -20 -8 11 -4
-20 -18 7 10 13 25 17 6 9 -9 24 27 26 24 -4 12 -20 -20 -20 -20 -20 -6 -20 -20 -20 -20 -13 10 -19 -20 -20 7 2 -16 -20 0 -20 -20 -20 -20 -20 -17 -20 -20 4 12 10
-20 20 7 19 26 20 12 13 12 13 27 34 38 25 21 13 -20 -20 -20 -20 -20 -20 -20 -13 -11 -3 3 -0 -11 -20 -20 9 22 26 5 -18 -20 -20 -20 -20 -20 5 15 14 14 13 10
-20 9 7 -3 22 26 11 6 1 23 33 36 40 22 -11 11 -20 -20 -7 -6 -20 -20 -20 -10 -13 -16 -20 -9 -4 -17 -7 18 29 18 14 34 11 -18 -20 3 8 3 15 10 13 10 -4
-20 8 6 2 19 13 32 27 27 26 26 31 44 18 16 -17 -20 -20 -16 -20 -20 -20 -20 -20 -20 -20 -18 -20 5 -8 14 5 -3 24 27 -15 2 9 -20 -11 2 5 -10 -19 -11 -20 -20
-20 -15 4 -16 8 27 29 28 19 19 26 28 37 31 41 7 -10 -20 3 -2 -20 -20 -20 -20 7 1 7 -17 -19 8 7 -10 -9 12 2 6 5 -13 -20 -20 6 -3 15 -15 -17 7 12
-20 -7 -2 -20 -16 26 30 31 27 20 17 27 36 36 23 17 -14 10 12 -20 -20 -20 -20 -20 -18 -16 -20 -20 -3 -8 -14 -20 -20 -17 -20 -20 -20 -20 -20 -20 -13 -18 -20 4 4 -1 -20
-12 -20 -2 -20 -20 6 28 31 28 34 21 28 38 34 38 10 5 14 22 -20 -20 -20 -20 -20 -2 0 -20 -20 -20 -20 -20 -20 -20 -20 -20 -20 -13 -17 -20 -20 -3 -1 11 17 -17 -12 4
0 -12 -20 -20 -20 3 27 38 33 31 26 34 37 41 28 30 32 27 17 -20 -20 -20 -20 -20 -16 8 -18 -20 -20 -20 -20 -20 -20 -20 -20 -17 22 10 5 11 19 -18 -20 -19 10 -20 -19
-20 -20 12 -20 -20 -20 13 35 24 25 23 35 35 40 26 28 22 14 -10 -16 -20 -0 5 13 7 4 -20 -20 -20 -20 -20 -20 -10 -20 -1 21 25 11 4 18 3 33 -20 -20 -16 -14 -15
12 -6 9 -20 -20 -17 16 22 14 24 41 32 25 36 31 32 29 -12 1 -8 -0 9 -15 19 17 3 -0 -9 -20 -20 -20 -11 2 8 18 28 30 25 18 38 17 15 -4 -20 -1 13 13
8 8 10 -20 4 -20 15 16 11 33 33 22 34 31 6 32 29 1 -14 -3 -20 3 5 19 23 8 -17 -20 -20 -20 -20 -17 5 17 30 35 22 31 31 20 31 28 9 14 32 14 9
13 17 14 -20 -20 -20 15 18 30 31 20 38 28 31 10 -20 -17 -2 -1 -14 0 -9 9 24 18 20 -16 -20 -20 -20 -20 -20 -20 12 30 34 28 40 27 -14 1 13 -20 2 11 19 26
14 16 3 -20 -20 -9 11 6 28 24 22 34 28 17 9 -18 -20 -16 -12 -14 -2 -15 -19 22 12 11 -18 -20 -20 -20 -20 -16 9 -6 17 33 37 33 36 12 33 29 19 22 34 38 33
-5 18 17 -16 -20 -20 4 17 21 36 31 31 34 -6 16 2 -18 -20 -17 1 -20 -20 -20 6 15 -9 -19 -20 -20 -20 -20 -20 -20 -20 -2 -2 28 26 35 39 5 3 0 32 31 35 37
-20 18 19 17 -20 -20 -9 9 20 32 33 39 8 -20 -20 -5 -12 -14 -13 3 -20 -20 -20 -3 18 9 7 -20 -1 13 -20 -17 -20 -20 -20 -19 -8 -20 -20 -20 -20 -14 -20 -15 7 -17 -19
18 18 -7 -20 -20 -20 1 13 22 17 20 23 33 21 -20 -20 3 3 0 -5 -19 -20 -20 -19 12 23 14 11 27 13 -14 -20 -20 -20 -20 -20 -20 -20 -20 -20 -20 -20 -20 -20 -20 -20 -20
19 15 -1 -20 -20 -17 8 21 26 33 30 30 26 12 8 4 5 -8 -19 -15 -18 -20 -15 2 25 27 15 -18 32 9 -20 -20 -17 -20 -6 -0 -3 -20 -20 -20 -20 -20 -20 -20 -20 -20 -20
17 12 8 -20 7 -20 0 10 24 35 37 30 22 24 -1 -1 -16 -20 -18 -17 -20 -16 -20 10 26 29 11 15 21 -4 -16 -20 -20 -20 -20 -18 -19 -19 -20 -20 -20 -20 -20 -20 -20 -20 -20
2 -17 14 -20 -20 -20 -20 7 23 27 26 27 19 17 9 -10 -9 -20 -20 -15 -11 -20 -15 11 17 17 28 5 1 -20 -12 -20 -20 -20 -20 -20 -20 -20 -20 -20 -20 -20 -20 -20 -20 -20 -20

GFSGBSN_prec_radar_015.txt.gz
Reflectivity
-20 -13 8 -8 13 20 21 14 -20 -6 -15 15 8 13 -12 -20 -9 8 -11 3 -20 -20 -20 -20 -20 -20 -20 -13 -18 -20 -20 -20 -20 8 -10 -20 -20 -20 -20 -20 -20 -20 -20 -20 -20 -20 -20
5 8 -20 -13 5 7 7 21 25 -5 -13 -10 -10 12 8 -20 -20 5 8 -20 -20 -20 -20 -20 -20 -20 -20 -20 -20 -20 -20 -20 -20 -20 -20 -17 -20 -20 -20 -20 -20 -20 -20 -20 -20 -20 -20
-20 -20 -20 -18 10 -20 -1 8 28 22 -14 8 17 14 22 -18 -20 -20 6 -20 11 -20 -20 -20 -20 -20 -20 -20 -20 -20 -20 -20 -20 -20 -20 -20 -20 -20 9 -20 -20 -20 -20 -20 -20 -20 -20
-20 -20 -18 5 -19 -8 -20 5 10 28 26 -20 -13 20 5 8 -20 -20 6 -20 12 19 -19 -20 -20 -20 -20 -20 -20 -20 -20 -20 -20 -20 -20 -20 10 -20 -20 -20 -17 -8 -20 -20 -20 -20 -20
-20 -20 -20 1 9 9 11 -11 9 -1 20 25 1 22 0 22 1 -20 15 -20 -20 -20 8 -7 -20 -20 -20 -20 -20 -20 -20 -20 -20 -20 -20 -20 -20 -13 -20 -2 3 1 -20 -20 -20 -20 -20
-20 -20 -20 -6 16 19 18 7 -15 -9 10 24 21 -20 24 18 8 -13 -20 19 7 2 -2 18 -4 -20 -20 -20 -20 -20 -20 -20 -20 -20 -20 -20 -20 -10 -15 2 -17 -20 -20 -20 -20 -20 -20
-20 -20 -20 -20 -20 23 17 12 -3 -1 -18 27 26 20 23 22 4 9 0 -19 -20 -20 6 -20 -20 -20 -20 -20 -20 -20 -20 -20 -20 -20 -20 -20 -20 -2 -20 -20 -20 -20 -20 -20 -20 -20 -20
-20 -20 -20 -6 10 5 15 12 2 0 9 -16 31 26 23 -19 20 12 -8 -20 -20 -20 -20 -20 -20 -20 -20 -20 -20 -20 -20 -20 -20 -20 -20 -16 -20 -20 -20 -20 -20 -20 -19 -13 -20 -20 -20
-20 -20 13 6 10 13 17 11 15 5 2 4 -7 30 24 27 -13 21 -19 -20 -20 -20 -20 -20 -20 -17 -20 -10 -13 -20 -20 -20 -20 -20 -20 -20 -20 -20 -20 -20 -20 -20 -14 -18 -20 -20 -20
-20 -20 -20 -20 6 25 17 18 19 16 8 15 14 29 33 25 27 5 7 -20 -20 -20 -20 -20 -20 -20 -2 11 -7 -20 -20 -20 -20 -20 -20 1 -20 -20 -20 -20 -20 -8 -20 -20 -20 -1 -10
-20 -20 -4 -4 15 -3 23 33 16 11 10 11 35 30 34 28 -7 14 -20 -20 -20 -20 -20 -20 -20 -20 12 2 -20 -20 -20 -13 -5 -20 -20 -19 -20 -20 -20 -20 -20 -1 -20 -20 -2 9 -14
-20 7 16 -17 14 15 19 18 7 -9 0 -12 36 36 37 32 13 5 -20 -20 -20 -20 -20 -19 -20 -8 -9 4 -3 -20 -3 8 14 21 7 -5 -20 -20 -20 -20 -20 -7 -9 -5 16 -8 5
8 -15 -12 -20 4 10 20 16 30 19 5 -15 18 31 38 21 -19 -12 -20 -20 -20 -20 -20 -9 -11 -6 -20 -19 -9 -6 -20 9 15 14 9 21 8 -15 -20 -20 -20 -0 13 13 14 16 -7
15 9 -20 -20 14 9 1 27 31 29 17 28 19 36 39 28 3 2 -20 -20 -20 -20 -20 -20 -20 -20 -18 -20 -6 -14 10 -3 7 26 12 -8 -9 -3 -2 -20 -18 -20 -1 4 3 -20 -20
17 -20 18 -20 22 -20 16 23 22 30 24 21 6 27 36 41 35 -14 -20 -18 -20 -20 -20 -20 -18 -1 -3 -4 -11 -4 -20 -20 -20 -20 4 -19 -20 -20 -20 -19 4 32 18 9 -8 -13 14
16 18 -1 -20 19 -13 -7 22 23 32 26 17 20 38 41 34 21 -19 -7 -20 -20 -20 -20 -20 -20 -20 -20 -17 -7 -12 -20 -20 -20 -20 -20 -20 -16 -20 -20 -20 -20 4 -18 14 25 12 9
15 16 -1 -20 8 -17 -20 9 31 26 38 31 29 37 39 33 8 -8 -1 -20 -20 -20 -20 -20 -20 -20 -20 -20 -20 -20 -20 -20 -20 -20 -20 -14 -16 -20 -20 -18 -20 -7 -4 13 0 -19 -16
18 15 5 16 -20 -20 -20 10 19 26 34 19 26 33 37 36 37 27 6 -20 -20 -20 -20 -20 -20 -9 -18 -20 -20 -20 -20 -20 -20 -20 -12 -20 -2 -10 -2 -19 9 -14 -20 -20 8 -20 -20
19 17 17 16 -20 5 -20 9 13 14 31 28 23 29 35 16 23 26 -12 -15 -20 -20 -20 -15 -20 -4 2 -5 -20 -20 -20 -20 -20 -20 -20 -6 20 9 5 21 29 36 21 -14 -20 14 -17
17 17 6 3 -20 -20 -13 5 11 24 34 22 21 35 39 35 24 -14 -19 -11 2 -20 -20 -9 -11 10 28 7 -20 -20 -20 -20 -19 -20 -17 7 29 16 17 24 32 15 -9 -20 -20 -20 -20
-2 11 17 -12 -20 -20 6 5 -2 26 27 7 25 35 31 33 34 -20 -20 -20 -20 5 -15 10 10 19 25 -1 -18 -20 -20 -18 -7 5 21 33 21 29 31 31 30 27 -7 -20 -20 -20 -20
18 16 7 19 -20 -20 -20 7 3 4 -3 13 37 17 -13 7 -8 -11 -20 -20 -20 -20 12 6 15 19 0 13 -20 -20 -20 -20 -4 15 22 30 25 33 11 27 11 24 1 -4 -20 -20 -9
1 -20 -14 22 7 -20 -20 -20 9 14 33 41 28 4 9 8 -9 8 -10 1 -19 -4 -18 -20 9 13 2 17 2 -20 -20 -11 12 -2 14 29 28 33 30 34 11 10 -6 -19 -8 16 5
9 16 -20 5 -20 -10 -20 1 13 18 29 25 18 32 27 13 7 -16 -8 -20 -17 9 2 -20 -6 6 -19 -10 -20 -20 -17 -20 -20 4 -15 8 28 38 31 27 22 33 23 8 -8 -1 2
13 21 -16 16 -20 -20 -20 -20 13 18 28 16 25 32 20 8 -19 13 -10 -20 19 18 -15 -20 -10 -5 -1 -10 -3 -3 -15 -20 -20 -20 -18 -20 1 32 -0 -19 -13 -1 23 34 29 29 29
17 14 6 14 -20 2 -20 -20 4 14 22 6 -20 19 25 23 7 -18 -20 -20 16 24 -20 -20 -20 -8 18 25 16 13 -20 -20 -20 -20 -20 -20 -20 13 -5 -20 -20 -20 -9 -13 13 -13 -20
2 18 -13 -11 -20 -20 -20 -11 2 11 19 15 22 32 -14 -12 -17 -19 -20 1 -7 -19 -20 -20 -20 -7 12 20 16 -14 -19 -20 -20 -20 -20 -20 -14 -20 -7 -20 -20 -20 -20 -20 -20 -20 -20
-5 18 6 -4 5 -20 -3 -20 4 9 22 18 5 31 13 -15 -16 -20 -20 -20 -19 -20 -20 -19 10 16 24 22 9 4 -20 -20 -20 -20 -20 -20 -20 -20 -20 -20 -20 -20 -20 -20 -20 -20 -20
-16 17 -3 -19 -20 -18 4 -20 4 8 18 23 34 31 32 9 9 -20 -20 -20 -20 -18 -13 -20 -17 23 31 12 -19 -19 -20 -20 -20 -20 -20 -20 -20 -20 -20 -20 -20 -20 -20 -20 -20 -20 -20

GFSGBSN_prec_radar_018.txt.gz
Reflectivity
-20 -20 -20 -20 -20 -20 -20 4 22 10 9 -11 3 -20 28 1 2 -20 -12 -20 -10 -20 -20 -20 -0 -4 -10 -11 -20 -20 -20 -20 -20 11 -11 -5 -20 -20 -20 -20 -20 -20 -20 -20 -20 -20 -20
-20 -20 -20 -20 -20 -20 -20 -15 -20 -20 14 27 -4 21 -6 23 8 -18 -20 5 -12 -20 -17 -20 -18 10 -20 -20 -20 -20 -20 -20 -20 -3 -11 -7 -20 -20 -20 -20 -20 -20 -20 -20 -20 -20 -20
-20 -20 -20 -20 -20 13 15 13 7 -20 5 26 20 20 17 19 8 -13 -20 8 -12 -20 -20 -20 -20 -20 -19 -20 -20 -20 -20 -20 -20 -20 20 -17 -18 -20 -20 -20 -20 -20 -20 -20 -20 -20 -20
-20 -20 -20 -20 -20 -20 12 16 16 -5 6 -1 30 3 18 23 9 8 -19 -20 1 11 -19 -20 5 -20 -20 -20 -20 -20 -20 -20 -20 -20 -20 -20 -17 2 2 -20 -20 -13 -14 -18 -20 -20 -20
-20 -20 -20 -20 -20 -1 3 17 11 16 -17 9 11 28 17 20 22 -14 4 -20 -15 -20 21 4 -20 -20 -20 -20 -20 -20 -20 -20 -20 -20 -20 -20 -20 -20 -20 -19 -20 -19 -20 -20 -20 -20 -20
-20 -20 -20 -20 -20 12 8 16 12 15 2 3 9 25 27 19 26 23 11 -20 15 -20 -20 15 -20 -20 -20 -20 -20 -20 -20 -20 -20 -20 -20 -20 -20 -20 -20 -7 -20 -20 -15 -17 -20 -20 -20
-20 -20 6 -20 -20 -20 6 12 17 -2 14 -14 -3 -15 8 4 23 20 -0 12 -5 -20 4 -20 -20 -20 -20 -20 -20 -20 -20 -20 -20 -20 -20 -20 -11 -20 -20 -20 -20 -20 -20 -20 -20 -20 -20
-20 3 -19 19 -9 -13 -7 5 20 9 20 16 11 -5 23 16 26 21 -18 -20 -20 -20 -20 -20 -20 -20 -20 -20 -20 -20 -20 -20 -20 -20 -20 -20 -20 -20 -20 -20 -14 -20 -20 -20 -20 -20 -20
10 -20 -4 15 -20 -3 7 18 18 24 11 19 6 -1 25 35 37 29 19 -12 -20 -20 -20 -20 -20 -20 -20 -20 -20 -20 -20 -20 -20 -20 -20 -20 -20 -20 -20 -20 -20 -20 -20 -20 -20 -20 -20
-20 -1 7 -16 -20 -17 14 10 22 14 19 11 3 11 17 31 42 27 4 24 -20 -20 -20 -20 -19 -20 -19 -7 6 -20 -20 -20 -20 -20 -20 -20 -20 -20 -20 -20 -20 -20 -20 -20 -20 -6 -10
-20 -15 -6 -20 -18 -20 -14 20 15 8 1 -18 4 -20 13 27 37 32 -10 25 -20 -20 -20 -20 -7 -20 7 -16 -8 -20 -20 -19 5 -20 -20 -20 -20 -20 -20 -20 -20 -20 -20 -20 -19 1 -12
-19 5 16 -20 -20 11 -13 19 -20 27 33 23 -18 -4 18 25 40 34 11 -20 -20 -20 -20 -20 -9 9 16 6 -0 -20 -3 9 -19 8 -3 -20 -20 -17 -20 -20 -20 -20 -20 -20 1 11 4
16 4 14 18 -10 17 4 7 20 28 34 21 9 21 11 12 41 40 26 8 -19 -20 -20 -8 -5 -4 9 -8 -2 -1 2 -7 -1 -7 -7 4 -8 -9 -10 -20 -19 12 27 8 12 11 -14
8 15 15 16 -15 7 -7 -0 4 23 34 16 26 24 37 31 35 34 17 -1 -20 -20 -20 -20 -15 6 -16 -20 -20 -17 11 1 9 9 8 3 -20 -18 -20 -18 -20 -20 -4 10 -12 -17 -20
-15 16 17 16 18 11 -20 6 -17 23 28 7 22 13 36 31 40 43 -6 -1 -20 -20 -20 -20 -19 -20 -7 -20 -12 -12 8 -4 -20 -9 -15 -20 -20 -20 -20 -20 -20 8 5 -11 8 -5 14
15 18 17 16 19 2 -20 -20 13 20 28 25 22 13 19 36 40 32 -13 -20 -20 -20 -20 -20 -20 -20 -20 -20 1 3 -20 -20 -20 -20 -20 -20 -3 -20 -20 -20 -20 -2 4 18 16 15 -7
3 19 17 16 18 -20 -20 -3 11 18 26 28 25 18 15 13 39 35 10 -20 -20 -20 -20 -20 -20 -20 -20 -20 -20 -20 -20 -20 -20 -20 -20 -20 -20 -20 -19 -20 -20 -11 8 5 -13 16 4
14 19 19 17 20 -20 -7 4 16 13 21 30 27 17 6 33 40 32 -15 -20 -20 -20 -20 -20 -20 -20 -20 -20 -20 -20 -20 -20 -20 -20 -20 -20 13 -20 -20 -11 -0 6 -20 -4 -5 -20 -20
16 18 18 17 -20 -20 -20 6 -8 12 23 27 18 7 35 35 27 30 -16 -20 -20 -20 -20 -20 -20 -20 -18 -5 -20 -20 -20 -20 -20 -20 -20 -20 -3 -1 -16 -1 9 29 24 27 19 11 -20
15 17 8 18 -1 10 -20 -14 9 13 21 29 24 -2 37 39 29 -2 -17 -11 -20 -20 -20 -20 5 -3 -13 2 -18 -20 -20 -20 -20 -20 -20 -20 4 15 17 21 30 21 17 33 21 17 -17
7 9 18 18 24 -11 -12 -20 1 15 9 19 5 12 31 21 24 -13 0 -20 -16 -15 -20 -20 3 -20 8 4 -18 -20 -20 -20 -20 -20 -13 18 -3 13 23 30 34 30 20 18 13 -5 -20
-19 9 15 18 21 -20 -9 -20 5 31 28 24 28 34 19 -20 5 -13 -20 -20 -20 -20 -20 -19 6 -20 6 20 -16 -20 -20 -20 -20 -20 -18 6 1 14 11 30 32 17 22 -3 -13 -20 -20
-9 -3 -0 -8 -11 -15 -20 -20 3 30 29 24 17 34 13 11 0 14 -10 -20 -18 -20 -20 -19 -20 15 15 3 9 3 -17 -19 -20 -16 4 20 12 17 1 34 34 21 7 -5 2 2 -7
17 -5 -19 -3 -4 -2 -1 -20 -12 20 27 33 37 25 14 20 14 -13 -12 14 -20 -20 -13 -11 -10 19 15 20 20 -0 -2 -1 -19 1 -4 -1 27 29 13 35 22 4 11 -14 -20 5 8
15 -3 21 -20 -16 8 -20 -16 -17 15 17 24 13 21 23 8 6 -0 10 14 -20 -0 -4 -13 -20 -20 7 13 15 -13 -8 -20 -20 -18 -20 -20 -1 29 22 20 -3 -16 27 2 11 4 -20
9 -20 20 -19 13 -2 -20 -20 -18 7 8 6 18 25 35 22 -20 -20 -17 2 -20 -10 26 22 -3 -20 -18 25 23 4 -20 -20 -20 -20 -20 -20 -20 4 25 -3 4 -1 -11 1 5 19 8
-6 5 12 -10 7 8 -1 -20 -20 11 8 6 14 13 21 4 0 -20 -20 -20 -20 -14 18 26 -6 -20 12 25 30 7 -13 -20 -20 -20 -20 -2 3 6 2 -16 -20 -20 -20 -20 -17 -20 -20
4 0 -14 10 4 9 10 6 -20 8 10 12 6 20 21 14 -20 -20 -20 -20 -20 6 19 13 -13 -1 21 23 20 15 -19 -20 -20 -20 -20 -20 -19 -20 -20 -20 -20 -20 -20 -20 -20 -20 -20
5 2 4 10 1 4 4 6 -20 8 13 14 6 -3 12 15 -20 -15 -20 -20 -19 -0 28 18 -20 -3 15 19 25 -2 0 -20 -20 -20 -20 -20 -20 -20 -20 -20 -20 -20 -20 -20 -20 -20 -20

GFSGBSN_prec_radar_021.txt.gz
Reflectivity
-20 -20 -20 -20 -20 -20 -20 10 15 12 -0 25 23 5 18 1 24 -19 -20 -20 -20 -20 -20 -20 -20 -20 -20 -1 -11 -20 -20 -20 -20 13 15 -20 -20 -20 -20 -20 -20 -20 -20 -20 -20 -20 -20
-20 -20 -20 -20 -20 -20 -20 -20 11 14 15 2 10 5 8 19 6 19 1 -20 -20 -20 -20 -20 -20 -15 -20 -20 -20 -20 -20 -20 -20 5 15 -0 -3 -20 -20 -20 -20 -20 -20 -20 -20 -20 -20
-19 -20 -20 -20 -20 -20 -4 11 16 16 16 19 -18 7 23 6 -14 22 -20 -20 -20 -20 -20 -20 -20 -20 -19 -20 -20 -20 -20 -20 -20 3 9 -1 -0 -18 -20 -20 -20 -20 -20 -20 -20 -20 -20
-19 -20 -20 -20 -20 -20 -20 -18 12 7 15 18 14 10 17 28 19 21 22 -19 -20 1 -12 -20 -20 -20 -20 -20 -20 -20 -20 -20 -20 -13 -20 -8 -13 9 -20 -20 -20 -7 -20 -20 -20 -20 -20
-20 -20 -20 -20 -20 -20 -20 -20 -17 -9 17 -6 10 -15 7 29 14 22 19 -2 -20 -20 13 14 -18 -20 -20 -20 -20 -20 -20 -20 -20 -20 -20 -20 -20 -20 -20 -20 -20 -20 -20 -20 -20 -20 -20
-8 7 12 -3 -20 -15 -20 -20 -20 -17 15 6 1 -20 -5 18 32 25 22 22 22 -14 14 20 -16 -20 -20 -20 -20 -20 -20 -20 -20 -20 -20 -20 -20 -20 -4 -20 -20 -20 -20 -20 -20 -20 -20
14 -16 -19 13 -20 20 -20 -20 -2 9 8 17 8 16 -10 -11 32 26 33 21 11 -0 -20 -20 -20 -20 -20 -20 -20 -20 -20 -20 -20 -20 -20 -20 -7 -0 -20 -20 -20 -20 -20 -20 -20 -20 -20
-14 -11 -20 10 13 -20 -17 -20 14 -13 19 19 5 -11 -18 -19 20 35 38 -1 -20 -20 -20 -20 -20 -20 -20 -20 -20 -20 -20 -20 -20 -20 -20 -20 -13 -20 -20 -20 -20 -11 -14 -16 -20 -20 -20
-6 4 12 12 -20 -0 -20 -20 9 -12 24 10 6 3 14 -20 21 33 37 30 -20 -20 -20 -20 -20 -17 -20 -20 -20 -20 -20 -20 -20 -20 -20 -20 -20 -20 -20 -20 -20 -20 -20 -20 -20 -20 -20
12 15 -3 -20 7 -4 -1 -15 -10 -9 7 5 11 -3 13 -9 1 19 39 39 -20 -20 -20 -20 -20 -20 1 4 -20 -20 -20 -20 -20 -20 -20 -20 -20 -20 -20 -20 -20 -20 -20 -20 -20 -9 -20
13 -20 12 -20 9 12 -3 11 -10 0 -8 14 33 23 15 12 -18 27 32 37 -6 -20 -20 -20 -13 -12 -3 -8 -20 -20 -20 -16 -19 -20 -20 -20 -20 -20 -20 -20 -20 -20 -20 -20 -20 -19 0
15 8 15 10 13 9 16 -20 -20 -20 16 40 24 18 2 17 4 32 32 43 -8 -8 -20 -9 -3 10 6 8 -3 -20 -6 10 -20 -0 -9 -20 -20 -20 -20 -20 -20 -20 -20 -20 -5 -12 8
14 13 17 9 14 13 16 14 -20 -15 21 35 19 27 27 -18 13 37 39 42 12 -20 -20 4 -8 1 -7 -2 -1 -17 12 -0 -7 -4 1 -9 -15 -20 -20 -20 -20 -19 8 8 8 14 -19
14 18 22 16 16 15 -4 -11 -20 -5 20 30 -15 -13 26 -20 15 26 38 34 2 -20 -20 -20 -20 4 1 4 -11 8 -1 9 15 -9 -16 -20 -20 0 -18 -20 -19 -20 -20 -19 -20 -20 -20
3 21 12 17 18 16 10 -19 -20 -19 19 29 14 16 -15 -19 24 32 40 22 1 -20 -20 -20 -10 -20 2 6 -20 -14 5 -4 -20 8 -10 -20 -20 -20 -20 -20 -20 12 -1 -20 -6 -20 7
-11 11 16 19 17 17 -13 -1 -20 4 20 27 18 18 -12 16 21 37 34 13 -12 -20 -20 -20 -20 -20 -20 -20 -20 -12 -12 -20 -20 -12 -20 -20 -20 -20 -20 -15 -20 -9 1 4 12 -1 8
14 16 15 17 -8 18 14 -20 -7 -5 18 22 16 29 13 27 31 35 30 16 -20 -20 -20 -20 -20 -20 -20 -14 -20 -20 -20 -20 -20 -20 -20 -20 -16 -20 -19 7 -20 1 6 24 1 10 -11
12 15 15 16 18 -20 16 -20 -20 -5 19 26 29 27 16 15 36 37 29 13 -20 -20 -20 -20 -20 -20 -20 -20 -20 -20 -20 -20 -20 -20 -20 -20 -12 -20 -20 -20 -18 -11 -13 16 20 -1 5
6 4 16 1 -12 -20 10 -20 -20 1 21 17 30 28 7 4 22 35 11 -20 -20 -20 -20 -20 -20 -20 -20 -20 -20 -20 -20 -20 -20 -20 -20 -20 -16 -20 -20 -20 -9 12 2 20 30 25 24
-2 15 16 -7 -18 15 14 -20 -20 -7 17 24 33 30 36 25 11 13 -18 -20 -20 -20 -20 -20 -20 -20 -20 -8 -20 -20 -20 -20 -20 -20 -20 -20 -15 -20 -20 -4 25 25 19 26 25 23 -4
13 14 16 9 -20 12 -5 -20 -20 4 22 22 26 10 28 16 16 -7 7 5 -20 -20 -20 -20 -20 -20 -17 0 7 -18 -20 -20 -20 -20 -20 -20 -7 -17 -10 3 14 28 29 31 19 -4 11
11 5 16 18 -20 4 -8 -18 -20 9 31 33 20 33 22 -14 -12 -5 -20 -20 -20 -20 -20 -20 -20 -20 -20 9 -7 -20 -20 -20 -20 -20 -20 -3 -10 2 14 4 27 22 16 24 25 -2 -14
10 -4 -5 19 -20 -9 -2 -20 -13 -6 26 23 11 8 16 6 -20 -20 -20 -20 -20 -18 -20 -20 -20 -20 -1 10 1 -6 -10 -20 -20 -15 -19 5 13 4 -6 -2 28 5 23 21 -9 -11 -20
-5 3 -20 13 -20 10 12 -20 3 -19 24 18 18 30 24 8 -20 -7 -20 -20 -20 -20 -11 -17 -10 -5 -12 -11 -2 -17 -20 -6 -20 -20 -20 -8 -10 9 -0 7 18 26 13 -9 3 -13 -20
1 -20 8 -5 -20 -0 -5 -16 2 -20 15 10 24 23 21 4 -12 5 -20 -20 4 -16 13 -0 -13 -17 -15 12 7 -6 -20 -20 -20 -20 -20 -20 -7 24 21 17 19 25 24 16 26 12 -20
6 2 -8 -0 -20 -16 -8 -20 -3 -20 2 -5 33 34 29 0 -17 -19 -15 -1 -19 -19 13 -8 -17 -20 -12 -16 15 19 -20 -20 -20 -20 -20 -20 -20 16 12 7 19 -12 11 1 -14 -20 7
1 9 -1 4 -20 -1 4 -20 -20 -20 -4 8 19 29 23 26 -20 -20 -20 -7 -20 -20 -8 26 21 11 -0 -5 13 17 -14 -20 -20 -20 -20 -20 -6 -18 -9 6 -20 -20 0 -3 4 -20 -9
-11 5 8 -3 -20 -6 -9 -6 -20 -20 -14 11 20 18 24 22 -19 -20 -20 -20 -20 -20 -2 15 21 -12 6 7 19 -3 -13 -20 -20 -20 -20 -20 -20 -15 -20 -19 -20 -20 -20 -20 -18 -19 -17
-20 -5 -20 -1 12 -20 12 -18 -20 -17 -15 13 11 17 6 17 -18 -20 -20 -20 -20 -20 22 18 22 13 -20 17 9 13 -20 -20 -20 -20 -20 -20 -20 -20 -20 -20 -20 -20 -20 -20 -20 -20 -20

GFSGBSN_prec_radar_024.txt.gz
Reflectivity
-20 -20 -20 -20 -20 -20 -20 -20 5 -20 13 0 7 -20 7 17 3 6 25 -20 -20 -20 -20 -20 -20 -20 -20 9 -6 -20 -20 -20 -20 22 16 -20 -20 -20 -20 -20 -20 -20 -20 -20 -20 -20 -20
-20 -20 -20 -20 -20 -17 -20 -20 -20 -20 -6 14 8 3 -11 3 4 1 25 12 -20 -20 -20 -20 -20 -20 -20 -19 -20 -20 -20 -20 -20 -2 18 -20 -20 -20 -20 -20 -20 -20 -20 -20 -20 -20 -20
-20 -20 -20 -20 -20 -2 -20 -20 -20 -20 -20 -20 6 8 -17 -19 10 11 15 24 -20 -20 -20 -20 -20 -20 -20 -20 -20 -20 -20 -20 -20 18 9 -2 -20 -9 -10 -20 -20 -20 -20 -20 -20 -20 -20
-16 -12 7 7 11 -20 -20 -20 -20 -20 -20 -17 8 11 -16 -20 12 25 23 25 -1 -13 -20 -20 -20 -20 -20 -20 -20 -20 -20 -20 -20 -20 4 -11 -20 -1 -20 -20 -20 -20 -20 -20 -20 -20 -20
12 13 4 -14 -4 5 -18 -20 -20 -20 -20 -6 4 15 7 -6 9 15 31 26 24 -3 -20 3 -20 -20 -20 -20 -20 -20 -20 -20 -20 -20 -20 -2 13 -15 -16 -20 -20 -20 -20 -20 -20 -20 -20
15 2 2 10 19 -10 12 8 10 -1 -16 -11 -14 18 17 -7 -20 23 30 37 28 3 24 -9 -20 -20 -20 -20 -20 -20 -20 -20 -13 -20 -20 -20 -20 -20 -20 -20 -20 -20 -20 -20 -20 -20 -20
15 12 10 17 13 -20 -20 17 -18 1 -1 -15 20 8 10 -18 -11 7 34 39 31 19 20 18 -20 -20 -20 -20 -20 -20 -20 -20 -20 -20 4 -8 -6 -20 -20 -20 -20 -20 -20 -20 -20 -20 -20
10 12 11 -20 14 10 -10 -13 17 13 -20 -11 23 4 4 8 11 -15 30 43 21 -19 -5 -13 -9 -20 -20 -20 -20 -20 -20 -20 -20 -4 4 -14 -3 -20 -20 -20 -20 -20 -20 -17 -20 -20 -20
14 14 15 15 2 9 17 16 -20 -6 14 16 1 -2 6 -12 14 11 27 35 27 5 -20 -20 -20 -20 -20 -20 -20 -20 -20 -20 -20 -20 -20 -20 -20 -20 -20 -20 -12 -20 -20 -17 -20 -20 -20
-16 16 17 6 14 19 19 16 16 19 -19 5 13 21 36 2 16 -16 28 31 33 28 8 -20 -20 -20 -11 -20 -20 -20 -20 -20 -20 -20 -16 -18 -20 -20 -20 -20 -20 -20 -20 -20 -20 -16 -20
-6 -0 9 13 20 20 4 16 16 9 -20 -7 13 27 13 27 2 20 14 31 35 36 11 -20 -11 -19 -3 -20 -20 -13 -20 -20 -10 -20 -20 -20 -20 -20 -20 -20 -20 -18 -20 -20 -20 -19 -6
-7 10 2 18 18 -13 2 15 17 -13 -20 -7 21 19 5 21 19 -15 13 38 36 28 -15 8 6 14 9 8 -15 5 -1 5 -15 -5 -12 -20 -20 -20 -20 -20 -20 -20 -11 -11 -4 8 11
9 1 -20 14 19 15 14 17 22 -20 -20 -16 5 -1 24 24 -20 -6 35 36 33 13 -20 8 -9 15 2 -3 13 4 9 1 3 9 11 -5 -10 -20 -20 -13 -20 3 8 1 4 11 -20
2 10 16 17 0 16 16 -16 -20 -20 -19 11 22 -19 10 -20 -18 9 38 33 20 -7 -9 -20 2 11 9 -16 6 -19 10 11 8 5 1 -20 -20 -1 -18 -18 -3 3 4 -4 -20 -20 -20
14 16 18 17 12 11 20 -19 -16 -1 -12 -7 5 14 -12 12 14 25 29 26 11 -20 -20 -19 -14 4 6 -17 -20 -9 0 -19 -19 -20 -20 -6 -20 -20 -20 -20 -20 4 -3 -19 7 1 9
11 -8 17 15 15 17 5 1 -1 -20 6 18 16 20 21 13 27 30 20 30 -17 -19 -20 -20 -20 -20 -20 -13 -16 -17 -20 -20 -20 -20 -20 -20 -9 -20 -20 -9 -20 2 -20 -6 10 2 4
8 12 16 12 15 -7 14 -1 -20 -17 9 23 30 31 -14 16 16 36 26 34 -16 -8 -20 -20 -20 -20 -20 -20 -20 -20 -20 -20 -20 -20 1 -16 -20 -20 1 1 -20 -2 11 16 8 15 -4
9 14 17 4 18 -16 15 -8 -20 -20 9 8 21 30 28 26 12 23 9 11 7 -20 -20 -20 -20 -20 -20 -20 -20 -20 -20 -20 -20 -20 -19 -20 -7 -8 -19 -20 -20 -20 -20 1 19 15 20
14 14 2 -8 -12 1 10 -20 -20 -12 11 20 16 28 23 34 31 34 26 7 -5 -19 -20 -20 -20 -20 -20 -20 -20 -20 -20 -20 -20 -20 -20 -13 8 -20 -20 -18 -18 -18 -20 11 20 30 15
9 17 -5 -11 -1 4 10 -20 -13 4 23 9 18 33 21 14 -6 -18 2 10 22 -20 -20 -20 -20 -20 -20 -20 -20 -20 -20 -20 -20 -20 -20 -20 -9 -20 -20 -20 7 17 -20 14 25 20 -1
0 10 6 -10 15 -20 12 -20 -20 1 27 7 23 15 17 21 10 1 -20 15 -18 -20 -20 -20 -20 -20 -20 -20 -20 -20 -20 -20 -20 -20 -20 -20 -8 -20 -20 -20 -20 -18 -20 -10 25 16 18
12 15 -2 -1 14 -20 -5 -20 -19 -20 -18 -17 4 27 13 -10 -20 -20 8 -20 -20 -20 -20 -20 -20 -20 -20 -19 -20 -20 -20 -20 -20 -20 -20 7 -8 6 -12 -20 -18 11 10 26 20 5 11
-1 -16 -20 -1 -3 -20 -15 -16 -20 -20 14 5 2 15 7 -19 1 -14 -20 -20 -20 -20 -20 -20 -20 -20 -20 -20 5 -6 4 -3 -20 -20 -20 3 -7 7 -13 -6 -20 8 29 24 -16 -7 -17
7 5 -4 -20 -7 -19 -9 1 -20 -20 1 8 12 13 -5 5 -3 -20 -20 -20 -20 -20 -20 -20 -20 -15 8 -16 -15 2 -20 -3 -20 -13 -5 -15 9 8 13 -11 12 26 26 22 18 -20 -20
5 -20 10 8 18 -18 -20 -19 -5 -20 8 -3 10 21 13 4 -4 -20 -20 -20 -20 -20 -13 -20 1 -3 13 5 3 -16 -20 3 -16 -20 8 -10 12 18 11 10 2 8 -1 17 15 -13 -20
-20 -20 -9 2 2 -4 -1 -16 -2 -20 4 -15 24 17 16 6 -20 -20 -20 -20 -20 -20 -20 -20 -20 -19 -6 11 13 14 -16 -20 -20 -20 -20 -20 -18 2 11 16 -7 9 17 -20 -20 -9 -18
-20 -20 -20 -20 5 -13 -20 7 -20 -20 4 -10 14 16 17 8 -20 -20 -20 -20 -18 -20 -2 -4 11 2 9 10 2 17 3 -20 -20 -20 -20 -18 -7 -6 3 3 -20 -20 -20 -13 -20 -20 -20
-20 -20 -20 -20 -14 6 0 -19 -20 -20 -5 -4 -4 8 12 19 -11 -20 -20 -20 -20 -14 -9 -11 15 -2 15 13 8 5 9 -20 -20 -20 -20 -20 -20 -13 4 -1 -20 -20 -20 -19 -17 -5 -20
-20 -20 -20 -20 -20 -20 -20 -20 -20 -20 -13 -4 3 4 16 19 -2 -20 -20 -20 -20 -20 3 2 -14 -10 -20 2 1 13 8 -20 -20 -20 -20 -20 -20 -20 -20 -20 -20 -20 -20 -20 -20 -20 -20

GFSGBSN_prec_radar_027.txt.gz
Reflectivity
-20 -20 -20 -20 -20 -20 -20 -20 -20 -20 -20 -20 -20 -4 4 -20 -20 10 7 21 19 -13 -20 -20 -20 -20 -20 6 2 -20 -20 -20 -20 -6 -20 -20 -20 -20 -20 -20 -20 -20 -20 -20 -20 -20 -20
-20 -20 -20 -20 -20 -20 -20 -20 -20 -20 -20 -20 -20 -6 4 4 -20 15 14 11 25 -15 -20 -20 -20 -20 -4 -12 -20 -20 -20 -20 -20 9 12 -20 -20 -20 -20 -20 -20 -20 -20 -20 -20 -20 -20
6 -20 -20 10 -20 -20 -20 -20 -20 -20 -20 -20 -20 -9 4 11 -3 -14 19 -8 25 19 -20 -20 -20 -20 -6 -20 -20 -20 -20 -20 -20 -2 26 -6 -20 -20 -18 -20 -20 -20 -20 -20 -20 -20 -20
11 5 3 -20 -15 11 -3 -20 -20 4 -20 -20 -20 -11 -4 6 -2 -4 4 -19 20 31 12 -9 -20 -18 -20 -20 -20 -20 -20 -20 -20 -3 -1 11 -20 6 -20 -20 -20 -20 -20 -20 -20 -20 -20
-7 3 -12 -16 14 13 10 9 15 -15 -20 -20 -17 -20 -13 -6 10 -20 1 12 8 33 20 -10 -20 -20 -20 -20 -20 -20 -20 -18 -20 -20 19 22 -2 11 -19 -20 -10 -20 -20 -20 -20 -20 -20
10 3 5 12 14 18 11 12 -0 -5 14 12 -20 6 23 14 -4 -10 -10 11 20 40 22 -3 4 -20 -20 -20 -20 -20 -20 -20 -20 -20 2 -9 -20 -20 3 -16 -9 -20 -20 -20 -20 -20 -20
11 12 -3 9 -20 18 19 19 20 -12 11 19 21 -20 18 -20 -20 8 11 10 31 38 35 14 -19 -20 -20 -20 -20 -20 -20 -20 -20 4 -20 -17 -1 -2 -20 -20 -20 -20 -20 -20 -20 -20 -20
-8 -20 -6 13 15 18 19 -5 -10 -1 -7 20 13 10 1 -13 -2 4 9 21 39 33 32 4 -20 -12 -20 -20 -20 -20 -20 -13 -18 -2 -20 -1 -14 -20 -20 -20 -20 -20 -20 -20 -20 -20 -20
-20 4 5 -1 -19 16 -10 18 19 19 20 17 -19 13 10 14 9 15 3 25 38 34 37 10 -14 -8 -20 -20 -20 -20 -20 -20 -5 -20 -3 -1 -20 -20 -20 -20 -20 -20 -20 -20 -20 -20 -20
-1 12 6 11 6 -5 18 18 17 19 19 14 -20 19 22 25 17 -12 1 24 38 41 19 5 6 -5 -18 -20 -20 -20 -20 -19 -20 -20 -20 -10 -20 -20 -20 -20 -20 -20 -20 -20 -20 -20 -20
4 -13 16 15 14 17 18 14 14 20 16 -0 -20 14 14 28 17 25 10 17 25 36 21 -13 1 -13 -20 -20 -20 -8 -20 -16 -14 -3 -20 -20 -20 -20 -20 -20 -20 -20 -20 -20 -20 -20 -6
-20 17 16 16 14 15 16 18 18 8 -20 7 -12 -20 9 7 20 25 29 17 40 31 23 8 9 -5 8 -20 -15 2 -11 -18 -20 -20 -14 -20 -20 -20 -20 -20 -20 -20 -15 -20 -14 -8 -7
10 16 13 6 14 16 17 8 -19 11 -0 -1 -13 0 5 18 12 6 22 21 28 24 3 12 -5 4 -16 -17 -3 6 3 1 -11 2 4 -20 -20 -20 -20 -20 -20 -8 2 -12 4 6 -20
-2 14 -7 15 14 15 15 8 17 7 -18 -15 7 -20 12 20 24 -8 33 35 17 19 -17 -20 5 11 11 -1 7 -13 4 8 -4 -20 -20 -19 -12 -20 -20 -20 -18 -4 1 -19 -20 -20 -20
7 11 4 16 15 15 13 13 -20 -20 -7 -15 -17 12 27 26 19 4 37 19 33 -20 -20 -1 13 13 1 -20 -7 7 2 0 -9 -15 -20 -20 -20 -20 -20 -3 -20 -3 2 -20 -14 -20 -20
0 14 17 15 7 9 -20 6 -20 -20 -1 13 17 31 18 25 -9 -3 27 37 -2 -20 -0 -8 -5 -16 -1 0 3 -11 -4 -20 -20 -20 -20 -6 -12 -20 -20 -10 -20 -20 -20 -10 -8 -0 -17
8 15 19 -15 13 -16 9 5 -20 -6 15 -8 27 20 22 24 17 8 30 25 1 1 -17 0 -20 -20 -20 -0 -20 -20 -20 -20 -20 -20 -20 -20 -20 -20 -14 -20 -20 -8 -1 -2 -13 14 -5
8 7 15 1 -20 -20 2 -15 -18 11 17 0 12 34 21 18 25 31 24 20 -2 -11 -20 -20 -13 -20 -20 -18 -20 -20 -20 -20 -20 -20 -20 -20 -15 -7 -20 -20 -20 -20 -20 -14 10 -20 8
10 -20 12 6 -20 -20 8 -20 -18 -6 17 3 5 34 32 9 14 20 30 15 4 2 -20 -20 -20 -20 -20 -20 -18 -20 -20 -20 -20 -20 -20 -20 2 -18 -20 -18 -20 -20 -20 -8 14 19 12
7 -8 12 15 10 -20 -16 -15 -12 -20 -14 -20 3 1 23 -19 19 -8 8 16 12 -20 -20 -20 -20 -20 -20 -20 -20 -20 -20 -20 -20 -20 -20 -20 -9 -20 -20 -20 -20 -10 -13 3 26 19 -9
4 -15 4 8 10 -20 -20 0 -2 -20 -20 -20 2 -0 -13 2 -4 9 8 10 7 -20 -20 -20 -20 -20 -20 -20 -20 -20 -20 -20 -20 -20 -20 -19 1 -15 -20 -20 -20 -20 -20 -17 8 24 20
5 3 5 8 10 -20 4 -4 -3 -20 -20 -17 -2 3 -0 -19 -20 -10 -20 -3 -1 -20 -20 -20 -20 -20 -20 -3 -12 -13 -6 -5 -11 -20 -20 -2 7 11 -1 -20 -20 2 -4 23 17 15 13
1 -20 9 4 10 -20 8 2 -3 -20 -16 -13 -2 -10 1 -13 -16 -18 -20 -20 -20 -20 -20 -20 -20 -20 -15 -3 -20 -20 -20 -20 -20 -18 -20 0 -6 -9 -14 -20 -20 -10 7 25 22 19 8
-20 -20 -20 -5 -9 -5 3 6 -2 -20 10 11 8 6 -9 -4 -6 -16 -20 -20 -20 -20 -6 -20 -20 -11 11 -20 -20 -20 -20 -20 -20 -16 -7 6 11 -9 6 -20 -14 -6 -15 -13 -1 -12 -20
-20 -20 -20 -20 -20 -20 -20 8 -18 -20 -18 4 2 4 3 -2 -20 -11 -20 -20 -20 -20 -20 -20 -3 -20 -20 -20 -7 -5 -7 4 -17 -11 13 7 1 17 10 -0 -20 -10 -8 -20 -2 -16 -7
-20 -20 -20 -4 -20 -1 -7 9 -20 -20 -20 2 9 3 7 1 -19 -20 -20 -20 -13 -5 -3 -20 -19 -20 -20 -19 5 -0 -18 -18 1 -17 -20 -16 9 12 10 11 -0 -20 -19 -20 -20 -16 17
-18 -20 -20 -20 -20 -20 -20 -20 -20 -20 -20 1 9 -5 0 0 -8 1 -15 -1 -16 -9 -1 -13 -8 5 -10 10 11 9 -9 -20 -5 -6 -20 -12 13 17 2 11 -20 -20 -20 -20 -15 -20 10
3 -11 -20 -20 -20 -20 -20 -20 -20 -20 -20 -20 7 -4 -3 -0 -18 -20 -18 8 7 9 2 -11 -11 1 22 22 12 -18 -15 5 -20 -18 -20 -20 -18 -12 5 5 -17 -20 -20 -20 -20 -20 -20
3 2 -12 -20 -20 -20 -20 -20 -20 -4 -20 -20 -7 -20 -14 13 13 -18 -20 -20 -19 -17 13 -18 3 -3 10 9 -5 -16 7 4 -2 -2 -20 -20 -20 4 -17 -7 -20 -20 -20 -20 -20 -20 -20

GFSGBSN_prec_radar_030.txt.gz
Reflectivity
-20 -10 -20 8 9 -20 -20 -20 -20 -20 -12 -8 -17 -6 -20 -13 10 -14 -17 8 12 25 24 -20 -20 -20 -20 -4 -17 -20 -20 -16 -8 24 -20 -20 -20 -20 -20 -20 -20 -20 -20 -20 -20 -20 -20
-18 10 13 12 9 -3 0 12 2 -20 -20 -20 -20 3 -20 -19 13 10 -1 9 10 14 27 -20 -20 -20 -20 -20 -20 -20 -20 -20 -20 9 -20 -20 -20 -20 -20 -20 -20 -20 -20 -20 -20 -20 -20
10 1 -5 7 14 12 2 -19 5 13 -20 -20 12 -9 -11 7 -20 -2 5 8 19 10 31 27 -20 -20 -20 -20 -20 -20 -20 -20 -20 -18 22 3 -20 -20 -20 -20 -20 -20 -20 -20 -20 -20 -20
14 8 4 11 18 16 12 -8 13 14 -2 -16 -20 -20 6 -16 1 -2 7 -20 12 28 29 17 -16 -20 -3 -20 -20 -20 -20 -20 -20 -20 14 25 -20 -14 -20 -20 -20 -20 -20 -20 -20 -20 -20
-5 12 12 -5 6 9 13 18 17 5 -9 19 17 -5 -8 20 21 1 4 -20 3 24 15 31 18 -0 -20 -20 -20 -20 -20 -20 -20 15 14 18 21 12 7 -20 -11 -15 -20 -20 -20 -20 -20
14 -2 -14 13 1 1 18 14 15 18 20 19 -15 4 2 24 -9 25 14 -20 -17 27 16 31 21 -1 -20 -20 -20 -20 -20 -20 -20 -18 24 9 0 -20 -20 -20 -15 -20 -11 -20 -20 -20 -20
-19 -15 15 16 17 19 -20 19 19 19 8 -9 21 -20 -4 20 -18 18 -20 -20 -16 17 30 34 18 -20 -20 -20 -20 -20 -20 -20 -20 4 -20 25 21 21 -20 -20 -20 -20 -20 -20 -20 -20 -20
10 -4 7 13 13 16 18 18 17 16 18 17 -4 -5 2 22 20 19 9 -2 -17 16 35 29 15 -17 -20 -20 -20 -20 -20 -20 -18 6 4 -15 -5 -19 -20 -20 -12 -20 -20 -20 -20 -20 -20
7 6 11 15 15 16 14 15 15 15 8 0 15 -4 -12 18 24 14 -3 -20 -18 37 33 26 24 -3 -20 -20 -20 -20 -20 -20 -20 12 9 -20 -20 -20 -20 -20 -20 -20 -20 -20 -20 -20 -20
8 -5 17 13 11 10 -1 14 14 18 -16 15 4 -20 16 19 8 29 27 -20 10 35 28 34 29 -9 -20 -20 -20 -20 -20 -19 -20 8 -5 10 -20 -20 -20 -20 -20 -20 -20 -20 -20 -20 -20
12 15 14 13 -8 -7 13 11 17 17 -7 11 5 -20 8 22 -2 -1 26 11 23 40 24 33 17 -16 -20 -20 -20 -20 -20 -20 -20 -20 -14 -19 -20 -20 -20 -20 -20 -20 -20 -20 -20 -20 -20
13 13 4 13 -15 13 12 13 13 -20 12 -4 -19 -19 -5 8 9 1 13 9 30 25 21 35 27 -5 8 10 -8 -20 2 -12 -20 -20 -14 -16 -20 -20 -20 -20 -20 -20 -20 -20 -20 -16 -20
-6 5 13 14 -5 2 7 5 11 4 -20 -20 2 -13 -9 14 16 23 33 15 14 21 27 13 15 -4 -19 8 8 -11 -7 -20 -20 -20 -20 -20 -20 -20 -20 -20 -20 -20 -19 -20 -20 -11 -20
-12 10 15 3 2 13 -20 9 8 -20 -20 1 11 7 -20 15 23 -10 6 9 19 28 28 -19 5 4 -1 4 2 2 9 2 -11 -20 -20 -11 -20 -20 -20 -20 -20 -9 -20 -20 -20 -20 -20
13 12 11 13 -3 2 -20 14 -20 -20 10 15 12 2 29 25 20 -15 15 -7 16 4 4 1 13 2 3 6 -20 1 -2 -1 -20 -20 -20 -19 -19 -20 -20 -20 -20 -17 -20 -20 -20 -20 -20
18 12 11 13 -20 -13 -13 11 -20 2 21 20 3 -7 26 23 -20 -1 20 11 32 7 -11 1 -17 -5 -2 -6 -1 -2 5 -20 -20 -20 -20 -20 -14 -20 -1 -20 -20 -20 -20 -20 -4 -20 -20
11 15 -11 11 -10 -20 7 -1 -20 10 24 16 -20 12 17 12 6 5 22 33 28 0 -6 -1 -20 -13 -17 2 -5 -4 -20 -20 -20 -20 -20 -20 -20 -20 -20 -20 -20 -20 -14 -16 -13 -20 -20
10 11 -20 0 12 -20 1 5 -20 5 14 16 -10 22 -5 -17 -18 7 39 33 8 -7 -20 -20 -20 -20 -20 -20 -8 -20 -20 -20 -20 -20 -20 -20 -20 -19 -20 -20 -20 -20 -20 -20 -17 -20 -20
11 7 13 -20 8 -20 -8 -1 -20 -4 13 -3 -3 6 11 -17 -20 16 27 16 -3 -1 -20 -20 -15 -20 -20 -20 -20 -8 -20 -20 -20 -20 -20 -20 -9 -20 -20 -20 -20 -20 -20 -20 -19 -14 -17
10 -4 0 -20 12 -20 3 -16 -20 -20 3 -12 -5 -13 -20 -11 -11 25 7 26 11 -13 -20 -20 -20 -20 -20 -20 -20 -20 -20 -20 -20 -20 -20 -20 -20 -20 -20 -20 -20 -20 -20 -20 4 13 -20
8 -12 3 10 -20 -6 2 -20 -20 -20 -9 -20 -20 -3 -13 -3 -20 7 18 24 2 -20 -20 -20 -20 -20 -18 -20 -20 -20 -20 -20 -20 -20 -20 -19 -20 -20 -20 -20 -20 -20 -20 -18 18 1 17
6 -4 -20 -2 6 -20 -17 -2 -20 -20 -20 -20 -4 -18 -20 -20 -3 -20 1 29 4 -20 -20 -20 -20 -20 -20 -20 -20 -20 -20 -20 -20 -20 -20 -20 -20 -16 -20 -20 -20 -20 -20 -20 -6 3 25
5 -20 -20 -20 -20 -13 -20 -2 -20 -20 -20 4 -17 -9 -7 -20 -20 1 5 -12 0 -20 -20 -20 -20 -20 -19 -20 -20 -20 -20 -20 -20 -20 -20 0 -8 -20 -20 -20 -20 -18 -20 -20 -20 -20 1
4 -8 -20 -8 -8 8 7 4 -20 -20 7 1 8 2 -7 -8 -20 -9 -20 -20 -20 -6 -15 -20 -20 -12 -19 -20 -20 -20 -20 -20 -20 -20 -20 -20 -3 6 -20 -20 -19 -20 -20 -20 -20 -11 -10
-1 -0 -20 -15 -20 -20 -19 -18 -20 -20 -18 2 5 2 9 -19 -20 -20 -20 -20 -20 -18 -20 -20 -20 -20 -20 -20 -13 -6 -20 -11 -20 -20 -20 -18 2 8 -5 -20 -20 -20 -20 -16 -20 -18 11
11 2 -11 3 -20 -20 -20 -20 -20 -20 -20 -3 2 2 -2 5 -4 -20 -20 -20 -20 -20 -20 -0 -18 -20 -20 -18 -20 -19 -1 1 -14 -20 -4 9 16 18 -19 -19 -13 -20 -20 -20 -20 -19 -13
12 -0 -5 2 -20 -20 -20 -20 -20 -20 -20 -20 7 -8 -1 -3 -15 -20 -20 5 -20 -6 1 2 -9 -10 -20 -9 -20 -18 -10 -14 -20 -0 -6 3 6 9 6 1 -20 -20 -20 -20 -20 -20 -8
15 -17 14 3 4 4 -20 -20 1 -20 -20 -20 -20 -0 6 2 -20 -20 -20 7 -20 5 9 -12 -16 1 -9 8 -10 -1 -20 -20 -20 -11 -20 -20 -16 -18 -1 -11 -17 -20 -20 -20 -20 -20 -20
14 -15 7 6 9 4 4 -20 -20 -20 -12 -20 -17 -19 -5 7 13 -20 -20 -20 -20 -20 4 -20 -13 -20 -20 -14 -17 -18 -1 -20 -20 -20 -20 -19 -19 -20 -20 -20 -20 -20 -20 -20 -20 -20 -20

GFSGBSN_prec_radar_033.txt.gz
Reflectivity
13 15 -2 -17 7 14 -3 14 20 -1 18 -5 6 1 -12 -15 -2 -20 8 -1 8 13 16 26 17 4 -3 -6 -13 -20 -20 -20 16 13 -20 -20 -20 -20 -20 -20 -20 -20 -20 -20 -20 -20 -20
11 18 12 5 14 18 11 -11 -2 15 17 18 -13 1 12 -19 -20 -20 -20 -5 12 15 10 23 24 11 -4 -20 -20 -20 -20 -20 15 21 5 -3 -20 -20 -20 -20 -20 -20 -20 -20 -20 -20 -20
13 12 14 9 2 14 -5 8 14 9 15 20 -13 2 -19 -3 -20 -20 1 1 -19 -3 8 -14 26 11 -20 -20 -20 -20 -20 -20 -20 15 -18 -20 -1 -20 -20 -20 -20 -20 -20 -20 -20 -20 -20
14 16 -17 2 -20 -14 10 8 1 6 7 20 20 22 -20 21 -4 -16 -20 21 0 -11 7 -13 35 7 -17 -19 -20 -15 -20 -20 -20 -20 -20 -1 -20 -20 -20 -20 -20 -20 -20 -20 -20 -20 -20
15 14 6 4 -1 0 14 -13 14 16 18 20 20 1 16 7 -12 -6 8 -20 -20 -20 7 3 34 19 -18 -20 -20 -20 -20 -20 -20 -16 -20 20 14 10 -20 -20 -19 -20 -20 -20 -20 -20 -20
-7 15 10 10 -6 15 18 16 15 15 2 15 -3 7 -9 -20 -20 -5 -5 -20 -20 -20 -0 39 32 16 -8 -20 -20 -20 -20 -20 -20 17 12 11 22 1 -3 16 -18 -19 -20 -20 -20 -20 -20
10 11 6 15 -1 -3 -20 -20 -19 14 17 16 18 -20 18 13 -12 16 -11 -20 -20 6 15 37 28 -11 -20 -20 -20 -20 -20 -20 -5 24 13 3 15 28 30 -20 -20 -20 -20 -20 -20 -20 -20
12 12 11 16 15 -4 -20 3 13 14 16 15 15 -20 8 16 23 25 30 26 -20 6 27 39 3 4 -20 -20 -20 -20 -20 -20 -11 -20 18 12 -19 -20 -20 -14 -20 -20 -20 -20 -20 -20 -20
13 15 -5 -0 6 -6 10 -7 4 15 16 14 -18 -11 3 21 4 10 32 18 11 -2 39 34 19 13 -20 -20 -20 -20 -0 -15 -20 -15 -12 -14 -11 17 23 -6 -17 -20 -20 -20 -20 -20 -20
12 -2 7 15 18 3 13 -2 3 14 -20 6 -20 5 14 17 -15 -17 -20 24 -11 11 23 35 21 29 -20 -6 -20 -20 -19 -20 -18 2 5 -20 -20 -20 -20 -20 -20 -20 -20 -20 -20 -20 -20
13 -4 11 8 -9 13 -8 5 12 13 4 8 7 -20 -20 18 11 3 7 -20 -4 7 4 31 32 6 -17 -20 -20 17 -12 -20 -20 -20 -20 -20 -20 -20 -20 -20 -20 -20 -20 -20 -20 -20 -20
9 2 10 7 18 3 2 -5 10 -1 -20 -15 -20 -20 -1 -4 6 20 28 -20 9 -2 13 34 30 10 14 -10 -8 -14 20 -20 -19 -20 -20 -20 -20 -20 -20 -20 -20 -20 -20 -20 -20 -20 -20
9 -8 12 -1 5 -20 -10 -20 15 -20 0 3 17 19 18 10 7 -15 19 -5 5 12 37 31 22 -4 -18 -3 -17 -1 13 -20 -20 -15 -18 -20 -20 -20 -20 -20 -20 -20 -20 -20 -20 -20 -20
-20 6 10 7 18 -13 -9 -19 -20 -17 10 14 -2 -17 -19 5 15 -20 -20 7 8 25 36 21 -3 6 3 -6 4 3 -18 -20 -20 -20 -20 -20 -20 -20 -20 -20 -20 -20 -20 -20 -20 -20 -20
-15 -20 -1 3 11 -2 -20 1 1 7 18 -8 -16 1 -6 23 -20 -18 16 14 19 27 26 18 -6 -18 7 7 -9 -0 -8 -20 -20 -20 -20 -20 -20 -20 -20 -20 -20 -20 -20 -20 -20 -20 -20
15 -11 -6 -15 10 -12 -20 -20 -19 6 -4 -19 -13 -11 -8 22 -20 2 19 20 28 28 -8 -19 3 -11 -20 -8 0 -6 2 -20 -20 -20 -20 -20 -20 -13 -20 -20 -20 -20 -20 -20 -20 -20 -20
-20 -20 -10 -20 -10 -20 -20 2 -9 11 7 -20 -20 -8 -12 5 16 21 13 25 26 33 8 -6 -20 -15 -16 3 -5 1 -20 -20 -20 -20 -20 -20 -20 -20 -20 -20 -20 -20 -20 -20 -20 -20 -20
-1 -20 -9 10 7 -4 -20 -3 -20 8 -13 -20 -20 -10 -1 -9 13 35 30 34 31 1 -20 -20 -20 -20 -20 -17 -9 -20 -20 -20 -20 -20 -20 -20 -20 -20 -20 -20 -20 -20 -20 -20 -20 -20 -20
2 -20 -20 -9 6 -5 -20 -20 -20 1 -9 -20 -20 -20 -20 -20 27 11 14 2 4 9 -20 -20 -20 -20 -20 -20 -20 -20 -20 -20 -20 -20 -20 -20 -20 -20 -20 -20 -20 -20 -20 -20 -20 -20 -20
2 -20 -20 -1 -20 -19 -20 -20 -20 -20 -20 -20 -20 -20 -20 -18 -17 11 7 -15 -6 -20 -20 -20 -20 -20 -20 -6 -20 -20 -20 -20 -20 -20 -20 -20 -20 -20 -20 -20 -20 -20 -20 -20 -20 0 -20
1 -20 -20 -20 -20 4 -20 -20 -20 -20 -20 -20 -20 -18 -20 -20 -20 -16 -8 -20 -17 -20 -20 -20 -10 -20 -20 -20 -20 -20 -20 -20 -20 -20 -20 -20 -20 -20 -20 -20 -20 -20 -20 -20 -20 -20 15
4 -20 -20 -20 -20 2 9 -20 -20 -20 -20 -20 -20 -7 -16 -20 -20 -20 -20 -20 -20 -20 -20 -20 -20 -20 -20 -20 -20 -20 -20 -20 -20 -20 -20 -20 -20 -20 -20 -20 -20 -20 -20 -20 -20 -20 -19
5 -20 -20 -20 -20 -20 -20 -12 -20 -20 -20 -12 -20 -20 -8 -20 -20 -20 -20 -20 -20 -20 -20 -20 -20 -18 -20 -20 -20 -20 -20 -20 -20 -20 -20 -20 -20 -20 -20 -20 -20 -14 -20 -20 -20 -20 0
1 -9 -10 -1 -20 -20 -20 -20 -20 -20 -20 -13 3 -5 5 -20 -20 -20 -20 -20 -20 -20 -20 -20 -20 -15 -19 -20 -20 -20 -20 -20 -20 -20 -20 -20 -20 1 -20 -20 -18 5 -20 -20 -20 -20 -4
-17 -20 -19 -20 1 -20 -20 -20 -20 -20 -20 0 -20 -19 10 -20 -20 -20 -20 -20 -20 -20 -20 -20 -20 -20 -20 -20 -20 -20 -20 4 -18 -20 -20 -20 -20 -20 -5 -14 -2 -18 -20 -20 -20 -20 -20
-20 11 -20 4 8 -1 -20 -20 -19 -20 -20 -17 3 -20 -19 -6 -20 -20 -12 -20 -20 -20 -20 -19 -19 -20 -20 -20 -20 -20 -19 -15 -12 -6 9 -20 -13 -13 -19 -20 -19 -20 -20 -20 -20 -20 -20
-14 13 -20 -20 11 7 8 -16 1 -19 -20 -20 -8 -8 -16 -20 -20 -20 -20 -20 -20 -17 -8 -6 -20 -7 -20 -20 -20 -20 -20 -20 -20 -16 -5 -2 21 8 -12 -4 -20 -20 -20 -20 -20 -20 -20
-20 11 -20 -20 10 -7 8 -1 10 -10 -20 -20 -20 -7 -10 -20 -20 -20 -20 -20 -20 -16 7 -20 -20 -20 -20 -20 -20 -20 -20 -20 -20 -19 -18 -20 -11 -11 -1 -10 -20 -20 -20 -20 -20 -20 -20
-20 12 -20 -20 -10 9 10 -20 -12 13 -20 -0 -20 -20 4 -10 -20 -20 -20 -20 -20 -20 -20 -20 -17 -20 3 -10 -10 -20 -20 -20 -20 -20 -20 -20 -20 -20 -20 -20 -20 -20 -20 -20 -20 -20 -20

GFSGBSN_prec_radar_036.txt.gz
Reflectivity
-19 -7 9 14 -20 4 0 13 11 15 9 1 17 24 22 -17 -20 8 -12 -20 -20 -14 -17 6 13 32 -19 -4 -15 -20 -20 -20 4 13 -20 -20 -20 -20 -20 -20 -20 -20 -20 -20 -20 -20 -20
15 7 13 -20 -13 -1 1 9 7 -17 -20 -1 18 6 -15 -20 20 -19 -20 -14 -14 -2 5 -7 -3 35 -13 -14 -5 -20 -20 12 -12 -2 -20 -20 -20 -20 -20 -20 -20 -20 -20 -20 -20 -20 -20
13 11 7 -19 16 13 16 2 6 12 5 -2 15 19 -17 -10 22 -10 -19 1 -14 -12 -20 -3 -13 35 -1 -12 -5 -20 19 23 9 -10 -20 -20 -20 -20 -20 -20 -20 -20 -20 -20 -20 -20 -20
9 -20 8 10 14 3 4 6 -1 -3 8 15 17 17 11 16 -9 20 22 24 -20 -20 -20 -19 8 40 20 6 -20 -17 -20 -20 -20 20 -20 -20 -1 -20 -20 -20 -20 -20 -20 -20 -20 -20 -20
-8 3 4 2 6 7 -8 -14 5 9 11 16 17 17 20 6 18 3 -20 -20 4 -20 -20 -20 -20 27 16 23 -20 -3 -18 -20 -20 -20 24 14 -8 -20 -20 -20 -20 -20 -20 -20 -20 -20 -20
8 7 0 11 7 -10 13 -20 -14 12 14 17 8 15 0 -18 6 21 -10 -20 -20 -20 -20 -1 6 35 19 -19 -19 2 -20 -20 -13 9 15 19 24 -10 -20 -15 -15 -20 -20 -20 -20 -20 -20
7 8 -13 12 0 15 -20 12 -20 6 6 -19 18 4 6 5 21 24 24 -14 -20 -20 -16 -20 11 24 -7 13 -18 10 -20 -20 10 22 14 19 24 23 4 -20 -20 -20 -20 -20 -20 -20 -20
9 -2 12 13 6 14 19 -1 8 9 13 15 11 -15 -8 5 18 15 13 24 11 -5 -20 7 -0 24 -19 -15 -20 -20 -7 -20 16 19 -20 7 -8 17 35 0 18 -9 -10 -20 -20 -20 -20
-2 -4 15 15 18 6 11 7 11 17 12 -11 -20 -2 -3 -0 -20 -20 -20 -20 5 -16 -12 4 11 21 -5 -20 -20 -20 -16 -11 -20 22 4 -11 -4 -8 -4 12 -13 -20 -20 -20 -20 -20 -20
8 -11 14 13 3 11 -18 -10 -16 17 -15 -20 -20 -19 -20 -3 -13 -18 -20 13 -20 -20 14 30 37 30 7 -20 -20 -20 -20 6 -20 0 11 29 2 -16 -8 -7 -20 -20 -20 -20 -20 -20 -20
-20 -1 11 11 -20 10 -1 -20 7 -20 -20 7 -20 -20 -3 26 3 5 -19 -2 -20 16 25 32 30 24 -17 -20 -20 16 0 -20 -20 -4 -20 -20 -20 -20 -20 -20 -20 -20 -20 -20 -20 -20 -20
-20 12 0 1 9 11 -10 -20 12 3 14 21 22 18 22 9 -18 -10 -9 -20 6 18 29 35 9 5 7 -20 -20 10 -20 -20 -18 -19 -20 -20 -20 -20 -20 -20 -20 -20 -20 -20 -20 -20 -20
-15 -1 5 11 7 15 -20 6 -9 8 16 21 -1 -20 -13 5 19 -13 15 -8 9 15 17 31 20 11 -20 0 -7 -3 -19 -14 -12 10 22 -17 -20 -20 -20 -20 -20 -20 -20 -20 -20 -20 -20
11 12 6 -17 5 13 -20 11 0 -12 13 -20 -20 -20 9 -20 -1 1 -20 -2 8 8 20 26 0 8 -10 2 14 11 -16 -14 -20 -20 -20 -20 -20 -20 -20 -20 -20 -20 -20 -20 -20 -20 -20
9 -20 -1 -16 -20 12 -18 5 -1 -14 14 -16 -20 -20 -18 8 -7 4 -1 -15 10 4 37 19 3 7 -17 3 20 1 1 -18 -20 -20 -20 -20 -20 -20 -20 -20 -20 -20 -20 -20 -20 -20 -20
12 -12 -20 4 -20 5 -20 3 -18 8 -8 -20 -20 -9 -6 7 10 -12 -6 15 11 27 8 -20 -5 -11 -20 1 -6 -1 -5 -16 -20 -20 -20 -20 -20 -20 -20 -20 -20 -20 -20 -20 -20 -20 -20
4 -19 -20 -16 -4 -20 -20 -1 -20 -4 -9 -20 -20 -20 -20 -17 -1 24 19 -0 9 17 0 -19 -20 -20 -20 -20 -17 2 -3 -20 -20 -20 -20 -20 -20 -20 -20 -20 -20 -20 -20 -20 -20 -20 -20
5 -20 -20 -20 -20 -20 -20 6 -20 -1 -5 -20 -20 -20 -20 19 19 22 23 26 14 -18 -20 -20 -20 -20 -20 -18 -20 -20 -20 -20 -20 -20 -20 -20 -20 -20 -20 -20 -20 -20 -20 -20 -20 -20 -20
5 -20 -20 -20 -20 -12 -4 -4 -20 -20 -4 -20 -20 -20 -20 -20 -20 -0 12 -11 3 -20 -20 -20 -20 -20 -20 -20 -20 -20 -20 -20 -20 -20 -20 -20 -20 -20 -20 -20 -20 -20 -20 -20 -20 -20 -20
9 -20 -20 -20 -20 -20 -13 -18 -20 -20 -20 -20 -20 -20 -20 -20 -20 -20 -20 -11 -8 -20 -20 -20 -20 -20 -20 -20 -20 -20 -20 -20 -20 -18 -20 -20 -20 -20 -20 -20 -20 -20 -20 -20 -20 -20 -20
9 -20 -20 -20 -20 -20 -20 -20 -20 -20 -20 -20 -20 -18 -16 -20 -20 -20 -20 -20 -20 -20 -20 -20 -20 -20 -8 -1 -20 -20 -20 -20 -20 -10 -20 -20 -20 -20 -20 -20 -20 -20 -20 -20 -20 -20 -20
-6 11 -13 -20 -20 -20 -20 -20 -20 -20 -20 -20 -20 -20 -20 -20 -20 -20 -20 -20 -20 -20 -20 -20 -20 -20 -20 -20 -20 -20 -20 -20 -20 -20 -20 -20 -20 -20 -20 -20 -20 -20 -20 -20 -20 -20 -20
-20 12 -3 -20 -20 -20 -20 -20 -20 -20 -20 -15 -18 -20 -13 -20 -20 -20 -20 -20 -20 -20 -20 -20 -20 -17 -20 -20 -20 -20 -20 -20 -20 -20 -20 -20 -20 -20 -20 -20 -20 -20 -20 -20 -20 -20 -20
-19 7 -12 -4 -20 -20 -20 -20 -20 -20 -20 -19 -3 7 -20 -20 -20 -20 -20 -20 -20 -20 -20 -20 -20 -20 -20 -20 -20 -20 -20 -20 -20 -20 -20 -20 -20 -20 -20 -20 -20 -19 -20 -20 -20 -20 -20
2 -16 -20 -4 -20 -20 -20 -20 -20 -20 -20 -20 -1 -20 -3 -20 -20 -20 -20 -20 -20 -20 -20 -20 -20 -20 -20 -20 -20 -20 -20 8 -10 -20 -20 -20 -1 1 -20 -20 -20 -20 -20 -20 -20 -20 -20
5 -7 9 -16 2 2 -20 -20 -20 -20 -20 -20 -18 -20 10 13 -20 -20 -20 -20 -20 -20 -20 -20 -20 -20 -20 -20 -20 -20 -2 -20 -14 10 0 -6 -16 6 -20 -16 -1 -20 -20 -20 -20 -20 -20
16 6 9 -20 -20 -7 -5 -20 -19 12 -20 -20 -20 -20 -4 10 -20 -20 -20 -20 -20 -20 -20 -20 -20 -20 -20 -20 -20 -20 -20 -20 -8 -20 11 9 11 -3 -19 1 -12 -20 -20 -20 -20 -20 -20
5 7 10 -12 -20 -5 2 1 -10 -4 -20 -20 -20 -20 -9 2 -20 -20 -20 -20 -20 -20 -15 -20 -20 -20 -20 -20 -20 -20 -20 -20 -20 -20 -20 -14 2 -7 -8 -14 -20 -20 -20 -20 -20 -20 -20
1 14 3 -1 4 -20 -10 -15 -1 7 10 -1 -20 -20 -2 12 -6 -8 -19 -19 -20 -20 -20 -20 -20 -20 -20 -20 -20 -20 -20 -20 -20 -20 -20 -20 -20 -20 -20 -20 -20 -20 -20 -20 -20 -20 -20

GFSGBSN_prec_radar_039.txt.gz
Reflectivity
-20 11 8 -20 7 10 13 22 13 16 7 -11 -3 17 6 3 -3 19 -13 -20 -9 -20 2 2 7 20 35 8 -19 5 -9 -20 -7 13 5 -20 -20 -20 -20 -20 -20 -20 -20 -20 -20 -20 -20
-6 6 -16 8 10 11 9 7 15 -16 13 6 -1 5 13 4 22 23 -18 10 10 -20 5 -4 14 10 37 22 -7 -15 -3 -20 -11 10 7 -20 -20 -20 -20 -20 -20 -20 -20 -20 -20 -20 -20
12 3 15 15 16 12 14 15 -20 8 -20 -17 -1 14 6 15 1 24 -11 -17 -20 -19 -19 -17 16 14 26 22 -20 -20 -5 -20 3 -20 -19 -20 -20 -20 -20 -20 -20 -20 -20 -20 -20 -20 -20
12 12 13 -7 14 12 -1 15 -6 -1 -20 -15 -5 17 17 -6 -7 -14 -20 26 26 23 -20 -20 16 14 28 -6 -19 -20 2 -18 29 30 26 -14 11 -6 -20 -20 -20 -20 -20 -20 -20 -20 -20
7 16 15 10 12 13 17 15 7 -17 -16 12 -6 -4 19 -7 17 7 -20 -20 -4 -20 -20 -2 10 18 12 17 -13 -20 -3 -1 25 26 26 19 -20 -3 -20 -20 -20 -20 -20 -20 -20 -20 -20
9 16 10 9 14 17 17 19 -18 2 14 7 9 -1 -13 1 18 11 26 17 -20 -20 -20 -20 9 25 18 -9 -20 -20 -19 -5 1 6 23 18 19 -13 -20 -15 -19 -20 -20 -20 -20 -20 -20
9 14 16 9 14 14 15 4 -3 -20 13 17 6 7 -10 -6 -18 -8 -9 -20 -6 22 -20 -20 -20 21 1 7 21 -20 -20 -20 11 24 2 28 -16 14 -20 -20 -20 -20 -20 -20 -20 -20 -20
15 13 11 4 15 14 15 -9 -20 -20 19 6 -20 -20 9 3 15 5 -18 -6 8 -0 -18 -20 9 17 -18 -19 29 3 -20 -20 9 -5 19 19 15 12 8 -15 -18 -19 -20 -20 -20 -20 -20
11 -2 9 15 13 16 14 -0 -20 -11 18 2 11 6 3 -4 -20 -20 -20 -20 -16 -15 -14 -20 5 8 17 6 -0 -20 -20 -11 13 -8 5 -19 13 28 -14 18 -7 -19 -20 -20 -20 -20 -20
-13 11 -1 13 3 14 14 -20 -18 17 17 21 24 21 23 9 -9 5 -20 -18 -20 -13 -19 -18 -14 14 32 -0 2 -20 1 7 15 22 20 -14 -17 -14 8 31 19 2 -20 -20 -20 -20 -20
-20 -16 10 10 5 13 -6 -20 11 13 20 8 -3 5 5 26 10 -20 20 3 -20 2 -15 17 19 21 11 -19 -15 -9 18 0 -19 14 -12 14 -19 -20 22 -9 8 -20 -20 -20 -20 -20 -20
-20 -15 5 14 1 4 -20 -13 5 5 20 6 -20 5 -20 -20 -20 -20 -20 -20 -7 5 9 10 31 24 10 -20 -20 5 22 16 -5 -5 10 30 15 -8 -20 -1 -7 -20 -20 -20 -20 -20 -20
-20 -8 -14 12 -20 12 -15 -20 4 15 16 -20 -20 -20 -20 -20 -20 -20 -20 -15 14 11 21 24 31 -6 -8 10 17 16 22 8 -5 -1 -10 -9 -18 -20 -20 -20 -20 -20 -20 -20 -20 -20 -20
-20 -20 -20 -3 1 10 -20 -1 8 9 -10 6 -20 -20 1 -20 -20 -20 1 10 18 15 26 37 11 9 -18 17 13 28 22 -12 -3 -20 -20 -12 -20 -20 -20 -20 -20 -20 -20 -20 -20 -20 -20
-20 -19 -17 -20 -2 -20 -20 1 -20 12 -10 -20 -20 -20 -9 -19 -20 -14 5 2 18 23 27 12 -9 2 16 -20 14 25 -19 -20 -20 -20 -20 -20 -20 -20 -20 -20 -20 -20 -20 -20 -20 -20 -20
-5 -20 -20 -8 -20 -13 -16 -11 -20 14 -13 -20 -20 -20 -20 -20 -20 -20 -12 20 26 7 0 -20 -16 -19 -20 3 -2 -7 -20 8 -20 -20 -20 -20 -20 -20 -20 -20 -20 -20 -20 -20 -20 -20 -20
2 -20 -20 4 -20 -20 -8 -20 -19 10 -9 -20 -20 -20 -20 -19 -20 -20 -5 3 -1 -20 -20 -20 -20 -20 -20 -20 -20 7 -20 -20 -20 -20 -20 -20 -20 -20 -20 -20 -20 -20 -20 -20 -20 -20 -20
-10 -20 -20 3 -20 -20 -20 -20 -20 -12 -9 -20 -20 -20 -20 -20 -13 -20 -20 -20 -5 -20 -20 -20 -20 -20 -20 -20 -20 -20 -20 -20 -20 -20 -20 -20 -20 -20 -20 -20 -20 -20 -20 -20 -20 -20 -20
-20 -20 -20 -2 -20 -20 -20 -20 -20 -20 -17 -20 -20 -20 -20 -20 -20 -20 -20 -20 -20 -20 -20 -20 -20 -20 -20 -20 -20 -20 -20 -20 -20 -20 -20 -20 -20 -20 -20 -20 -20 -20 -20 -20 -20 -20 -20
-15 -12 -20 -15 -20 -20 -20 -20 -20 -20 -20 -20 -20 -20 -20 -20 -20 -20 -20 -20 -18 -20 -20 -20 -20 -20 -20 -20 -20 -20 -20 -20 -20 -20 -20 -20 -20 -20 -20 -20 -20 -20 -20 -20 -20 -20 -20
-20 -2 -20 -20 -20 -20 -20 -20 -20 -20 -20 -20 -20 -20 -20 -20 -20 -20 -20 -20 -20 -20 -20 -20 -20 -20 -20 -20 -20 -20 -20 -20 -20 -3 -20 -20 -20 -20 -20 -20 -20 -20 -20 -20 -20 -20 -20
-20 -16 0 -20 -19 -20 -20 -20 -20 -20 -20 -20 -20 -20 -16 -20 -20 -20 -20 -20 -20 -20 -20 -20 -20 -20 -20 -20 -20 -20 -20 -20 -20 -20 -20 -20 -20 -20 -20 -20 -20 -20 -20 -20 -20 -20 -20
-20 -19 8 -17 -20 -20 -18 -20 -20 -20 -20 -20 -20 -20 -20 -20 -20 -20 -20 -20 -20 -20 -20 -20 -20 3 -0 -20 -20 -20 -20 -20 -20 -20 -20 -20 -20 -20 -20 -20 -20 -20 -20 -20 -20 -20 -20
-20 -20 -6 0 -3 -19 -7 -20 -20 -20 -20 -20 -3 -12 -20 -20 -20 -20 -20 -20 -20 -20 -20 -20 -20 -13 -20 -20 -20 -20 -20 -20 -20 -20 -20 -20 -20 -20 -20 -20 -20 -20 -20 -20 -20 -20 -20
-20 -20 7 -9 10 -13 -7 -20 -20 -20 -20 -20 -17 -20 -18 -20 -20 -20 -20 -20 -20 -20 -20 -20 -20 -20 -20 -20 -20 -20 -20 -13 -11 -20 -20 -20 -20 -20 -20 -20 -20 -20 -20 -20 -20 -20 -20
-20 -20 -11 -19 12 9 -5 -13 -20 -20 -20 -20 0 -20 -20 -1 -20 -20 -20 -20 -20 -20 -20 -20 -20 -20 -20 -20 -20 -20 -19 -11 -13 -7 -13 -20 -20 3 -18 -20 -20 -10 -20 -20 -20 -20 -20
-13 -20 -20 1 -20 14 6 -15 -20 -11 -20 -20 -20 -20 -20 -13 -20 -20 -20 -20 -20 -20 -20 -20 -20 -20 -20 -20 -20 -20 -20 -20 -15 -20 11 2 7 -6 -6 -20 -20 -12 -20 -20 -20 -20 -20
-20 -20 -20 -18 -20 11 14 7 -6 2 -20 -20 -20 -11 -20 1 -20 -20 -20 -20 -20 -20 -20 -20 -20 -20 -20 -20 -20 -20 -20 -20 -20 -20 -20 -19 -16 -9 -19 -13 -13 1 -20 -20 -20 -20 -20
3 -0 -20 -20 13 15 8 2 7 6 10 6 -20 -20 -20 10 -20 -20 -20 -20 -20 -20 -20 -20 -20 -20 -20 -20 -20 -20 -20 -20 -20 -20 -20 -20 -20 -20 -20 -20 -20 -2 -19 -20 -20 -20 -20

GFSGBSN_prec_radar_042.txt.gz
Reflectivity
10 9 -11 11 17 5 12 8 16 -13 6 -16 -9 12 -20 14 -3 16 13 -9 20 6 -17 -20 3 -5 18 22 13 8 -1 -4 -14 -20 6 13 3 -20 -20 -20 -20 -20 -20 -20 -20 -20 -20
11 11 9 -3 13 9 -6 2 -7 7 -1 13 -20 4 15 -5 -2 10 -9 -7 -7 -12 -3 1 -11 11 10 28 9 11 -10 11 -20 6 3 12 -3 -20 -20 -20 -20 -20 -20 -20 -20 -20 -20
-3 -15 10 12 2 13 9 11 -10 6 -10 -4 18 -20 13 15 14 7 -4 23 13 -1 -19 -18 23 13 20 5 11 35 -20 -11 -8 -18 11 -4 -20 -20 -20 -20 -20 -20 -20 -20 -20 -20 -20
-19 -20 -3 14 16 18 17 -2 15 17 10 21 21 1 6 -3 -18 -5 -7 -5 22 24 29 -12 26 14 21 -11 -10 26 -20 27 -19 26 -12 -20 -20 -20 -20 -20 -20 -20 -20 -20 -20 -20 -20
12 -1 7 16 11 15 -2 -10 15 4 -20 0 23 11 -11 10 -15 -20 21 -15 -14 -20 27 4 22 5 16 -20 23 17 -3 25 -6 29 26 24 -20 -2 -20 -20 -20 -20 -20 -20 -20 -20 -20
-0 -16 12 12 15 -2 12 6 16 -20 -20 12 18 -19 -20 -2 1 19 17 15 -20 -20 -20 -20 -8 -6 1 -20 15 -16 25 23 -5 27 23 24 17 -11 -20 -16 -20 -15 -20 -20 -20 -20 -20
1 -16 12 10 -11 14 11 8 -3 -20 17 21 -6 -1 -20 1 8 -12 -20 -20 -20 -20 26 -20 -19 -20 -20 -20 26 8 19 25 14 26 28 3 16 10 -2 -20 -20 -20 -20 -20 -20 -20 -20
-2 -8 3 5 11 15 14 17 -20 18 17 16 19 20 23 -20 4 19 -20 -20 -20 -20 -20 -20 -20 27 15 -19 23 -15 -20 10 9 26 32 32 6 5 -20 -20 -20 -20 -20 -20 -20 -20 -20
-20 -19 15 10 6 13 14 -3 10 13 11 23 19 16 29 5 16 -20 -20 -20 -20 -20 -20 -20 -4 27 14 8 23 -7 -20 8 -6 -5 30 39 24 14 27 -8 8 -4 -20 -20 -20 -20 -20
-20 -20 -8 -0 15 -19 15 17 3 5 8 16 21 -3 26 25 9 -20 -20 -20 -20 -20 -20 -20 9 24 24 17 28 -20 10 15 5 -5 -2 2 -18 8 -5 25 10 9 -20 -20 -20 -20 -20
-20 -17 -20 -19 -20 -12 10 11 13 -9 8 14 -20 2 -20 -20 -20 -19 -13 -20 -20 -19 -20 -1 19 12 22 1 33 -4 -4 13 9 -17 -19 -4 -10 2 26 -1 17 15 -20 -20 -20 -20 -20
-20 -14 6 -20 -20 -4 -20 5 11 10 2 16 -20 -15 -20 -20 -19 -20 -20 -18 -16 -13 -3 18 23 30 22 18 15 -6 28 -19 -16 21 17 9 -20 -5 23 10 21 -1 -20 -20 -20 -20 -20
-20 -8 -16 -20 -20 -20 -4 13 10 13 -20 9 -20 -16 -20 2 16 -20 -20 -20 -20 -20 -13 7 34 31 3 18 -2 4 26 18 -10 15 22 5 18 -13 -19 -10 23 -20 -20 -20 -20 -20 -20
-20 2 -20 -20 -20 -20 -9 -4 1 13 -12 -20 -20 -20 -20 -20 -20 -20 9 -20 -20 -20 -12 38 12 12 17 7 11 -9 35 1 -12 -18 2 4 8 -17 -20 -20 -20 -20 -20 -20 -20 -20 -20
-20 -2 -3 -20 -14 -20 -20 -20 -7 4 4 -20 -20 -20 -20 -20 -20 -20 -13 -19 2 8 9 28 -4 5 -3 -18 7 37 9 -18 -20 -20 -20 -17 -7 -20 -20 -20 -20 -20 -20 -20 -20 -20 -20
-20 -7 -11 -20 -20 -20 -20 -20 -9 -7 -11 -20 -20 -20 -20 -20 -20 -20 -13 8 -8 1 7 -20 -18 -19 -20 -16 14 -19 -20 -20 -20 -20 -20 -20 -20 -20 -20 -20 -20 -20 -20 -20 -20 -20 -20
-20 -17 -20 -6 -20 -20 -20 -20 -20 12 -20 -20 -20 -20 -20 -20 -20 -20 -20 -20 -20 -20 -20 -20 -20 -20 -20 -20 -20 -20 -20 -20 -20 -20 -20 -20 -20 -20 -20 -20 -20 -20 -20 -20 -20 -20 -20
-20 -4 -20 -20 -20 -20 -20 -20 -20 -20 -20 -20 -20 -20 -20 -20 -20 -20 -20 -20 -20 -20 -20 -20 -20 -20 -20 -20 -20 -20 -20 -20 -20 -20 -20 -20 -20 -20 -20 -20 -20 -20 -20 -20 -20 -20 -20
-20 1 -19 -20 -20 -20 -20 -20 -20 -20 -20 -20 -20 -20 -20 -20 -20 -20 -20 -20 -20 -20 -20 -20 -20 -20 -20 -20 -20 -20 -20 -20 -20 -20 -20 -20 -20 -20 -20 -20 -20 -20 -20 -20 -20 -20 -20
-20 -5 -0 -20 -20 -20 -20 -20 -20 -20 -20 -20 -20 -20 -20 -20 -20 -20 -20 -20 -20 -20 -20 -20 -20 -20 -20 -20 -20 -20 -20 -20 -20 -20 -20 -20 -20 -20 -20 -20 -20 -20 -20 -20 -20 -20 -20
-20 -18 5 -20 -20 -20 -20 -20 -20 -20 -20 -20 -20 -20 -4 -20 -20 -20 -20 -20 -20 -20 -20 -20 -20 -20 -20 -20 -20 -20 -20 -20 -20 -20 -20 -20 -20 -20 -20 -20 -20 -20 -20 -20 -20 -20 -20
-20 -20 4 -0 -20 -20 -20 -20 -20 -20 -20 -20 -20 -20 -20 -20 -20 -20 -20 -20 -20 -20 -20 -20 -20 -20 -20 -20 -20 -20 -20 -20 -20 -20 -20 -20 -20 -20 -20 -20 -20 -20 -20 -20 -20 -20 -20
-20 -20 -16 -1 -20 -20 -20 -20 -18 -20 -20 -20 -5 -20 -11 -20 -20 -20 -20 -20 -20 -20 -20 -20 -20 -20 3 -20 -20 -20 -20 -20 -20 -20 -20 -20 -20 -20 -20 -20 -20 -20 -20 -20 -20 -20 -20
-20 -20 -20 10 -20 -20 -20 -20 -20 -20 -20 -20 -7 -20 -17 -20 -20 -20 -20 -20 -20 -20 -20 -20 -20 -20 -20 -20 -20 -20 -20 -20 -20 -20 -20 -20 -20 -20 -20 -20 -20 -20 -20 -20 -20 -20 -20
-20 -20 -13 8 -20 -20 -20 -10 -20 -20 -20 -20 -20 -20 -20 -19 -20 -20 -20 -20 -20 -20 -20 -20 -20 -20 -20 -20 -20 -20 0 -6 -20 -20 -20 -20 -20 -20 -20 -20 -20 -20 -20 -20 -20 -19 -20
-9 -5 -12 -7 12 -20 -20 -20 -17 -12 -20 -20 -20 -20 -20 -17 -20 -20 -20 -20 -20 -20 -20 -20 -20 -20 -20 -20 -20 -20 -20 -20 2 7 -20 -20 -20 -20 -19 -20 -20 -20 -12 -20 -20 9 -20
-20 -20 -4 -16 15 6 -20 -20 -20 -19 -6 -20 -20 -20 -20 -1 -20 -17 -20 -20 -20 -20 -20 -20 -20 -20 -20 -20 -20 -20 -20 -20 -14 -12 -5 1 6 -20 -20 -15 -20 -20 -20 -20 -8 -20 -20
-20 -20 3 -2 -7 16 -16 -17 -14 2 9 -20 -20 -20 -20 -20 -20 -20 -20 -10 -20 -20 -20 -20 -20 -20 -20 -20 -20 -20 -20 -20 -20 -20 -20 -20 -20 -19 -20 -13 -20 -20 -19 15 -16 -20 -20
-8 -3 7 10 -20 -5 17 5 -20 -2 14 1 -20 -20 -20 -20 -20 -20 -20 -20 -20 -20 -20 -20 -20 -20 -20 -20 -20 -20 -20 -20 -20 -20 -20 -20 -20 -20 -20 -20 -20 -15 21 6 -20 -20 -20

GFSGBSN_prec_radar_045.txt.gz
Reflectivity
-10 -11 11 10 -7 -20 12 4 8 -10 -8 -6 6 18 -11 -13 -15 11 -3 0 19 18 -13 -20 -5 -20 6 15 -3 -20 11 -20 2 -20 4 7 4 7 -19 -20 -20 -20 -20 -20 -20 -20 -20
6 -20 15 6 10 -10 19 14 13 -12 7 -3 9 21 6 16 13 -4 13 21 -3 -8 18 -20 -12 9 10 16 8 25 -17 -20 -19 -13 8 2 -10 -11 0 -20 -20 -20 -20 -20 -20 -20 -20
6 11 14 10 7 15 15 -14 13 -11 5 6 10 18 20 14 8 5 17 -19 -20 -20 -20 -18 25 -19 14 20 -0 19 7 -20 -14 4 13 9 -20 -20 -20 -20 -20 -20 -20 -20 -20 -20 -20
2 13 -3 -8 12 11 10 16 3 18 -20 -20 5 19 20 2 12 -1 -20 -20 -20 -16 26 -20 -6 20 -16 -20 7 10 -4 -4 -20 13 18 24 -20 -20 -20 -20 -20 -20 -20 -20 -20 -20 -20
-16 -10 9 7 5 13 -2 16 4 -20 -6 19 20 21 14 -20 1 -11 -20 -4 -20 -20 26 25 -14 18 -5 3 20 24 32 -9 -20 22 1 28 21 -1 -20 -20 -20 -20 -20 -20 -20 -20 -20
-0 17 10 1 -20 -4 7 16 -1 -14 15 20 18 27 -9 -13 -20 2 -11 -20 -20 -20 -20 -16 8 5 -20 11 -19 -10 16 25 12 21 31 28 21 7 -20 -20 -20 -20 -20 -20 -20 -20 -20
2 -8 12 -13 7 6 -8 14 5 -0 12 20 20 22 5 29 -20 12 -20 -20 -20 -20 -20 -20 -20 -20 22 6 -14 29 3 6 24 27 13 16 -20 -20 -20 -20 -20 -20 -20 -20 -20 -20 -20
-11 -20 12 -9 3 -2 3 10 -3 13 14 20 18 21 -6 25 12 -20 -20 -20 -20 -20 -20 -20 -20 -16 -20 -16 12 14 20 34 27 24 22 14 -3 -20 -20 -20 -20 -20 -20 -20 -20 -20 -20
-20 -20 3 -20 -3 -18 9 -5 4 10 12 12 18 21 -2 -20 -20 -20 -20 -20 -20 -20 -20 -20 -15 24 3 -19 7 -12 32 32 38 24 33 8 -6 -6 -20 11 -9 -18 -20 -20 -20 -20 -20
-19 -20 -14 -20 -20 -20 -12 17 10 7 12 11 -4 7 -20 -18 -20 -20 -20 -20 -20 -20 -20 -19 24 8 13 1 37 -12 35 13 33 41 35 41 14 13 -15 -20 -2 -3 -20 -20 -20 -20 -20
-4 -20 -20 -20 -20 -20 14 14 8 13 11 -8 -20 -20 -20 -19 -14 -17 -11 -20 -20 -20 14 4 21 20 24 8 9 8 -20 -11 5 16 16 24 29 34 27 30 1 -17 -20 -20 -20 -20 -20
-19 -16 -20 -20 -20 -20 3 18 -20 15 14 -20 -20 -20 -20 -20 -13 -20 -20 -20 -1 15 13 21 22 33 -12 -12 13 -7 9 -20 -12 -20 -3 23 13 17 7 20 19 -18 -20 -20 -20 -20 -20
-20 3 -20 -17 -20 -20 -20 8 0 13 17 -20 -20 -20 -20 -20 -19 -20 -20 -20 -20 -20 -6 19 32 3 -9 19 22 3 28 -15 -12 4 16 12 -4 6 37 30 7 7 24 -9 -20 -20 -20
-20 13 -20 -20 -20 -20 -20 -3 -15 11 4 -20 -20 -20 -20 -20 -20 -14 -19 -20 -20 -19 -20 27 20 11 15 -2 11 10 34 -20 -19 -20 -19 15 24 15 -5 -20 -20 -20 -16 -20 -20 -20 -20
-20 -0 -16 -20 -20 -20 -20 -20 -9 16 7 -20 -20 -20 -20 -20 -20 -20 -11 -20 -20 -20 6 16 -12 -20 2 3 -20 23 21 -20 -20 -18 -20 -20 -20 -20 -20 -20 -20 -20 -20 -20 -20 -20 -20
-20 -19 -5 -20 -20 -20 -20 -20 -20 -4 -10 -20 -20 -20 -20 -20 -20 -20 -20 11 -12 -20 -20 -20 -20 -20 -2 -12 -18 -10 23 -12 -20 -20 -20 -20 -20 -20 -20 -20 -20 -20 -20 -20 -20 -20 -20
-20 -18 3 -20 -20 -20 -20 -20 -20 -20 -20 -20 -20 -20 -20 -20 -20 -20 -20 -16 -20 -20 -20 -20 -20 -20 -20 -20 -20 -20 -20 -20 -20 -20 -20 -20 -20 -20 -20 -20 -20 -20 -20 -20 -20 -20 -20
-20 -20 9 -20 -20 -20 -20 -20 -20 -20 -8 -20 -20 -20 -20 -20 -20 -20 -20 -20 -20 -20 -20 -20 -20 -20 -20 -20 -20 -20 -20 -20 -20 -20 -20 -20 -20 -20 -20 -20 -20 -20 -20 -20 -20 -20 -20
-20 -20 5 -19 -20 -20 -20 -20 -20 -20 -4 -20 -20 -20 -20 -20 -20 -20 -20 -20 -20 -20 -20 -20 -20 -20 -20 -20 -20 -20 -20 -20 -20 -20 -20 -20 -20 -20 -16 -20 -20 -20 -20 -20 -20 -20 -20
-20 -20 -4 -3 -20 -20 -20 -20 -20 -20 -20 -20 -20 -20 -20 -20 -20 -20 -20 -20 -20 -20 -20 -20 -20 -20 -20 -20 -20 -20 -20 -20 -20 -20 -20 -20 -20 -20 -20 -20 -20 -20 -20 -20 -20 -20 -20
-20 -20 -20 11 -20 -20 -20 -20 -20 -20 -20 -20 -20 -20 -20 -20 -20 -20 -20 -20 -20 -20 -20 -20 -20 -20 -20 -20 -20 -20 -20 -20 -20 -20 -20 -20 -20 -20 -20 -20 -20 -20 -20 -20 -20 -20 -20
-20 -20 -20 5 7 -20 -20 -20 -20 -20 -20 -20 -20 -20 -18 -20 -20 -20 -20 -20 -20 -20 -20 -20 -20 -20 -20 -20 -20 -20 -20 -20 -20 -20 -20 -20 -20 -20 -20 -20 -20 -20 -20 -20 -20 -20 -20
-20 -20 -20 -20 6 -20 -20 -20 -20 -20 -20 -20 -20 -15 3 -20 -20 -20 -20 -20 -20 -20 -20 -20 -20 -20 -20 -20 -20 -20 -20 -20 -20 -20 -20 -20 -20 -20 -20 -20 -20 -20 -20 -20 -20 -20 -20
-20 -20 -20 -18 -4 -20 -20 -20 -20 -20 -20 -20 -19 -2 -1 -20 -20 -20 -20 -20 -20 -20 -20 -20 -20 -20 -20 -20 -20 -20 -20 -20 -20 -20 -20 -20 -20 -20 -20 -20 -20 -20 -20 -20 -20 -20 -20
-20 -5 -4 -20 11 -3 -20 -20 -20 -6 -20 -20 -20 -14 -2 -20 -20 -20 -20 -20 -20 -20 -20 -20 -20 -20 -20 -20 -20 -20 -2 -8 -20 -20 -20 -20 -20 -20 -20 -20 -20 -20 -20 -20 -20 -20 -20
-19 -20 -20 -20 -20 3 4 -20 -20 -14 -13 -20 -20 -20 -20 9 -20 -19 -18 -20 -20 -20 -20 -20 -20 -20 -20 -20 -20 -20 -20 -20 -10 -20 -20 -20 -20 -20 -20 -20 -20 -20 -20 -20 -20 -20 -19
-20 -20 -20 -20 -20 -20 14 -20 -16 -20 -12 -20 -20 -20 -20 -19 -20 -20 -9 -15 -20 -20 -20 -20 -20 -20 -20 -20 -20 -20 -20 -20 -14 -18 -14 -10 -13 -17 -20 -20 -20 -20 -20 -20 -4 -10 -12
-20 -20 -11 -20 -20 -20 3 16 11 -20 -20 -15 -20 -20 -20 -20 -20 -20 -20 -9 -20 -20 -20 -20 -20 -20 -20 -20 -17 -20 -20 -20 -20 -20 -15 -20 -20 -6 -20 -20 -20 -20 -20 -20 -18 -20 -20
10 -19 6 -4 -20 -20 -20 15 25 -15 -11 -16 -20 -20 -20 -20 -20 -20 -20 -20 -20 -20 -20 -15 -20 -20 -20 -20 -20 -20 -20 -20 -20 -13 -20 -20 -20 -20 -20 -20 -20 -20 -17 17 -20 -20 -20

GFSGBSN_prec_radar_048.txt.gz
Reflectivity
10 0 3 -3 -4 -17 11 6 -20 -18 4 13 6 8 -20 19 16 -9 -2 9 10 -4 -12 -17 21 22 3 -7 -10 -20 3 -13 27 9 1 1 7 12 3 -20 -20 -20 -20 -20 -7 -2 6
-14 5 -0 7 -10 6 -7 2 6 6 8 2 -8 -11 -20 -16 15 -15 -10 -11 -9 17 -3 -20 -2 23 19 -2 -20 -15 15 2 -9 19 0 6 -12 6 7 -1 -20 -20 -20 -20 -20 -11 -15
-20 5 -19 9 7 7 18 -14 17 3 -20 -20 21 20 21 12 -19 -0 5 -20 -6 25 -20 -20 -3 -20 8 -20 7 -20 -20 -20 -8 -19 12 6 -20 11 -17 -6 -13 -19 -20 -20 -20 -20 -20
-7 -17 -13 15 9 12 -19 -17 23 -20 -2 21 23 20 24 25 -20 -20 -20 -20 19 4 9 -11 1 -16 -1 -20 14 -20 -1 -20 23 -20 16 18 -7 -20 -19 -18 -18 -7 -20 -20 -20 -20 -20
12 -16 -20 8 2 18 10 1 6 12 9 18 23 14 20 24 -13 -20 -20 -20 -9 -5 -11 4 5 12 -6 -20 -20 17 25 6 12 -20 17 23 23 -8 -12 -20 -20 -20 -20 -20 -20 -20 -20
11 0 -20 -14 -20 9 12 13 0 13 13 12 22 7 23 4 21 -20 -20 -20 -20 -20 -18 -20 -1 -19 -20 -8 -14 27 -14 11 16 -12 28 28 26 20 10 -17 -20 -20 -20 -20 -20 -20 -20
-20 -20 -20 0 -20 11 4 10 0 14 -20 12 16 18 2 -17 24 -18 -20 -20 -20 -20 21 -20 1 13 25 24 -19 7 27 -12 9 23 23 27 29 13 -2 -15 -20 -20 -20 -20 -20 -20 -20
9 -20 -12 -20 1 -20 -0 14 14 14 13 12 12 -14 -20 -20 0 -20 -20 -20 -20 -20 -17 -20 -20 -20 14 21 18 -18 19 22 23 0 16 18 22 6 8 -16 -20 -17 -20 -20 -20 -20 -20
-7 -20 -7 -20 -20 9 -7 10 5 10 11 11 -2 -20 -20 9 -20 -20 -20 -9 -20 -20 -6 -20 -20 -11 39 15 1 17 24 41 12 8 24 6 5 -10 -6 5 -20 -20 -11 -20 -20 -20 -20
-13 -20 -20 -20 -20 -18 -20 -20 1 3 10 9 1 -20 -20 -20 -20 -20 2 -16 -20 -20 -20 -5 -4 23 21 -9 28 -7 40 34 15 14 -0 18 15 -20 -20 2 -19 -19 -20 -20 -20 -20 -20
-20 -20 -20 -20 -20 -20 -20 -20 -2 6 10 10 -20 -20 -20 -20 -20 -12 -15 -20 -8 6 21 6 11 19 11 21 18 21 36 39 37 23 27 29 11 18 7 -15 -15 6 -20 -20 -20 -20 -20
-20 -20 -16 -20 -20 -20 -20 -20 -20 -17 15 7 -12 -20 -20 -20 -20 -20 -20 -20 -20 -20 -8 15 17 16 -18 28 12 31 39 35 34 30 33 29 37 35 -17 -18 -12 -20 -20 -20 -20 -20 -20
-20 -20 -20 -20 -20 -20 -20 -20 -20 -20 1 12 5 -20 -20 -20 -20 -20 -20 -20 -14 -10 -5 24 23 1 -7 14 -11 -15 14 9 6 -19 8 25 34 35 27 30 25 -20 -17 1 -11 -8 -20
-20 -20 -20 -20 -20 -20 -20 -20 -20 -20 -20 7 -20 -20 -20 -20 -20 -20 -20 -20 -20 -10 19 -3 9 10 18 11 0 -7 -19 -20 -20 -20 -18 20 12 21 31 18 -9 -4 -1 -1 -20 -20 -20
-20 -20 -7 -20 -20 -20 -20 -20 -20 -20 -20 9 -20 -20 -20 -20 -20 9 -8 -20 -19 -14 15 3 -20 6 9 -20 -14 29 4 -20 -20 -20 3 6 11 -19 -20 -20 -20 4 20 -18 -20 -20 -20
-20 -20 5 -17 -20 -20 -20 -20 -20 -20 -20 -20 -20 -20 -20 -20 -20 -20 -20 1 7 -20 -19 -20 -20 -20 -20 -20 -20 -20 -19 -20 -20 -19 -20 -20 -20 -20 -20 -20 -20 -20 -20 -20 -20 -20 -20
-20 -20 9 -17 -20 -20 -20 -20 -20 -20 -20 -20 -20 -20 -20 -20 -20 -20 -20 -20 -20 -20 -20 -20 -20 -20 -20 -20 -20 -20 -20 -20 -20 -20 -20 -20 -20 -20 -20 -20 -20 -20 -20 -20 -20 -20 -20
-20 -20 -11 7 -20 -20 -20 -20 -20 -20 -20 -20 -20 -20 -20 -20 -16 -20 -20 -20 -20 -20 -20 -20 -20 -20 -20 -20 -20 -20 -20 -20 -20 -20 -20 -20 -20 -12 -6 -20 -20 -20 -20 -20 -20 -20 -20
-20 -20 -20 -4 -20 -20 -20 -20 -20 -20 -20 -20 -20 -20 -20 -20 -20 -20 -20 -20 -20 -20 -20 -20 -20 -20 -20 -20 -20 -20 -20 -20 -20 -20 -20 -20 -20 -20 -20 -20 -20 -20 -20 -20 -20 -20 -20
-20 -20 -20 -20 -3 -20 -20 -20 -20 -20 -20 -20 -20 -20 -20 -20 -20 -20 -20 -20 -20 -20 -20 -20 -20 -20 -20 -20 -20 -20 -20 -20 -20 -20 -20 -20 -20 -20 -20 -20 -20 -20 -20 -20 -20 -20 -20
-20 -20 -20 -20 -3 -18 -20 -20 -20 -20 -20 -20 -20 -18 -20 -20 -20 -20 -20 -20 -20 -20 -20 -20 -20 -20 -20 -20 -20 -20 -20 -20 -20 -20 -20 -20 -20 -20 -20 -20 -20 -20 -20 -20 -20 -20 -20
-20 -20 -20 -20 5 -20 -20 -20 -20 -20 -20 -20 -20 -20 -20 -20 -20 -20 -20 -20 -20 -20 -20 -20 -20 -20 -20 -20 -20 -20 -20 -20 -20 -20 -20 -20 -20 -20 -20 -20 -20 -20 -20 -20 -20 -20 -20
-20 -15 -20 -20 7 -20 -20 -20 -20 -20 -20 -20 -20 -20 2 -20 -20 -20 -20 -20 -20 -20 -20 -20 -20 -20 -20 -20 -20 -20 -20 -20 -20 -20 -20 -20 -20 -20 -20 -20 -20 -20 -20 -20 -20 -20 -20
-20 -18 7 -15 -20 6 -20 -20 -20 -20 -20 -20 -13 -7 -2 -20 -20 -20 -20 -20 -20 -20 -20 -20 -20 -14 -20 -20 -20 -20 -20 -20 -20 -20 -20 -20 -20 -20 -20 -20 -20 -20 -20 -20 -20 -20 -20
-20 -20 -18 -20 -20 -13 8 -20 -20 -20 -20 -20 -20 -20 -17 -19 -20 -20 -20 -20 -20 -20 -20 -20 -20 -20 -20 -20 -20 -20 4 -3 -20 -20 -20 -20 -20 -20 -20 -20 -20 -20 -20 -20 -20 -20 -20
-19 -20 -20 -20 -20 -15 -7 -17 -20 -20 -20 -20 -20 -20 -20 -20 -20 -20 -20 -20 -20 -20 -20 -20 -20 -20 -20 6 9 4 -19 -20 5 -20 -20 -20 -20 -18 -20 -20 -20 -20 -20 -20 -20 4 -20
1 -20 -20 -20 -20 -20 -20 8 14 -19 -20 -20 -20 -20 -20 -20 -20 -20 -8 -13 -15 -20 -20 -20 -20 -20 -20 11 8 3 -9 -20 -20 -20 -1 -10 -5 7 -4 -20 -20 -20 -20 -20 -3 -15 -20
-20 -4 -20 -4 2 -6 4 -20 19 18 -13 -20 -20 -20 -20 -20 -20 -20 -20 -20 -20 -20 -20 -20 -13 -20 -20 11 3 -18 -20 -20 -20 -20 -20 -18 -7 6 6 -4 -20 -20 -20 -20 -20 -14 -12
-20 11 4 9 2 -20 -18 -3 9 18 5 -16 -3 -20 -20 -20 -18 -20 -20 -20 -20 -19 -19 -18 -17 -20 -20 -17 -19 -20 -20 -20 -19 -3 -20 -8 -20 -20 -20 -20 -20 -20 -20 -19 -9 -15 -20

GFSGBSN_prec_radar_051.txt.gz
Reflectivity
-20 -13 4 2 7 14 -3 2 2 18 7 -20 -20 22 -10 18 19 17 16 10 -15 2 -18 -20 -3 25 13 12 -20 -20 -19 -20 12 10 -20 -2 -20 1 3 -20 4 -20 -20 -20 -20 9 9
-14 -20 -7 -7 8 7 12 -18 -18 19 -20 -12 18 18 3 -13 20 9 -8 11 -20 -4 -10 -20 -14 15 13 20 -20 -17 -18 -4 4 11 -20 -20 -20 -20 -20 -15 -7 -14 -20 -20 -20 4 13
-20 -1 -10 6 -3 -4 14 -16 15 8 -20 -1 20 21 23 16 -14 -3 3 -18 -20 -20 24 -20 -19 -1 21 -14 -20 -20 21 -12 -1 12 -20 -20 -20 -20 -20 -4 -3 0 7 -20 -20 -12 -8
-20 -20 -20 1 -8 8 -5 -14 7 -20 -20 11 20 11 5 22 -20 -10 -20 -20 -20 -20 -20 -20 -20 22 12 -20 -20 25 20 -15 -20 18 -20 -20 -13 -20 12 -20 -20 -15 11 -12 -14 -20 -20
-20 -20 -20 -17 -20 -11 -5 -2 -8 14 -4 16 15 8 13 18 -11 -20 -20 -20 -20 -20 -12 -20 -14 11 5 -20 -20 0 24 -12 25 30 -20 -20 24 9 -3 -3 11 2 -8 -20 8 -15 -20
-20 -20 -20 -3 -15 -20 5 10 13 13 4 14 12 11 5 11 -13 3 -20 -20 -20 -20 -20 -20 -10 7 -20 -14 -20 4 -20 -11 26 20 19 24 24 19 19 2 -17 -20 -20 -20 -1 -20 -20
-20 -20 -20 -14 -20 -20 -20 6 8 9 9 11 19 11 -20 -20 -20 -20 -20 -20 10 22 19 22 9 -4 10 20 7 -18 -20 -12 18 2 -0 20 23 20 -20 -20 -20 -20 -7 -5 3 -20 -20
-20 -20 -20 -2 -20 -20 -20 -2 17 8 -2 12 15 13 -20 -20 -20 -20 -20 -20 -16 -3 -5 -20 -18 -20 -15 14 35 45 34 25 6 5 14 15 14 9 -20 -20 -20 -20 -17 -20 1 -20 -20
-20 -20 -20 -3 -4 -20 -20 -5 16 9 -19 11 12 2 -20 -20 -20 -6 -15 -7 -20 -20 16 -6 -17 6 16 20 31 18 31 14 -0 8 10 6 -0 21 -17 -17 -20 -20 -17 -8 -17 -20 -20
-20 -20 -20 -3 0 -20 -20 -17 9 13 -12 6 4 6 -20 -20 -14 7 -7 -7 -20 -20 23 21 34 19 13 9 18 18 24 8 -19 15 18 11 31 26 7 -1 -20 -20 -20 -9 -20 -20 -20
-20 -20 -20 -8 1 -19 -20 -20 -0 11 -7 7 -5 -5 -20 -20 -20 -20 -19 -20 -20 1 17 18 22 27 41 18 5 15 24 -10 19 -10 10 35 24 22 12 6 -20 8 -20 -20 1 -19 -20
-20 -20 -20 -20 -3 -18 -20 -20 -20 1 -0 -10 4 -20 -20 -13 -20 -20 -20 -20 -20 -3 16 20 35 26 19 21 26 27 34 23 16 -20 7 20 3 26 9 0 8 -20 -20 -20 -20 -16 -20
-20 -20 -20 -20 -20 -20 -20 -20 -20 -20 -10 -5 -1 -18 -20 -20 -20 -20 -13 -1 -13 -7 -4 5 10 21 36 20 35 38 28 25 27 30 30 26 32 21 11 -15 -13 -20 10 7 13 -3 -16
-20 -20 -20 -12 -20 -18 -20 -20 -20 -20 -20 -20 -20 -20 -20 -20 -20 2 6 -17 -20 5 2 -18 23 -3 -1 0 10 -13 14 25 28 22 20 32 27 31 22 -16 -19 -5 10 13 0 -7 -11
-20 -20 -20 -20 -20 -20 -20 -20 -20 -20 -20 -20 -20 -20 -20 -20 -20 5 -20 -20 4 -11 -20 -3 -7 -19 5 -20 -15 -20 3 2 -13 4 6 -1 27 33 24 25 20 -18 -19 -20 -20 -20 -20
-20 -20 -20 -20 -20 -20 -20 -20 -20 -20 -20 -20 -20 -20 -20 -20 -18 -18 -17 -1 -3 -20 -20 -20 -5 -20 -14 -20 -3 -16 -20 -20 -20 -20 -10 7 6 -7 8 4 18 17 -11 1 -20 -20 -20
-20 -20 -20 -20 -20 -20 -20 -20 -20 -20 -20 -20 -20 -20 -20 -20 -20 -20 -20 -11 -14 -20 -20 -20 -20 -20 -15 -20 -14 -16 -20 -20 -20 -20 -20 -20 -8 -20 -20 -20 -18 -20 -20 -5 -2 -20 -20
-20 -20 -20 -20 -20 -20 -20 -20 -20 -20 -20 -20 -20 -20 -20 -20 -1 -10 -20 -20 -20 -20 -20 -20 -20 -20 6 -20 -20 -20 -19 -20 -20 -20 -20 -20 -20 -19 3 -20 -20 -20 -20 -20 -20 -20 -20
-20 -20 -20 -20 -20 -20 -20 -20 -20 -20 -20 -6 -20 -20 -20 -20 -4 -20 -20 -20 -20 -20 -20 -20 -20 -20 -20 -20 -20 -20 -20 -20 -20 -20 -20 -20 -20 -20 -20 -20 -20 -20 -20 -20 -20 -20 -20
-20 -20 -20 -20 -13 -20 -20 -20 -20 -20 -20 -20 -20 -20 -20 -20 -20 -20 -20 -20 -20 -20 -20 -20 -20 -20 -20 -20 -20 -20 -20 -20 -20 -20 -20 -20 -20 -20 -20 -20 -20 -20 -20 -20 -20 -20 -20
-20 -20 -20 -20 -20 -20 -20 -20 -20 -20 -20 -20 -20 -20 -20 -3 -20 -20 -20 -20 -20 -20 -20 -20 -20 -20 -20 -20 -20 -20 -20 -20 -20 -20 -20 -20 -20 -20 -20 -20 -20 -20 -20 -20 -20 -20 -20
-20 -20 -20 -20 -20 -20 -20 -20 -20 -20 -20 -20 -20 -14 -20 -20 -20 -20 -20 -20 -20 -20 -20 -20 -20 -20 -20 -20 -20 -20 -20 -20 -20 -20 -20 -20 -20 -20 -20 -20 -20 -20 -20 -20 -20 -20 -20
-20 -20 -20 -20 -20 1 -20 -20 -20 -20 -20 -20 -20 5 8 -20 -20 -20 -20 -20 -20 -20 -20 -20 -20 -20 -20 -20 -20 -20 -20 -20 -20 -20 -20 -20 -20 -20 -20 -20 -20 -20 -20 -20 -20 -20 -20
-20 -20 -20 -20 -20 -20 -20 -20 -20 -20 -20 -20 -14 2 7 -20 -20 -20 -20 -20 -20 -20 -20 -20 -20 -20 -20 -20 -20 -20 -20 -20 -20 -20 -20 -20 -20 -20 -20 -20 -20 -20 -20 -20 -20 -20 -20
-13 -20 -20 -20 -20 -20 -20 -7 -20 -20 -20 -20 -20 -14 4 -13 -20 -20 -20 -20 -20 -20 -20 -20 -20 -20 -20 -20 -0 -13 5 -1 -11 -20 -20 -20 -20 -6 -7 -20 -20 -20 -20 -20 -20 -20 -20
3 -8 -20 -20 -20 -19 -20 -20 12 -5 -20 -20 -20 -20 -11 -1 -18 -20 -20 -20 -20 -13 4 -20 -20 -20 -20 1 7 -10 -19 0 -8 -11 -20 -20 -20 -16 -7 -8 -20 -20 -20 -20 -20 -18 -20
-20 -20 -20 -20 -20 8 14 -20 -13 -6 -20 -20 -20 -20 -20 -20 4 -18 -20 -20 -16 -11 -20 -3 -20 -20 -20 10 -10 6 -10 -20 -2 -2 -4 -1 1 -0 -9 -13 -20 -20 -20 -20 -6 -10 -20
-20 -20 -20 -20 -20 3 -20 -20 -11 -2 -20 -9 -3 -20 -20 -20 -20 -6 -11 -20 -20 -20 5 -20 -4 -11 12 11 6 1 -13 -2 -1 -11 -20 -20 -8 -10 2 -2 -20 -20 -20 -10 -10 -20 -20
-20 -20 1 12 -20 -20 -20 -20 -18 -4 -20 -2 5 -20 -20 7 -20 -19 -14 -12 -20 -20 -20 -20 -16 -18 13 12 4 -2 -11 1 -14 0 -20 -20 -20 -20 -20 -20 -20 -20 -20 -20 -20 -20 -20

GFSGBSN_prec_radar_054.txt.gz
Reflectivity
-19 -20 3 -20 2 -20 15 4 11 14 -20 -13 8 15 13 22 1 27 25 5 4 -20 13 -7 -20 28 -20 11 -11 -20 -11 -18 -17 19 -20 10 -20 -20 -8 -20 -16 -16 -20 -20 -20 -20 -20
-6 -20 -8 -10 -20 -20 -7 5 14 -20 -20 1 15 17 18 11 2 26 25 -20 -20 -15 -8 -20 16 -20 3 17 -20 -20 -6 25 -7 27 22 -17 -20 -20 -20 -20 -14 -14 1 -20 -20 -20 -20
-20 -7 -20 6 -20 -15 1 15 12 -20 8 4 17 6 2 18 2 5 -20 -20 -20 -20 -20 -20 -20 -20 6 -17 12 -20 -17 27 25 -14 22 -20 -20 7 -20 -3 -20 -20 16 -4 -20 -20 -7
-20 -8 -20 -11 -20 -20 7 13 16 9 3 8 15 -0 -1 20 17 5 -20 -20 -20 -20 -20 -20 -20 23 -9 1 -3 -20 -17 -3 23 19 -20 -20 -20 -16 -19 -20 -20 -1 1 -6 -20 -19 -7
-20 -4 -20 0 -20 -20 -5 12 -17 -0 5 15 2 -3 -3 9 19 -20 -20 -20 -20 -20 -20 -20 -20 -9 -5 9 -18 -20 32 -10 19 24 30 -20 -20 -20 24 14 16 -5 -20 -14 -20 -13 11
-20 -1 -20 -7 -9 -11 -10 16 5 6 8 14 -2 -9 2 2 7 -20 -20 -20 -20 -20 -20 -20 -8 7 -20 8 -20 -20 39 3 -15 35 23 22 20 10 18 15 2 -17 -20 -20 -0 -4 -13
-20 -10 -20 -20 -2 -0 1 -20 4 8 6 9 4 7 -13 -20 -20 -20 -20 -20 24 25 -20 27 21 15 -17 -20 27 -20 10 -12 27 5 15 20 -20 -5 -20 -20 -20 -20 -20 -20 5 5 5
-20 -20 -20 -17 -20 -4 -3 -2 -1 1 13 8 8 -6 -9 -20 -20 -15 -20 -20 -20 -20 10 -20 -20 -20 -19 -6 30 42 35 27 30 17 -20 8 -9 -20 -14 -20 -20 -20 -20 -20 -20 -4 -20
-20 -20 -20 -20 -20 -20 -6 -0 2 -18 11 2 6 12 -5 -20 -20 -8 -20 -20 -20 -20 3 -20 -13 -10 -18 -19 -2 -11 25 33 28 13 -8 -17 -15 -20 -20 -20 -20 -20 -20 -20 -20 -20 -20
-20 -20 -20 -20 -20 -20 -20 -6 -1 -20 -16 3 4 12 -20 -20 -20 -20 -20 -20 -20 -20 -6 -3 9 23 33 36 33 8 21 38 15 -9 14 13 -18 -20 5 -3 -20 -16 -20 -20 -20 -20 -6
-20 -20 -20 -20 -20 -20 -20 -19 -3 -5 -20 -20 -1 12 -20 -20 -19 -20 -20 -20 -19 -20 -11 4 11 6 35 42 32 33 32 1 12 -10 -18 -19 -20 -4 7 -11 -20 -2 -20 -20 -20 -15 -2
-20 -20 -20 -20 -20 -20 -20 -20 -2 -9 -20 -20 4 -16 -20 -4 2 -20 -20 -20 -20 -14 15 13 38 31 31 6 14 25 -17 -20 -9 -7 -20 -12 -20 -10 36 32 14 -7 -20 -20 -20 -20 -17
-20 -20 -20 -20 -20 -20 -20 -20 -20 -20 -20 -20 -19 -20 -20 -20 11 -20 -16 -20 -18 -6 -13 31 30 25 16 2 -20 -4 10 -17 -20 16 -9 28 27 22 28 17 11 2 -20 -2 10 -10 -20
-20 -20 -20 -20 -20 -20 -20 -20 -20 -20 -20 -20 -20 -20 -20 -20 -20 -13 5 -2 -20 -12 15 9 12 0 20 22 27 39 30 10 -19 -20 -1 -2 28 22 7 -19 9 -20 -20 -20 -20 -18 -20
-20 -20 -20 -20 -20 -20 -20 -20 -20 -20 -20 -20 -20 -20 -20 -20 -20 -18 12 -20 -20 -20 -2 -19 -19 -11 6 6 -17 29 16 26 1 8 25 21 5 28 27 -18 -13 -15 -20 -20 -20 -20 -20
-20 -20 -20 -20 -20 -20 -20 -20 -20 -20 -20 -20 -20 -20 -20 -20 -20 -20 -20 -20 -8 -20 -7 -20 -3 -20 -20 -20 -20 -20 2 -20 -19 -13 15 -6 -7 13 10 17 -5 -20 -11 -4 -20 -20 -20
-20 -20 -20 -20 -20 -20 -20 -20 -20 -20 -20 -20 -20 -20 -20 -20 -20 -15 -20 -20 -20 -20 -20 -20 -20 -20 -20 -20 -17 -9 -1 -20 -20 -20 -20 -3 -20 18 23 25 12 -7 -0 -19 -20 -20 -20
-20 -20 -20 -20 -20 -20 -20 -20 -20 -20 -20 -20 -20 -17 -20 -20 -10 11 -20 -20 -20 -20 -20 -20 -20 -20 -14 -20 -20 -20 -19 -20 -20 -20 -20 -20 -6 -20 -15 -1 -1 19 12 12 9 -1 -20
-20 -20 -20 -20 -20 -20 -20 -20 -20 -20 -20 -18 -20 -20 -20 -20 9 -17 -20 -20 -20 -20 -20 -20 -20 -20 -20 -20 -20 -20 -20 -20 -20 -20 -20 -20 -20 -20 -18 -20 -20 -19 -20 -20 -20 -18 -8
-20 -20 -20 -20 -20 -20 -20 -20 -20 -20 -20 -20 -20 -20 -20 -20 -20 -20 -17 -20 -20 -20 -20 -20 -20 -20 -20 -20 -20 -20 -20 -20 -20 -20 -20 -20 -20 -20 -20 -20 -20 -20 -20 -20 -20 -20 -20
-20 -20 -20 -20 -20 -20 -20 -20 -20 -20 -20 -20 -20 -20 -20 -20 -20 -20 -20 -20 -20 -20 -20 -20 -20 -20 -20 -20 -20 -20 -20 -20 -20 -20 -20 -20 -20 -20 -20 -20 -20 -20 -20 -20 -20 -20 -20
-20 -20 -20 -20 -20 -20 -20 -20 -20 -20 -20 -20 -20 -20 -20 -20 -20 -20 -20 5 -20 -20 -20 -20 -20 -20 -20 -20 -20 -20 -20 -20 -20 -20 -20 -20 -20 -20 -20 -20 -20 -20 -20 -20 -20 -20 -20
-20 -20 -12 -20 -20 -20 -20 -20 -20 -20 -20 -20 -20 -20 4 -20 -20 -18 -8 -20 -2 -20 -20 -20 -20 -20 -20 -20 -20 -20 -20 -20 -20 -20 -20 -20 -20 -20 -20 -20 -20 -20 -20 -20 -20 -20 -20
-20 -19 -11 -20 -20 -20 -20 -20 -20 -20 -20 -20 -20 -17 -11 -20 -13 -20 -20 -20 -20 -20 -13 -20 -20 -20 -20 -20 -20 -20 -20 -20 -20 -20 -20 -20 -20 -20 -20 -20 -20 -20 -20 -20 -20 -20 -20
-20 -20 -18 -20 -20 -20 -20 -20 -19 -20 -20 -20 -20 -20 -20 -20 -20 -20 -20 -20 -20 -20 -20 -2 -20 -20 -20 -20 -13 -13 -19 -20 -20 -20 -20 -20 -20 -20 -20 -20 -20 -20 -20 -20 -20 -20 -20
-20 -20 -20 -20 -20 -20 -20 -20 -20 -6 -20 -20 -20 -20 -20 -20 -20 -20 -17 -20 -20 -20 -10 6 -20 -20 -20 -2 -11 -10 -20 -3 -15 -14 -20 -20 -20 -20 -1 -20 -20 -20 -20 -20 -20 -20 -20
-20 -20 -20 -20 -20 -20 -20 -20 -20 -20 -20 -20 -20 -20 -20 -20 -20 -20 -13 -20 -20 -11 -20 22 -10 -20 -20 -13 0 -7 -2 -20 -10 -13 -11 -1 -6 -5 -20 -13 -20 -20 -20 -20 -17 -20 -20
-20 -20 -20 -1 -20 -20 -20 -20 -20 -20 -20 -20 -8 -20 -20 -20 -20 -20 -20 -7 -20 -20 -6 -2 1 -12 0 3 -7 -2 -20 -14 -20 -20 -20 -20 -20 -15 -11 0 -20 -20 -20 -17 -20 -20 -20
-20 -20 -20 4 -20 -20 -20 -20 9 -20 -11 -3 -18 -20 -9 2 -20 -20 -20 -20 -20 -20 -20 -20 15 -20 -11 12 -15 -3 -19 -20 -20 -0 -20 -20 -20 -20 -20 -20 -20 -20 -20 -20 -20 -20 -20

GFSGBSN_prec_radar_057.txt.gz
Reflectivity
-20 -10 -13 -20 10 6 -15 11 11 10 12 12 11 15 12 11 11 10 19 7 -7 12 -18 -20 -19 -5 -20 3 -12 -7 -20 4 -15 -19 -20 4 -15 -8 -20 -20 -15 -14 7 16 11 1 15
-20 -10 -6 -20 -20 -14 -7 -13 3 13 10 14 11 9 0 2 6 -1 -20 -20 -20 -11 -11 -20 -20 -20 -20 -20 10 14 -20 3 8 24 24 -17 -20 -20 -20 -18 -20 -19 11 15 17 -5 -20
-20 -20 -6 14 -3 -20 -11 3 9 11 10 14 15 10 -20 8 3 -20 -20 -20 -20 -20 -20 -20 -20 -20 2 -20 -0 15 -20 -12 8 42 19 -20 -20 -20 -20 -20 -20 -20 22 18 16 -20 -20
-20 -20 -15 11 7 -20 -20 -20 16 15 7 16 15 10 -20 5 -20 -20 -20 -20 -20 -20 -20 -20 -20 -20 -17 -20 -20 18 22 -20 -15 -2 -20 25 -20 -20 -18 -20 -20 -15 3 15 7 -19 -20
-20 -20 -20 4 -9 -1 -20 -20 7 7 13 15 12 2 -20 -6 -20 -20 -20 -20 -20 -20 -20 -20 -20 23 -20 -20 -16 -2 5 -20 7 18 -20 -11 -20 -7 -7 -11 5 15 -11 -20 3 -20 -20
-20 -20 -20 -20 -20 -2 -20 -20 -20 15 14 11 12 2 -20 -20 -20 -20 -20 -20 -20 -20 -20 -20 2 -11 2 11 -19 -20 -2 28 10 10 39 32 20 2 8 -18 -14 -19 -20 -20 -2 -20 -20
-20 -20 -20 -20 -20 -20 -20 -20 -20 -2 11 6 7 12 -20 -20 -20 -20 -20 -20 -20 -20 -20 -20 -11 9 1 -20 -19 -0 19 43 30 29 25 14 -20 -20 -20 -20 -20 -20 -20 -20 -14 -14 -20
-20 -20 -20 -20 -20 -16 -20 -16 -20 -6 -9 8 11 11 -10 -20 -20 -20 -20 -20 -20 -20 -17 -12 0 -20 -20 16 24 2 19 18 37 30 33 14 -10 -20 -20 -20 -20 -20 -20 -20 -20 -6 -20
-20 -20 -20 -20 -20 -14 -4 6 9 -20 -6 -10 16 13 -13 -20 -20 -20 -20 -20 -20 -20 -20 -20 -20 -20 -20 -11 19 36 39 18 6 41 9 -18 -20 -20 -20 -7 -20 -20 -20 -20 -20 -20 -20
-20 -20 -20 -20 -20 -20 -20 -6 10 -20 -20 -11 3 13 -20 -20 -20 -20 -20 -20 -20 -20 -20 7 -3 -2 -9 -18 14 22 44 29 19 21 4 14 -20 -20 -20 -20 -20 -20 -20 -20 -20 -20 -20
-20 -20 -20 -20 -20 -20 -20 -20 -8 -20 -20 -20 -4 16 -20 -20 -20 -20 -20 -20 -20 -14 -2 18 32 0 1 18 2 -9 25 34 34 27 -20 -17 -19 -20 -20 -20 -20 -20 -20 -20 -20 -20 -20
-20 -20 -20 -20 -20 -20 -20 -20 -20 -20 -20 -20 -20 11 -20 -20 -20 -20 -20 -20 -20 -20 16 30 37 30 35 12 32 28 17 31 18 6 -6 -20 -20 -12 -20 -13 -13 -20 -20 -20 -20 -20 -20
-20 -20 -20 -20 -20 -20 -20 -20 -20 -20 -20 -20 -20 -20 -20 -20 -20 -20 -20 -20 -20 -14 13 28 30 9 -18 26 22 17 4 -20 -14 11 -20 -19 -20 -20 3 -20 -12 8 -20 -20 -8 -19 -20
-20 -20 -20 -20 -20 -20 -20 -20 -20 -20 -20 -20 -20 -20 -20 -20 -20 -20 -20 -20 -20 -20 -19 -13 27 25 28 26 24 9 2 -20 -20 -20 -20 -20 9 3 -6 31 17 -15 -20 -20 -20 -20 -20
-20 -20 -20 -20 -20 -20 -20 -20 -20 -20 -20 -20 -20 -20 -20 -20 -20 -20 -20 -20 -20 -20 -20 -20 -20 4 -19 7 27 15 -10 -14 -20 -20 -20 -20 18 4 29 24 22 -14 -20 -20 -20 -20 -20
-20 -20 -20 -20 -20 -20 -20 -20 -20 -20 -20 -20 -20 -20 -20 -20 -20 -20 -20 -20 -20 -20 -20 -20 -18 -20 -20 -20 -17 -12 -1 -20 -20 -20 -20 -20 -17 6 13 -17 -10 9 -12 -19 -20 -20 -20
-20 -20 -20 -20 -20 -20 -20 -20 -20 -20 -20 -20 -20 -20 -20 -20 -20 -20 -20 -20 -20 -20 -20 -20 -20 -20 -20 -20 -18 -15 -15 -20 -20 -20 -20 -20 -20 14 -4 27 6 8 3 -20 -20 -20 -20
-20 -20 -20 -20 -20 -20 -20 -20 -20 -20 -20 -20 -20 -20 -20 -20 -20 -20 -20 -20 -20 -20 -20 -20 -20 -20 -20 -20 -20 -20 -20 -20 -20 -20 -20 -20 -20 4 -10 -20 -20 -20 -20 -20 -20 -20 -20
-20 -20 -20 -20 -20 -20 -20 -20 -20 -20 -20 -20 -20 -20 -20 -20 -20 -20 -20 -20 -20 -20 -20 -20 -20 -20 -20 -20 -20 -20 -20 -20 -20 -20 -20 -20 -20 -20 -8 14 -17 13 -14 -20 -20 -20 -20
-20 -20 -20 -20 -20 -20 -20 -20 -20 -20 -20 -20 -20 -20 -20 -20 -20 -20 -20 -20 -20 -20 -20 -20 -20 -20 -20 -20 -20 -20 -20 -20 -20 -20 -20 -20 -20 -20 -20 -8 -10 -5 -4 -20 -1 3 -20
-20 -20 -20 -20 -20 -20 -20 -20 -20 -20 -20 -20 -20 -20 -20 -20 -20 -20 -20 -20 -20 -16 -20 -20 -20 -20 -20 -20 -20 -20 -20 -20 -20 -20 -20 -20 -20 -20 -20 -20 -20 -20 -20 -20 -17 -20 -20
-20 -20 -20 -20 -20 -20 -20 -20 -20 -20 -20 -20 -20 -20 -20 -20 -20 -20 -20 -20 -20 -13 -20 -20 -20 -20 -20 -20 -20 -20 -20 -20 -20 -20 -20 -20 -20 -20 -20 -20 -20 -20 -20 -20 -20 -20 -20
-20 -20 -20 -20 -20 -20 -20 -20 -20 -20 -20 -20 -20 -20 -11 -20 -20 -20 -20 -20 -18 -20 -20 -20 -20 -20 -20 -20 -20 -20 -20 -20 -20 -20 -20 -20 -20 -20 -20 -20 -20 -20 -20 -20 -20 -20 -20
-20 -20 -20 -20 -20 -20 -20 -20 -20 -20 -20 -20 -20 -20 -20 -20 -20 -20 -20 -20 -19 -20 -20 -20 -20 -20 -20 -20 -20 -20 -20 -20 -20 -20 -20 -20 -20 -20 -20 -20 -20 -20 -20 -20 -20 -20 -20
-20 -20 -20 -20 -20 -20 -20 -20 -20 -20 -20 -20 -20 -20 -20 -20 -20 -20 -20 -9 -20 -20 -20 -20 -20 -20 -20 -20 -20 -20 -20 -20 -20 -20 -20 -20 -20 -20 -20 -20 -20 -20 -20 -20 -20 -20 -20
-20 -20 -20 -20 -20 -20 -20 -20 -20 -20 -20 -20 -20 -20 -20 -20 -20 -20 -20 -20 -19 -20 -19 -18 -20 -20 -20 -20 -20 -19 -20 -20 -20 -14 -20 -20 -20 -20 -20 -20 -20 -20 -20 -20 -20 -20 -20
-20 -20 -20 -20 -20 -20 -20 -20 -20 -20 -20 -20 -20 -20 -20 -20 -20 -20 -20 -20 -14 -12 -20 -20 -20 -20 -20 -20 -20 -20 -20 -20 -20 -20 -20 -8 -17 -7 -13 -20 -20 -20 -20 -20 -20 -20 -20
-20 -20 -20 -20 -20 -20 -20 -20 3 -20 -20 -20 -20 -20 -20 -20 -20 -20 -20 -20 -20 -9 -20 -20 9 -10 -20 -20 -20 -20 -20 -20 -20 -20 -20 -20 -20 -16 1 -16 -20 -20 -20 -20 -20 -20 -20
-20 -20 -20 -20 -20 -20 -20 -20 -18 11 -20 -19 -20 -20 -2 -1 -20 -20 -20 -20 -20 -20 -13 -20 -7 -20 -4 -19 -20 -20 -20 -20 -20 -20 -20 -20 -20 -20 -20 -20 -20 -20 -20 -20 -20 -20 -20

GFSGBSN_prec_radar_060.txt.gz
Reflectivity
-20 -3 -14 12 3 1 -6 -20 12 7 6 12 14 13 -0 14 13 -17 -17 -20 -20 8 -20 -20 -20 2 -20 -8 -20 -20 -20 -20 -4 30 32 -20 -20 -20 -20 -20 -20 -20 4 15 21 25 13
-20 -6 -12 9 12 -14 -13 -20 15 -10 2 13 17 11 -5 5 2 -20 -20 -20 -20 -20 -20 -20 -20 -20 -20 -11 -20 4 -20 -20 -5 22 36 7 -20 -2 -20 -20 -20 -20 5 19 12 24 26
-20 -19 -3 -5 -20 -15 -10 -16 11 -12 10 7 16 -0 -12 -18 -20 -20 -20 -20 -20 -20 -20 -20 -20 -20 -20 -20 -20 19 -4 20 -20 6 28 3 -20 3 -20 -20 -20 -20 23 21 18 2 9
-20 -20 -20 -20 -20 -20 -3 -20 -19 7 10 -4 15 8 -12 -20 -20 -20 -20 -20 -20 -20 -20 -20 -20 -20 -20 -20 -20 19 14 -11 -17 6 12 -2 -20 23 -20 -20 13 -20 -1 10 1 12 8
-20 -20 -20 -11 -20 -20 -7 -20 -3 -11 10 9 7 10 5 -20 -20 -20 -20 -20 -20 -20 -20 -20 -20 -20 -20 1 5 3 23 5 -2 2 -7 28 -3 -20 -7 -20 -14 -20 -20 -20 7 6 -11
-20 -20 -20 -20 -20 -20 2 15 4 -1 -3 2 15 5 15 -19 -20 -20 -20 -20 -20 -20 -20 -20 -20 5 11 20 -14 -6 -20 10 26 11 38 29 12 2 -20 -4 -13 -20 -20 -20 0 -2 -20
-20 -20 -20 -20 -20 -20 -7 4 17 13 -4 -1 10 6 9 -20 -20 -20 -20 -20 -20 -20 -20 -20 -19 -20 7 -20 20 25 -20 15 37 41 41 29 -12 -20 -20 -20 -20 -20 -20 -20 -5 2 -8
-20 -20 -20 -20 -20 -18 -5 11 2 6 4 -1 -15 16 -20 -20 -20 -20 -20 -20 -20 -20 -20 -20 -18 -17 3 -20 16 -16 2 19 39 42 8 27 8 -20 -20 -20 -20 -20 -20 -20 -17 -1 -4
-20 -20 -20 -20 -20 -20 -20 -5 -4 3 1 -4 -7 14 -1 -20 -20 -20 -20 -20 -9 -20 -20 -5 -15 -20 -20 -12 11 -11 -20 -17 -4 21 2 2 -20 -20 -6 -20 -20 -20 -20 -20 -20 -20 -20
-20 -20 -20 -20 -20 -20 -20 -18 -20 -5 1 -17 -5 -18 12 -20 -20 -20 -20 -20 -12 -7 -20 7 5 -13 -6 11 32 16 37 23 -3 29 17 7 -3 -20 -20 -20 -20 -20 -20 -20 -20 -20 -20
-20 -20 -20 -20 -20 -20 -20 -20 -20 -20 -2 -20 -18 -20 -20 -3 -20 -20 -20 -20 -20 -16 -19 7 -3 -20 -15 13 26 39 34 37 24 37 6 2 -17 -3 -20 -20 -20 -20 -20 -20 -20 -20 -20
-20 -20 -20 -20 -20 -20 -20 -20 -20 -20 -20 -20 -20 -17 -20 -20 -20 -20 -20 -20 -20 -17 16 24 16 -12 -14 -20 -9 29 38 31 32 11 -1 -20 -20 -20 -20 -20 -20 -20 -20 -20 -20 -20 -13
-20 -20 -20 -20 -14 -20 -20 -20 -20 -20 -20 -20 -20 -20 -20 -20 -20 -20 -20 -20 -20 -20 15 -2 15 -8 -15 6 -1 24 26 26 26 -7 -20 -10 -20 -20 -20 -10 -20 -20 -20 -15 8 -3 -20
-20 -20 -20 -20 -20 -20 -20 -20 -20 -20 -20 -20 -20 -20 -20 -20 -20 -20 -20 -20 -20 -20 -5 7 10 31 -10 -8 4 18 -2 -20 -20 -20 -20 -20 -1 -19 -20 -20 -18 -20 -20 -20 -20 -20 -20
-20 -20 -20 -20 -20 -20 -20 -20 -20 -20 -20 -20 -20 -20 -20 -20 -20 -20 -20 -20 -20 -20 -20 -20 -20 -20 29 10 -7 -10 -20 -20 -20 -20 -20 -20 -20 -20 -20 -20 -20 -17 10 -20 -20 -20 -20
-20 -20 -20 -20 -20 -20 -20 -20 -20 -20 -20 -20 -20 -20 -20 -20 -20 -20 -20 -20 -20 -20 -20 -20 -20 -20 -20 4 -11 -20 -20 -20 -20 -20 -20 -20 -11 -10 -18 -2 8 -16 -20 -20 -20 -20 -20
-20 -20 -20 -20 -20 -20 -20 -20 -20 -20 -20 -20 -20 -20 -20 -20 -20 -20 -20 -20 -20 -20 -20 -20 -20 -20 -20 -20 -20 -18 -20 -20 -20 -20 -20 -20 -20 1 15 18 21 9 -20 -20 -20 -20 -20
-20 -20 -20 -20 -20 -20 -20 -20 -20 -20 -20 -20 -20 -20 -20 -20 -15 -20 -20 -20 -20 -20 -20 -20 -20 -20 -20 -20 -20 -20 -20 -20 -20 -20 -20 -20 -20 -0 -12 -5 -20 -20 -20 -20 -20 -20 -20
-20 -20 -20 -20 -20 -20 -20 -20 -20 -20 -20 -20 -20 -20 -20 -20 -20 -20 -20 -20 -20 -20 -20 -20 -20 -20 -20 -20 -20 -20 -20 -20 -20 -20 -20 -20 -20 -20 -1 -20 -10 14 -20 -20 -20 -20 -20
-20 -20 -20 -20 -20 -20 -20 -20 -20 -20 -20 -20 -20 -20 -20 -20 -20 -20 -20 -20 -20 -20 -20 -20 -20 -20 -20 -20 -20 -20 -20 -20 -20 -20 -20 -20 -20 -20 -20 -20 -20 -20 -20 -20 -20 -20 -20
-20 -20 -20 -20 -20 -20 -20 -20 -20 -20 -20 -20 -20 -20 -20 -20 -20 -20 -20 -20 -20 -20 -20 -20 -20 -20 -20 -20 -20 -20 -20 -20 -20 -20 -20 -20 -20 -20 -20 -20 -20 -20 -20 -20 -20 -20 -20
-20 -20 -20 -20 -20 -20 -20 -20 -20 -20 -20 -20 -20 -20 -20 -20 -20 -20 -20 -20 -6 -20 -20 -20 -20 -20 -20 -20 -20 -20 -20 -20 -20 -20 -20 -20 -20 -20 -20 -20 -20 -20 -20 -20 -20 -20 -20
-20 -20 -20 -20 -20 -20 -20 -20 -20 -20 -20 -20 -20 -20 -20 -20 -20 -20 -20 -20 -20 -16 -13 -20 -20 -20 -20 -20 -20 -20 -20 -20 -20 -20 -20 -20 -20 -20 -20 -20 -20 -20 -20 -20 -20 -20 -20
-20 -20 -20 -20 -20 -20 -20 -20 -20 -20 -20 -20 -20 -20 -20 -20 -20 -20 -20 -20 -20 -20 -20 -20 -20 -20 -20 -20 -20 -20 -20 -20 -20 -20 -20 -20 -20 -20 -20 -20 -20 -20 -20 -20 -20 -20 -20
-20 -20 -20 -20 -20 -20 -20 -20 -20 -20 -20 -20 -20 -20 -20 -20 -20 -20 -20 -20 -20 -20 -19 -20 -20 -20 -20 -20 -20 -20 -20 -20 -20 -20 -20 -20 -20 -20 -20 -20 -20 -20 -20 -20 -20 -20 -20
-20 -20 -20 -20 -20 -20 -20 -20 -20 -20 -20 -20 -20 -20 -20 -20 -20 -20 -20 -20 -13 -19 -20 -20 -20 -20 -20 -20 -20 -20 -20 -20 -20 -20 -20 -20 -20 -20 -20 -20 -20 -20 -20 -20 -20 -20 -20
-20 -20 -20 -20 -20 -20 -20 -20 -12 -20 -20 -20 -20 -20 -20 -20 -20 -20 -20 -20 -20 -20 -20 15 -20 -20 -20 -20 -20 -20 -20 -20 -20 -20 -20 -20 -20 -20 -11 -20 -20 -20 -20 -20 -20 -20 -20
-20 -20 -20 -20 -20 -20 -20 -20 -19 -20 -20 -20 -20 -20 -20 -18 -20 -20 -20 -20 -20 -20 -20 3 -17 -18 -19 -20 -20 -20 -20 -20 -20 -20 -20 -20 -20 -13 4 -18 -20 -20 -20 -20 -20 -20 -20
-20 -20 -20 -20 -18 -20 -20 -20 -20 8 -20 -20 -20 -20 -20 -20 -20 -20 -20 -20 -20 -20 -20 -20 23 22 28 -16 -20 -20 -20 -20 -20 -20 -20 -20 -20 -20 -20 -20 -20 -20 -20 -20 -20 -20 -20

GFSGBSN_prec_radar_063.txt.gz
Reflectivity
-13 -20 -20 -20 -14 -18 -16 -18 -20 5 11 11 3 -9 -11 6 7 -20 -20 -20 -20 -20 -20 -20 -20 -20 -20 -6 -20 -8 10 -20 10 11 10 15 -6 -20 -19 -12 -9 -20 -4 8 25 21 12
-20 -20 -20 -20 -16 -20 -0 -8 -20 3 7 11 3 -20 -12 16 1 -20 -20 -20 -20 -20 -20 -20 -20 -20 -20 -20 -20 -20 -20 -20 -5 -20 16 14 -20 -20 -18 -4 2 -19 -16 23 23 18 16
-20 -20 -20 -20 -20 -3 11 5 -3 -8 15 16 5 1 -3 2 -8 -20 -20 -20 -20 -20 -20 -20 -20 -20 -20 -20 -20 -20 2 -20 6 -18 20 35 -17 -20 -20 -11 1 -18 8 2 25 18 -2
-20 -20 -20 -20 -20 -4 -6 12 15 0 -20 16 8 9 8 1 -20 -20 -20 -20 -20 -16 -20 -11 -4 -20 -20 -20 -20 -20 9 -20 -20 -20 11 30 -17 2 -18 -20 3 -15 10 9 1 12 8
-20 -20 -20 -20 -20 -8 -17 17 17 11 9 -8 10 11 12 -19 -20 -20 -20 -20 -20 -20 -20 -6 -20 -20 -20 -20 -20 3 15 -11 -3 10 22 38 24 -20 -1 -7 -20 -7 -20 -20 -10 6 5
-20 -20 -20 -20 -20 -12 -15 14 17 14 17 1 -1 8 15 -12 2 -20 -20 -20 -20 -20 -20 -20 -20 -20 -16 -17 21 21 23 20 16 26 38 40 24 10 -20 -8 -17 -19 -20 -20 -20 -11 -6
-20 -20 -20 -20 -20 -20 -7 -3 -18 18 12 12 -1 13 17 -4 -20 -20 -20 -16 -20 -20 -20 -20 -20 -20 5 17 11 -3 -20 -11 12 27 32 40 -12 4 -20 -20 -20 -20 -20 -20 -20 -12 12
-20 -20 -20 -20 -20 -20 -20 -4 -3 14 16 -3 -3 5 11 -9 -20 -20 -20 -20 -20 -20 -20 -20 -20 -20 -20 10 11 -15 -20 -20 -19 -8 15 39 -7 -20 -20 -20 -20 -20 -20 -20 -20 -20 1
-20 -20 -20 -20 -20 -20 -20 -10 -13 0 14 2 -6 3 11 -9 -20 -20 -20 -20 -12 -20 -3 -20 -20 -20 -20 -18 -12 -16 -20 3 23 8 33 30 -13 6 7 -20 -20 -20 -20 -20 -20 -20 -18
-20 -20 -20 -20 -20 -20 -20 -20 -19 -2 2 1 -18 11 12 -9 -20 -20 -20 -20 -20 -20 -20 8 -8 -15 -20 -20 3 -20 -10 13 36 7 38 26 1 -14 11 -17 -20 -20 -20 -20 -20 -20 -20
-20 -20 -20 -20 -20 -20 -20 -20 -20 -5 -1 -20 -20 16 12 6 -20 -20 -20 -20 -20 -20 -19 -20 -6 -9 -20 -17 -18 12 11 29 39 39 19 14 -20 -20 -20 -20 -20 -20 -20 -20 -20 -20 -20
-20 -20 -20 -20 -20 -20 -20 -20 -20 -20 -20 -20 -20 -6 -20 -20 -20 -20 -20 -20 -20 -20 -20 -18 -16 -20 -20 -19 1 24 24 13 34 13 7 -17 -20 -20 -20 -20 -20 -20 -20 -20 -20 -20 -20
-20 -20 -20 -20 -20 -20 -20 -20 -20 -20 -20 -20 -20 -20 -20 -20 -20 -20 -20 -20 -20 -20 -20 -9 10 -14 3 17 14 8 30 -3 21 27 17 7 -20 -20 -20 -14 -20 -20 -20 -20 -9 -20 -20
-20 -20 -20 -20 -20 -20 -20 -20 -20 -20 -20 -20 -20 -20 -20 -20 -20 -20 -20 -20 -20 -20 -20 -20 -3 -20 7 16 30 18 27 -2 -20 -8 -15 -16 8 -20 -20 -20 -19 -20 -20 -20 -20 -20 -20
-20 -20 -20 -20 -20 -20 -20 -20 -20 -20 -20 -20 -20 -20 -20 -20 -20 -20 -20 -20 -20 -20 -20 -20 -20 -17 -4 -17 -18 -4 -6 6 2 -19 -17 -20 -20 -20 -20 -20 -20 -16 -20 -20 -20 -20 -20
-20 -20 -20 -20 -20 -20 -20 -20 -20 -20 -20 -20 -20 -20 -20 -20 -20 -20 -20 -20 -20 -20 -20 -20 -20 -20 -19 -10 -20 -20 -20 -20 -20 -20 -20 -20 -20 -20 -20 -20 -20 -20 -20 -16 -20 -20 -20
-20 -20 -20 -20 -20 -20 -20 -20 -20 -20 -20 -20 -20 -20 -20 -20 -20 -20 -20 -20 -20 -20 -20 -20 -20 -20 -20 -20 -20 -20 -20 -20 -20 -20 -20 -20 -20 -13 -11 4 -14 -20 -16 -20 -20 -20 -20
-20 -20 -20 -20 -20 -20 -20 -20 -20 -20 -20 -20 -20 -20 -20 -20 -20 -8 -20 -20 -20 -20 -20 -20 -20 -20 -20 -20 -20 -20 -20 -20 -20 -20 -20 -20 -20 -20 5 -4 9 7 5 -20 -20 -20 -20
-20 -20 -20 -20 -20 -20 -20 -20 -20 -20 -20 -20 -20 -20 -20 -20 -20 -20 -20 -20 -20 -20 -20 -20 -20 -20 -20 -20 -20 -20 -20 -20 -20 -20 -20 -20 -20 -20 -20 -16 -5 21 14 -19 -20 -20 -20
-20 -20 -20 -20 -20 -20 -20 -20 -20 -20 -20 -20 -20 -20 -20 -20 -20 -20 -20 -20 -20 -20 -20 -20 -20 -20 -20 -20 -20 -20 -20 -20 -20 -20 -20 -20 -20 -20 -20 -20 -20 -20 -11 -18 -20 -20 -20
-20 -20 -20 -20 -20 -20 -20 -20 -20 -20 -20 -20 -20 -20 -20 -20 -20 -20 -20 -20 -20 -20 -20 -20 -20 -20 -20 -20 -20 -20 -20 -20 -20 -20 -20 -20 -20 -20 -20 -20 -20 -20 -20 -20 -20 -20 -20
-20 -20 -20 -20 -20 -20 -20 -20 -20 -20 -20 -20 -20 -20 -20 -20 -20 -20 -20 -20 -20 -20 -20 -20 -20 -20 -20 -20 -20 -20 -20 -20 -20 -20 -20 -20 -20 -20 -20 -20 -20 -20 -20 -20 -20 -20 -20
-20 -20 -20 -20 -20 -20 -20 -20 -20 -20 -20 -20 -20 -20 -20 -20 -20 -20 -20 -20 -20 -20 -20 -20 -20 -20 -20 -20 -20 -20 -20 -20 -20 -20 -20 -20 -20 -20 -20 -20 -20 -20 -20 -20 -20 -20 -20
-20 -20 -20 -20 -20 -20 -20 -20 -20 -20 -20 -20 -20 -20 -20 -20 -20 -20 -20 -20 -20 -20 -20 -20 -20 -20 -20 -20 -20 -20 -20 -20 -20 -20 -20 -20 -20 -20 -20 -20 -20 -20 -20 -20 -20 -20 -20
-20 -20 -20 -20 -20 -20 -20 -20 -20 -20 -20 -20 -20 -20 -20 -20 -20 -20 -20 -20 -20 -20 -20 -20 -20 -20 -20 -20 -20 -20 -20 -20 -20 -20 -20 -20 -20 -20 -20 -20 -20 -20 -20 -20 -20 -20 -20
-20 -20 -20 -20 -20 -20 -20 -20 -20 -20 -20 -20 -20 -20 -20 -20 -20 -20 -20 -20 -20 -20 -20 -20 -20 -20 -20 -20 -20 -20 -20 -20 -20 -20 -20 -20 -20 -20 -20 -20 -20 -20 -20 -20 -20 -20 -20
-20 -20 -20 -20 -20 -20 -20 -20 -20 -20 -20 -20 -20 -20 -20 -20 -20 -20 -20 -20 -20 -20 -20 -20 -19 5 -20 -20 8 -13 -20 -20 -20 -20 -20 -20 -20 -19 -20 -17 -20 -20 -20 -20 -20 -20 -20
-20 -20 -20 -20 -16 -20 -20 -20 -20 -20 -20 -20 -20 -20 -20 -20 -20 -20 -20 -20 -20 -20 -20 -8 19 -6 -1 -16 7 -15 -20 -20 -20 -20 -20 -20 -11 -6 3 7 -16 -20 -20 -20 -20 -20 -20
-15 -20 -20 -6 -1 -20 -20 -20 -20 -20 -20 -20 -20 -20 -20 -4 -20 -20 -20 -20 -20 -20 -20 -20 9 28 19 5 -20 -20 -20 -20 -20 -20 -20 -20 -20 -20 -20 -20 -20 -20 -20 -20 -20 -20 -20

GFSGBSN_prec_radar_066.txt.gz
Reflectivity
-20 -20 -20 -5 -7 12 12 17 6 -20 -17 -19 6 20 -20 -10 1 -20 -20 -20 -12 -20 -20 -20 -20 -7 -20 -20 -18 -20 -20 -20 -1 27 -2 17 14 -20 -19 2 -20 -20 -20 1 13 29 -6
-20 -20 -20 -20 -3 14 14 17 15 8 -20 -2 1 14 -20 -1 -0 -20 -20 -20 -20 -20 -20 -20 -20 -6 -20 -20 -20 -20 -20 -1 -7 18 -20 21 14 -20 -18 -5 10 -20 2 -20 22 30 11
-20 -20 -20 -20 -6 9 10 13 11 9 12 -20 10 -8 -11 -20 -5 -20 -20 -20 -20 -20 -20 -20 -20 -20 -20 -20 -20 -20 -20 1 7 7 -20 18 15 4 -20 6 -20 -20 14 -11 21 22 -3
-20 -20 -20 -20 -2 -1 16 9 14 5 8 8 -5 15 12 7 5 -20 -20 -6 6 -20 -20 -20 19 -20 -20 -20 -20 -20 -20 -20 -19 -17 -20 28 22 -5 22 -20 -20 15 14 16 4 30 32
-20 -20 -20 -20 -14 4 12 -18 -7 16 10 10 -6 8 3 15 -7 -15 -20 -20 -20 -20 -20 -20 -20 -20 -20 -20 -20 -20 -20 -20 -9 28 -18 15 29 -20 18 9 -7 26 -18 -20 -20 14 8
-20 -20 -20 -20 -20 -4 2 -6 -1 15 13 7 9 -0 14 15 4 -3 -20 -20 -20 -20 -20 -20 -20 -20 -20 -9 8 -20 -20 -0 2 22 -8 12 41 -12 7 2 -20 -20 -20 -20 -20 -20 -20
-20 -20 -20 -20 -20 -20 0 -1 -3 -2 4 8 12 2 14 17 8 3 -20 -20 -20 -20 -20 -20 -20 -11 -20 12 -20 21 30 3 -2 23 21 34 38 -14 -20 -20 -20 -20 -20 -20 -20 -20 -18
-20 -20 -20 -20 -20 -20 -9 -2 -20 -12 16 8 12 7 15 16 -1 -11 -20 -20 -20 -20 -20 -20 -20 -20 -20 13 30 9 -19 -11 39 12 3 38 27 -20 -20 -20 -20 -20 -20 -20 -20 -20 -20
9 -20 -20 -20 -20 -20 -7 -6 -20 -20 -10 12 -3 13 14 17 -20 -20 -20 -20 -20 -20 -16 6 15 -20 -5 -4 8 -20 -20 28 27 22 34 25 -13 2 12 -20 -20 -20 -20 -20 -20 -20 -20
7 -20 -20 -20 -20 -20 -20 -18 -20 -20 -8 0 -3 17 11 13 -20 -20 -20 -20 -20 -20 -20 19 -7 14 -10 -20 6 -19 -20 -19 -15 31 30 30 -20 -14 15 1 -20 -20 -20 -20 -20 -20 -20
-19 -20 -20 -20 -20 -20 -20 -20 -20 -20 -20 -4 -18 16 7 1 -20 -20 -20 -20 -20 -20 -20 -20 -11 18 -16 -6 -20 -20 -20 -20 8 22 28 31 -13 -20 10 -4 -20 -20 -20 -20 -20 -20 -20
-20 -20 -20 -20 -20 -20 -20 -20 -20 -20 -20 -20 -20 -4 -5 -20 -20 -20 -20 -20 -20 -20 -20 -20 -2 -14 5 11 -20 -20 -2 -18 2 6 24 9 -4 -20 -4 -20 -20 -20 -20 -20 -20 -20 -20
-20 -20 -20 -20 -20 -20 -20 -20 -20 -20 -20 -20 -20 -20 -20 -20 -20 -20 -20 -20 -20 -20 -20 -20 -15 -20 -1 7 9 -12 -6 3 31 25 36 24 19 -20 -20 -2 -20 -20 -20 -20 -20 -20 -20
-20 -20 -20 -20 -20 -20 -20 -20 -20 -20 -20 -20 -20 -20 -20 -20 -20 -20 -10 -20 -20 -20 -20 -13 14 -20 -4 6 18 17 17 29 18 -14 1 11 15 -16 -20 -20 -16 -20 -20 -20 -20 -20 -20
-20 -20 -20 -20 -20 -20 -20 -20 -20 -20 -20 -20 -20 -20 -20 -20 -20 -20 -20 -20 -20 -20 -20 -20 -9 -20 -17 -20 -12 6 -20 -20 -16 -20 -9 -20 -12 -20 -20 -20 -20 -20 -20 -20 -20 -20 -20
-20 -20 -20 -20 -20 -20 -20 -20 -20 -20 -20 -20 -20 -20 -20 -20 -20 -14 -20 -20 -20 -20 -20 -20 -20 -20 -18 -15 -20 -20 -20 -20 -20 -20 -20 -20 -14 -20 -20 -20 -20 -20 -20 -11 -20 -20 -20
-20 -20 -20 -20 -20 -20 -20 -20 -20 -20 -20 -20 -20 -20 -20 -20 -17 -20 -20 -20 -20 -20 -20 -20 -20 -20 -20 -20 -20 -20 -20 -20 -20 -20 -20 -20 -20 -5 -20 -20 -20 -20 -20 -20 -20 -20 -20
-20 -20 -20 -20 -20 -20 -20 -20 -20 -20 -20 -20 -20 -20 -20 -20 -10 -8 -20 -20 -20 -20 -20 -20 -20 -20 -20 -20 -20 -20 -20 -20 -20 -20 -20 -20 -20 -9 -18 -20 -20 -20 -20 -20 -20 -20 -20
-20 -20 -20 -20 -20 -20 -20 -20 -20 -20 -20 -20 -20 -20 -20 -20 -20 -20 -20 -20 -20 -20 -20 -20 -20 -20 -20 -20 -20 -20 -20 -20 -20 -20 -20 -20 -20 -8 -8 -20 -20 -20 -16 -18 -20 -20 -20
-20 -20 -20 -20 -20 -20 -20 -20 -20 -20 -20 -20 -20 -20 -20 -20 -20 -20 -20 -20 -20 -20 -20 -20 -20 -20 -20 -20 -20 -20 -20 -20 -20 -20 -20 -20 -20 -20 -20 -20 -20 -1 -19 -9 -14 5 -8
-20 -20 -20 -20 -20 -20 -20 -20 -20 -20 -20 -20 -20 -20 -20 -20 -20 -20 -20 -20 -20 -20 -20 -20 -20 -20 -20 -20 -20 -20 -20 -20 -20 -20 -20 -20 -20 -20 -20 -20 -20 -20 -20 -20 4 -18 -8
-20 -20 -20 -20 -20 -20 -20 -20 -20 -20 -20 -20 -20 -20 -20 -20 -20 -20 -20 -20 -20 -20 -20 -20 -20 -20 -20 -20 -20 -20 -20 -20 -20 -20 2 7 -20 -20 -20 -20 -20 -20 -20 -20 -20 -20 -20
-20 -20 -20 -20 -20 -20 -20 -20 -20 -20 -20 -20 -20 -20 -20 -20 -20 -20 -20 -20 -20 -20 -20 -20 -20 -20 -20 -20 -20 -20 -20 -20 -20 -20 -20 -20 -20 -20 -20 -20 -20 -20 -20 -20 -20 -20 -20
-20 -20 -20 -20 -20 -20 -20 -20 -20 -20 -20 -20 -20 -20 -20 -20 -20 -20 -20 -20 -20 -20 -20 -20 -20 -20 -20 -20 -20 -20 -20 -20 -20 -20 -20 -20 -20 -20 -20 -20 -20 -20 -20 -20 -20 -20 -20
-20 -20 -20 -20 -20 -20 -20 -20 -20 -20 -20 -20 -20 -20 -20 -20 -20 -20 -20 -20 -20 -20 -20 -20 -19 -20 -20 -20 -20 -20 -20 -20 -20 -20 -20 -20 -20 -20 -20 -20 -20 -20 -20 -20 -20 -20 -20
-16 -20 -20 -20 -20 -20 -20 -20 -20 -20 -20 -20 -20 -20 -20 -20 -20 -20 -20 -20 -20 -20 -20 -20 -20 -18 -20 -20 -20 -20 -20 -20 -20 -20 -20 -20 -20 -20 -20 -20 -20 -20 -20 -20 -20 -20 -20
-7 -20 -20 -20 -20 -20 -20 -20 -20 -20 -20 -20 -20 -20 -20 -20 -20 -20 -20 -20 -20 -20 -20 -20 -20 -20 -6 -20 -3 -10 -19 -20 -20 -20 -20 -20 -20 -20 -19 -20 -20 -20 -20 -20 -20 -20 -20
-17 -20 -20 -20 -20 -20 -20 -20 -20 -20 -20 -20 -20 -20 -20 -20 -20 -20 -20 -20 -20 -20 -20 -20 -20 -16 34 -11 -8 -20 -20 -20 -20 -20 -20 -20 -20 -14 -9 3 -16 -20 -20 -20 -20 -20 -20
-20 -20 -20 -20 -20 -20 -20 -20 -20 -20 -20 -20 -20 -20 -20 -20 -20 -20 -20 -20 -20 -20 -20 -20 -13 24 22 19 -2 -20 -20 -20 -20 -20 -20 -20 -20 -20 -20 -20 -20 -20 -20 -20 -20 -20 -20

GFSGBSN_prec_radar_069.txt.gz
Reflectivity
-20 -20 -20 -20 -4 -3 -8 13 13 12 10 -10 -9 0 13 -20 -5 -20 -20 -20 -3 -13 -20 -20 -20 -12 -17 15 -1 -20 -20 -20 -20 11 19 9 8 -20 -18 -7 14 5 25 1 6 -20 -1
-20 -20 -20 -20 -6 5 -20 15 12 13 -15 14 -20 -20 1 -1 -6 -20 -9 -9 -1 3 -20 -20 -20 -16 -20 -20 -20 -20 -20 -20 -20 -9 12 18 24 -20 -18 5 12 5 11 16 -19 -15 7
-20 1 -20 -20 -20 -7 7 4 10 9 13 6 14 -16 4 11 -4 10 -15 -3 9 -7 -14 -20 -20 -20 -20 -20 -20 -20 -20 -20 -20 9 4 -1 20 12 -1 5 -6 10 10 -6 25 20 13
-20 -19 -20 -20 -20 -20 -15 -15 -19 16 7 14 16 5 1 8 9 -7 -15 -20 -18 -20 -20 -20 -20 -20 -20 -20 -20 -20 -20 -20 -20 30 -10 -12 31 -3 -19 -20 10 12 19 -18 7 10 -10
9 -20 -20 -20 -20 -7 -20 -20 -13 -3 13 8 15 16 -14 8 8 -13 -3 -20 -20 -20 -20 -20 -20 -20 -20 -20 -20 -20 -20 -20 -20 15 -6 11 18 28 -20 11 -2 17 -8 -6 -1 7 -20
-1 -20 -20 -20 -20 -19 -20 -20 -20 -2 14 15 16 17 -15 14 9 -20 1 -20 -20 -20 -20 -20 -20 -20 -20 -20 -20 -20 -20 -20 8 24 30 28 40 30 -20 2 -17 -16 -20 -20 -16 4 -12
17 -20 5 -20 -20 -20 -8 -18 -20 -10 16 5 15 12 13 15 9 -13 -20 -20 -20 -20 -20 -20 -20 -20 19 16 -20 4 -20 -18 21 24 25 10 37 25 -20 -20 -20 -20 -20 -20 -20 -20 -16
-7 -20 5 -20 -20 -20 -15 -18 -20 -7 14 11 15 14 15 12 3 -1 -20 -20 -20 -20 -20 -20 -20 -20 6 21 9 13 -20 -17 16 22 18 31 35 -10 -20 -20 -20 -20 -20 -20 -20 -20 -16
12 7 -8 -20 -20 -20 -20 -13 -20 -20 9 15 15 13 16 11 -20 -20 -20 -20 -20 -20 -20 19 2 -20 -17 24 12 12 -0 1 9 6 -20 9 0 -16 1 -20 5 -20 -20 -20 -20 -20 -20
2 -0 -12 -20 -20 -20 -20 -20 -20 -20 4 13 5 16 10 -18 -20 -20 -20 -20 -20 -20 -20 13 21 19 12 4 -6 -20 -20 29 36 9 -4 -8 -3 -20 6 -2 -15 -20 -20 -20 -20 -20 -15
-19 -20 -20 -20 -20 -20 -20 -20 -20 -20 -20 1 5 16 6 -20 -20 -20 -20 -20 -20 -20 -20 -20 -20 -7 3 12 -19 -3 -19 12 16 14 19 19 9 3 14 -1 -20 -20 -20 -20 -20 -20 -20
-1 -20 -20 -20 -20 -20 -20 -20 -20 -20 -20 -20 2 9 1 -20 -20 -20 -20 -20 -20 -20 -20 -20 -16 20 15 1 6 -2 8 -1 15 17 31 -0 -18 1 -5 -20 -20 -20 -20 -20 -20 -20 -20
9 -20 -20 -20 -20 -20 -20 -20 -20 -20 -20 -20 -20 -20 -20 -20 -20 -20 -20 -20 -20 -20 -20 -19 2 17 21 10 6 -3 -9 -2 22 19 30 3 11 17 22 5 -14 -20 -20 -20 -20 -20 -20
-0 -20 -20 -20 -20 -20 -20 -20 -20 -20 -20 -20 -20 -20 -20 -20 -20 -13 9 -20 -20 -20 -20 -20 1 -14 18 9 11 13 -20 5 -19 -20 11 29 17 -5 -20 -19 -17 -20 -20 -20 -20 -20 -20
13 -20 -20 -20 -20 -20 -20 -20 -20 -20 -20 -20 -20 -20 -20 -20 -20 -20 -18 -20 -20 -20 -20 -20 -14 -20 -20 -20 4 -18 -20 -18 -20 -20 -20 -20 15 -17 -20 -9 -20 -20 -20 -20 -20 -20 -20
-20 -20 -20 -20 -20 -20 -20 -20 -20 -20 -20 -20 -20 -20 -20 -20 -16 -2 -16 -20 -20 -20 -20 -20 -20 -20 -20 -20 -20 -20 -20 -20 -20 -20 -20 -20 -17 -20 -20 -20 -20 -20 -20 -20 -20 -20 -20
-20 -20 -20 -20 -20 -20 -20 -20 -20 -20 -20 -20 -20 -20 -20 -20 -4 -17 -20 -20 -20 -20 -20 -20 -20 -20 -20 -20 -20 -20 -20 -20 -20 -20 -20 -20 -20 -9 -15 -17 -20 -20 -20 -20 -20 -20 -20
-20 -20 -20 -20 -20 -20 -20 -20 -20 -20 -20 -20 -20 -20 -20 -20 -20 1 -20 -20 -20 -20 -20 -20 -20 -20 -20 -20 -20 -20 -20 -20 -20 -20 -20 -20 -20 -20 -20 -20 -20 -20 -20 -20 -20 -20 -20
-20 -20 -20 -20 -20 -20 -20 -20 -20 -20 -20 -20 -20 -20 -20 -2 -20 -20 -20 -20 -20 -20 -20 -20 -20 -20 -20 -20 -20 -20 -20 -20 -20 -20 -20 -20 -20 -20 -16 -20 -20 -18 -20 -20 -20 -20 -20
-15 -20 -20 -20 -20 -20 -20 -20 -20 -20 -20 -20 -20 -20 -20 -20 -20 -20 -20 -20 -20 -20 -20 -20 -20 -20 -20 -20 -20 -20 -20 -20 -20 -20 -20 -20 -20 -20 -20 -20 -20 -20 -20 -20 -20 -20 -20
-19 -20 -20 -20 -20 -20 -20 -20 -20 -20 -20 -20 -20 -20 -20 -20 -20 -20 -20 -20 -20 -20 -20 -20 -20 -20 -20 -20 -20 -20 -20 -20 -20 -20 -20 -20 -20 -20 -20 -20 -20 -20 -20 -20 -12 -20 -9
-20 -20 -20 -20 -20 -20 -20 -20 -20 -20 -20 -20 -20 -20 -20 -20 -20 -20 -20 -20 -20 -20 -20 -20 -20 -20 -20 -20 -20 -20 -20 -20 -20 -20 -20 -20 -20 -20 -20 -20 -20 -20 -20 -20 -20 -20 -20
-19 -20 -20 -20 -20 -20 -20 -20 -20 -20 -20 -20 -20 -20 -20 -20 -20 -20 -20 -20 -20 -20 -20 -20 -20 -20 -20 -20 -20 -20 -20 -20 -20 -20 -20 -16 -17 -20 -20 -20 -20 -20 -20 -20 -20 -20 -20
-20 -20 -20 -20 -20 -20 -20 -20 -20 -20 -20 -20 -20 -20 -20 -20 -20 -20 -20 -20 -20 -20 -20 -20 -20 -20 -20 -20 -20 -20 -20 -20 -20 -20 -20 -20 -20 -20 -20 -20 -20 -20 -20 -20 -20 -20 -20
-1 -1 -20 -20 -20 -20 -20 -20 -20 -20 -20 -20 -20 -20 -20 -20 -20 -20 -20 -20 -20 -20 -20 -20 -13 -20 -20 -20 -20 -20 -20 -20 -20 -20 -20 -20 -20 -20 -20 -20 -20 -20 -20 -20 -20 -20 -20
6 -10 -20 -20 -20 -20 -20 -20 -20 -20 -20 -20 -20 -20 -20 -20 -20 -20 -20 -20 -20 -20 -20 -20 -20 10 -15 -19 -18 -20 -20 -20 -20 -20 -20 -20 -20 -20 -20 -20 -20 -20 -20 -20 -20 -20 -20
24 -4 -20 -20 -20 -20 -20 -20 -20 -20 -20 -20 -20 -20 -20 -20 -20 -20 -20 -20 -20 -20 -20 -20 -20 -20 -12 -3 7 -19 -19 -20 -20 -20 -20 -20 -20 -20 -20 -20 -20 -20 -20 -20 -20 -20 -20
16 -6 -18 -20 -20 -20 -20 -20 -20 -20 -20 -20 -20 -20 -20 -20 -20 -20 -20 -20 -20 -20 -20 -20 -16 -20 -18 -3 7 -20 -20 -20 -20 -20 -20 -20 -20 -20 -19 -13 -16 -20 -20 -20 -20 -20 -20
11 5 -17 -20 -20 -20 -20 -20 -20 -20 -20 -20 -20 -20 -20 -20 -20 -20 -20 -20 -20 -20 -20 -20 -20 -16 -6 17 14 -20 -20 -20 -20 -20 -20 -20 -20 -20 -20 -20 -20 -20 -20 -20 -20 -20 -20

GFSGBSN_prec_radar_072.txt.gz
Reflectivity
-20 -20 -20 -20 -20 -20 -20 -17 -7 -3 7 2 13 -20 -3 9 -13 -20 -20 -13 -15 -20 -20 -20 -20 -20 -20 -16 15 -8 -20 -20 -20 -20 -6 18 10 22 -15 -20 -10 1 6 -1 -20 -20 -20
-19 -20 -20 -20 -20 -20 -20 -18 -20 5 -6 7 14 9 -20 2 0 -20 -1 -17 4 -1 -20 -20 -20 -20 -20 -20 1 -20 -20 -20 -18 -20 7 -4 7 -20 -20 -19 1 -19 15 2 -20 -20 -20
-19 -20 -20 -20 -20 -20 -20 -20 -20 -5 1 6 15 11 -20 -20 8 -19 6 -20 -15 -12 -20 -20 -20 -20 -20 -20 -20 -20 -20 -20 -20 -18 6 15 29 22 -20 -13 -20 19 17 -15 24 -19 3
10 6 -17 -20 -20 -20 -20 -20 -19 -5 9 11 12 12 10 -20 -3 -18 -20 -20 -20 -20 -20 -20 -20 -20 -20 -20 -20 -20 -20 -20 -20 -20 -20 9 19 24 -12 -15 -20 -7 18 -4 18 25 13
19 13 -20 -16 -20 -20 -20 -20 -12 -11 2 12 14 10 7 -18 -0 -10 -20 5 -20 -20 -20 -20 -20 -20 -20 -20 -20 -20 -20 -20 -20 -20 -20 28 11 18 22 19 4 20 -19 -1 -1 -20 -5
23 -11 -16 -6 -16 -20 -20 -20 -20 -6 -5 13 14 8 13 12 9 -1 -17 -20 -20 -20 -20 -20 -20 -20 -20 -1 -20 -20 -20 -20 -2 -12 5 24 20 26 14 17 -12 -19 -2 -3 2 6 7
12 -10 -20 12 -16 -20 -20 -20 -20 -15 -14 10 14 3 13 14 12 -9 -20 -20 -20 -20 -20 -20 -20 -20 11 -20 -20 -11 -20 -20 23 -3 37 27 28 35 -20 -20 -20 -14 2 8 5 -20 -12
10 14 -4 12 -20 -20 -20 -20 -20 -20 -6 12 12 12 10 5 9 -1 -20 -20 -20 -20 -20 -20 -20 -20 2 -5 -2 -7 -20 8 11 37 22 6 28 25 -12 0 -20 -14 -19 11 16 -17 7
-10 1 10 12 -20 -20 -20 -20 -20 -20 -16 5 9 7 15 12 -13 -20 -20 -20 -20 -20 -20 -20 11 9 22 31 17 25 14 5 13 39 -5 -12 21 17 17 -20 -20 -0 -20 3 -20 7 8
3 6 -5 -19 -20 -20 -20 -20 -20 -20 -14 -3 8 7 -2 10 -18 -20 -20 -20 -20 -20 -20 -2 12 -11 11 3 23 24 6 -7 -12 16 19 17 -4 -2 15 -3 -17 -1 -20 -20 -20 -20 -16
22 -12 -20 1 -20 -20 -20 -20 -20 -20 -20 1 -12 13 13 -20 -20 -20 -20 -20 -20 -20 -20 -20 2 -20 19 13 -10 16 23 6 9 -3 -20 8 4 12 20 -20 -20 -17 -20 -20 -20 -20 -20
13 8 -20 -12 -20 -20 -20 -20 -20 -20 -20 -7 -19 14 7 -20 -20 -20 -20 -20 -20 -20 -19 -20 -9 -1 8 2 -8 -20 23 21 9 4 9 -7 13 21 22 -20 -20 -20 -20 -20 -16 -1 -15
10 -2 -9 -6 -20 -20 -20 -20 -20 -20 -20 -20 -20 -20 -20 -20 -20 -20 -20 -20 -20 -20 -20 -19 -5 -1 15 -7 6 14 11 10 16 2 10 15 -5 -20 -18 -7 -20 -12 -19 9 2 1 -12
8 3 15 -20 -20 -20 -20 -20 -20 -20 -20 -20 -20 -7 -20 -20 -20 -20 -19 -20 -20 -20 -20 -17 5 -3 13 13 4 14 1 15 13 5 2 16 19 20 -20 18 -16 12 -20 -18 -20 -4 -20
7 5 6 -13 -20 -20 -20 -20 -20 -20 -20 -20 -20 -20 -20 -20 -20 -8 -20 -20 -20 -20 -20 -20 8 -2 -9 8 0 5 3 -4 -20 -20 -2 -20 9 -5 10 -10 -20 9 6 -20 -20 -20 -20
4 14 -0 -20 -20 -20 -20 -20 -20 -20 -20 -20 -20 -20 -20 -20 -20 -18 -20 -20 -20 -20 -20 -20 -20 -20 -19 -17 -4 -9 9 -20 -20 -20 -20 -20 4 -10 -20 -16 -20 -4 -20 -9 -20 -20 -20
25 15 -19 -20 -20 -20 -20 -20 -20 -20 -20 -20 -20 -20 -20 -20 -18 -20 -20 -20 -20 -20 -20 -20 -20 -20 -20 -20 -20 -20 -19 -20 -20 -20 -20 -20 -20 3 -3 -6 17 -18 -20 -20 -20 -20 -20
31 -6 -2 -20 -20 -20 -20 -20 -20 -20 -20 -20 -20 -20 -20 -1 -18 -12 -20 -20 -20 -20 -20 -20 -20 -20 -20 -20 -20 -20 -20 -20 -20 -20 -20 -20 -20 2 2 -20 -20 -20 4 -20 -1 -19 -20
33 -6 -11 -20 -20 -20 -20 -20 -20 -20 -20 -20 -20 -14 -20 -5 -20 -20 -20 -20 -20 -20 -20 -20 -20 -20 -20 -20 -20 -20 -20 -20 -20 -20 -20 -20 -20 -17 -19 -20 -20 -20 -20 -20 -20 -20 -20
25 -13 -9 -20 -20 -20 -20 -20 -20 -20 -20 -20 -20 -20 -20 -16 -20 -20 -20 -20 -20 -20 -20 -20 -20 -20 -20 -20 -20 -20 -20 -20 -20 -20 -20 -20 -20 -20 -20 -20 -20 -20 -20 -20 -20 -10 -20
31 11 20 -20 -20 -20 -15 -20 -20 -20 -20 -20 -20 -20 -20 -20 -20 -20 -20 -20 -20 -20 -20 -20 -20 -20 -20 -20 -20 -20 -20 -20 -20 -20 -20 -20 -20 -20 -20 -20 -20 -20 -20 -20 -20 -20 -20
33 19 16 2 -20 -20 -18 -20 -20 -20 -20 -20 -20 -20 -20 -20 -20 -20 -20 -20 -20 -20 -20 -20 -20 -20 -20 -20 -20 -20 -20 -20 -20 -20 -20 -20 -20 -20 -20 -20 -20 -20 -20 -20 -20 -20 -20
29 33 13 9 -14 -20 -20 -20 -20 -20 -20 -20 -20 -20 -20 -20 -20 -20 -20 -20 -20 -20 -20 -20 -20 -20 -20 -20 -20 -20 -20 -20 -20 -20 -20 -20 -20 -20 -20 -20 -20 -20 -20 -20 -20 -20 -20
33 27 15 3 3 -20 -12 -17 -14 -20 -20 -20 -20 -20 -20 -20 -20 -20 -20 -20 -20 -20 -20 -20 -20 -20 -20 -20 -20 -20 -20 -20 -20 -20 -20 -20 -11 22 -20 -20 -20 -20 -20 -20 -20 -20 -20
31 29 9 -7 15 -20 -0 3 -6 -20 -20 -20 -20 -20 -20 -20 -20 -20 -20 -20 -20 -20 -20 -20 -20 -20 -20 -20 -20 -14 -20 -20 -20 -20 -20 -20 -20 -20 -20 -20 -20 -20 -20 -20 -20 -20 -20
29 29 14 -1 12 -14 -13 -20 2 -20 -20 -20 -20 -20 -20 -20 -20 -20 -20 -20 -20 -20 -20 -20 -20 -12 -20 -14 6 13 -16 -20 -20 -20 -20 -20 -20 -20 -20 -20 -20 -20 -20 -20 -20 -20 -20
32 34 14 -6 -3 7 -20 -20 -0 -11 -19 -20 -20 -20 -20 -20 -20 -20 -20 -20 -20 -20 -20 -20 -20 -20 23 -8 19 6 -8 -20 -20 -20 -20 -18 -16 5 -12 -2 -20 -20 -20 -20 -20 -20 -20
34 33 2 6 -5 -19 -20 -20 -18 -20 -20 -20 -20 -20 -20 -20 -20 -20 -20 -20 -20 -20 -20 -20 -20 -20 -20 -3 8 4 -20 -20 -20 -20 -20 -20 -8 4 10 11 -16 -20 -20 -20 -20 -20 -20
30 26 20 15 -20 -20 -17 -19 -20 -5 -17 -20 -20 -20 -20 -20 -20 -20 -20 -20 -20 -20 -20 -20 -20 -19 -17 -20 -9 -20 -20 -20 -20 -5 -20 -20 -20 -20 -20 -20 -20 -20 -20 -20 -20 -20 -20

GFSGBSN_prec_radar_075.txt.gz
Reflectivity
-20 9 -20 -20 -20 -20 -20 -20 -20 -20 -20 -4 -6 13 -20 -20 11 8 7 -20 -20 13 -20 -20 -20 -20 -11 -20 -20 -8 27 11 -20 -20 -20 7 8 10 -6 -20 -20 28 3 -8 41 33 -20
-9 0 4 -3 -20 -20 -20 -20 -20 -20 -20 -4 5 12 -2 -19 -20 16 -4 13 -20 8 -20 -20 -20 -20 -20 -20 -20 -3 1 -20 -20 -20 -20 22 19 -20 -20 -20 -9 -20 22 17 22 -17 -20
15 21 -4 7 -20 -20 -20 -20 -20 -20 -20 -19 6 3 6 5 -20 9 -13 9 -20 -8 -19 -20 -20 -20 -20 -20 -20 -13 -20 -20 -20 -20 10 24 27 30 -20 -20 -20 -11 -9 10 6 33 35
21 18 16 -7 -20 -20 -20 -20 -20 -20 -20 -20 6 6 9 5 10 5 3 -16 -6 -20 -20 -20 -20 -20 -1 -20 -20 -20 -20 -20 -20 -20 7 11 15 17 22 -3 -20 -19 -7 8 -1 34 25
16 21 16 10 -20 -0 -6 -20 -20 -20 -20 -20 -11 4 5 7 2 11 -20 -14 -20 -20 -20 -20 -13 -10 9 -20 -15 -20 -20 -20 -20 -18 -20 -3 16 33 21 3 5 -13 0 -14 7 -13 26
14 27 15 13 -10 -20 1 -20 -20 -20 -20 -20 3 1 -1 11 4 11 -20 -14 -20 -20 -20 -20 -20 0 -3 -4 1 -20 -20 -20 3 15 -20 17 24 7 27 22 1 -12 -8 -20 -15 -19 6
16 2 -15 9 11 7 11 -20 -20 -20 -20 -20 -1 -1 3 4 13 7 -8 -20 -20 -20 -20 -20 -10 -1 -20 -20 -20 0 -20 -20 11 -13 -20 22 12 7 -19 -6 -14 -20 7 5 -9 8 -13
15 19 -20 -12 19 -7 -14 -20 -20 -20 -20 -20 -19 -10 1 6 12 -7 -20 -20 -20 -20 -13 -20 4 4 -19 -20 -15 11 -20 -2 5 14 -1 33 8 -20 -0 2 25 -0 -1 15 -3 10 -17
-20 11 24 -16 14 -12 -20 -20 -20 -20 -20 -20 -20 -11 -0 6 1 -15 -20 -20 -20 -20 -17 -20 -10 -0 -19 -6 7 -10 -16 6 -15 -20 -20 26 -4 -16 22 26 11 -20 -20 -19 -5 -20 1
17 9 25 6 -19 -20 -20 -20 -20 -20 -20 -20 -20 -13 3 -16 -16 -20 -20 -20 -20 -20 -0 9 12 -18 7 21 2 -19 -15 26 -6 13 13 21 11 16 22 -1 1 -19 -20 0 -20 11 -16
16 19 34 19 -18 4 -20 -20 -20 -20 -20 -20 -20 -2 5 -20 -20 -20 -20 -20 -20 -19 -0 -18 1 -20 13 20 16 25 14 -0 18 31 24 -5 -20 33 18 -18 3 8 -3 -19 -19 -20 -20
14 -8 21 23 13 -0 -15 -20 -20 -20 -20 -20 -20 4 -17 -20 -20 -20 -20 -20 -20 -8 -19 -20 5 -0 7 11 7 14 19 34 14 14 23 -19 -19 27 8 4 -4 -19 -20 -20 -4 -20 -1
23 -16 28 33 15 -2 -1 -20 -20 -20 -20 -20 -20 -13 -20 -20 -7 -20 -20 -20 -0 -0 -20 5 9 -11 -9 -20 -20 17 31 23 -3 2 7 3 0 20 22 19 -20 -20 -4 7 5 2 -11
24 -10 16 29 12 12 -14 -20 -20 -20 -20 -20 -20 -20 -20 -20 -20 -3 -20 -20 -0 -19 -17 -20 11 -6 0 -20 -19 12 6 23 -3 -6 -19 6 10 18 -17 -18 -16 -17 -20 -18 -20 -20 -20
16 10 26 34 16 4 -20 -20 -20 -20 -20 -20 -20 -7 -9 -20 -20 -20 -20 3 -1 -20 -20 -17 13 13 9 -15 3 6 12 11 -19 -3 18 8 6 -9 7 -15 -20 15 12 -20 -20 -20 -20
17 22 28 34 14 8 -20 -20 -20 -20 -20 -20 -20 -11 5 -19 -8 -20 -16 -20 -20 -20 -20 -19 1 7 -13 -17 -6 8 -6 -2 -9 11 -20 5 4 -20 12 -5 -20 -5 -15 -11 -20 -20 -20
15 27 27 33 19 -10 -20 -20 -20 -20 -20 -20 -19 5 2 -20 -20 -12 -14 -16 -20 -20 -20 -5 0 -6 -20 7 -9 -18 9 -20 -3 -20 -20 -3 -9 -3 6 -0 18 -7 -20 -9 -11 -20 -9
18 10 19 37 30 -5 -20 -20 -20 -20 -20 -20 -5 -7 -13 -20 6 -11 -19 -20 -20 -20 -20 -20 -20 -4 5 9 3 8 12 9 -20 -20 -20 -20 -18 4 13 -20 -18 -18 3 -20 4 -3 -20
24 18 20 39 28 12 -6 -8 -19 -20 -20 -20 -20 -14 -14 -3 -15 -5 -20 -20 -20 -20 -20 -20 -20 -20 -20 9 9 1 -20 -20 -20 -20 -20 -20 -18 -17 3 -15 -20 -20 -20 -20 -16 -14 -3
19 23 25 37 29 15 7 -16 4 -20 -20 -20 -20 -20 -13 -2 -20 -20 -20 -20 -20 -20 -20 -20 -20 -20 -20 -20 -20 -14 -20 -20 -20 -20 -20 -20 -20 -3 15 -6 -20 -20 -20 -14 -4 11 -20
29 -13 28 34 34 9 -14 -18 7 -20 -20 -20 -20 -20 -20 -15 -20 -20 -20 -20 -12 -20 -20 -20 -20 -20 -16 -4 -5 -20 -20 -20 -20 -20 -20 -20 -20 -20 -20 -20 -20 -20 -20 -20 -15 -20 4
26 13 33 33 29 18 -13 -10 12 -20 -20 -20 -20 -20 -20 -20 -20 -20 -20 -20 0 -20 -20 -20 -20 -20 -20 4 -20 8 -20 -15 -8 -20 -20 -20 -20 -20 -20 -20 -20 -20 -20 -20 -20 -20 -20
25 19 36 34 27 22 0 -11 9 -20 -20 -20 -20 -20 -20 -20 -20 -20 -20 -20 -20 -20 -20 -20 -20 -20 -20 -20 -20 -20 -20 -20 -20 -2 -1 11 -20 -20 11 -20 -20 -20 -20 -20 -20 -20 -20
23 21 37 33 21 18 12 -20 -11 -20 -20 -20 -20 -20 -20 -20 -20 -20 -20 -20 -20 -20 -20 -20 -20 -14 -20 -20 -20 -20 -20 -20 -20 -20 -8 22 -20 -3 15 -20 -8 -20 -20 -20 -20 -20 -20
15 28 32 38 23 26 15 -3 -20 2 -15 -20 -20 -20 -20 -20 -20 -20 -20 -20 -20 -20 -20 -20 -20 -20 -20 -20 -20 -14 -4 -20 -20 -20 -20 -19 14 13 8 -1 -20 -20 -20 -20 -20 -20 -20
27 29 34 37 24 23 9 12 1 11 -16 -20 -20 -20 -20 -20 -20 -20 -20 -20 -20 -20 -20 -20 -20 -20 -20 1 8 8 8 2 -18 -20 -20 -20 -20 -15 -1 5 -13 -20 -20 -20 -20 -20 -20
21 30 34 37 10 1 9 17 -7 10 -13 -20 -20 -20 -20 -20 -20 -20 -20 -20 -20 -20 -20 -20 -20 -20 -20 -7 1 17 15 -20 -20 -20 -20 -19 5 4 9 -13 -15 -20 -20 -20 -20 -20 -20
35 22 32 31 25 -9 11 15 3 13 1 -20 -20 -20 -20 -20 -20 -20 -20 -20 -20 -20 -20 -20 -20 -20 -19 -13 -3 -1 -9 -9 -20 -12 2 0 1 9 5 9 -3 -20 -20 -20 -20 -20 -20
37 0 30 26 15 10 9 -16 -15 13 -7 -20 -20 -20 -20 -20 -20 -20 -20 -20 -20 -20 -20 -20 -20 -20 -20 -20 -20 -20 -20 -20 -20 5 -20 -15 -18 8 -16 7 -20 -20 -20 -20 -20 -20 -20

GFSGBSN_prec_radar_078.txt.gz
Reflectivity
11 -0 9 19 10 -15 -20 -20 -20 -20 -20 -15 -4 -5 8 9 -5 -20 14 -20 0 -20 -14 -20 -20 -20 -20 -1 -20 -20 22 27 27 25 4 -20 23 -5 5 -20 3 26 20 -1 13 37 10
20 15 11 20 19 9 -7 -7 -20 -20 -20 -20 -18 -2 7 -19 -8 -20 -17 -18 8 -20 -2 -20 -20 -20 -20 -14 -20 -20 12 29 24 -20 5 -16 18 5 -20 -20 2 21 15 23 18 11 -15
4 15 16 20 21 9 10 -20 -6 -20 -20 -20 -19 1 1 16 8 12 -20 8 -17 -20 -19 -20 -20 -20 -20 -20 -20 -20 -19 16 21 -20 16 8 -1 27 -20 -20 -20 11 -20 -3 24 17 -5
-19 -13 8 23 27 18 13 -8 -2 -20 -20 -20 -20 -9 3 6 8 1 5 -3 -20 -8 -20 -20 -20 -20 4 -20 -20 -20 -20 -20 -10 -10 -20 26 -20 -7 -20 18 -20 8 6 4 34 -13 -20
2 -20 -9 22 22 1 11 -16 10 -20 -20 -20 -20 -4 4 -6 14 -11 8 -20 -19 -20 -20 -20 -20 6 10 -20 -20 -20 -20 -20 -20 -20 27 24 26 -6 7 -13 18 -12 7 3 28 4 -9
-18 -20 -20 -1 11 1 -8 11 -5 -20 -20 -20 -20 -6 3 -1 3 -19 -14 -20 -20 -20 -20 -20 -20 -8 -3 -20 -20 -20 -20 -20 3 9 15 24 19 14 16 9 -1 -11 -20 12 2 11 8
-8 -20 -20 -18 29 -2 7 16 -20 -20 -20 -20 -20 -20 -20 -19 2 14 -20 -20 -20 -20 -20 -20 -20 2 10 -20 -20 -20 -20 -20 -20 -20 4 -20 26 14 22 13 -9 -20 -20 -20 -20 -6 14
9 -20 -20 -3 17 26 12 9 -20 -20 -20 -20 -20 -20 -20 2 4 -11 -20 -20 -20 -20 -16 -20 -20 -15 -20 -20 -17 -15 -20 -19 -13 2 -20 -20 0 1 39 21 24 30 0 3 3 4 -16
22 -8 -13 6 0 27 14 -4 -20 -20 -20 -20 -20 -20 -20 4 -7 -20 -20 -20 -20 -20 -20 -20 -20 -14 -14 -17 -20 -17 -20 -16 -11 -20 -20 -11 -2 -18 -14 17 10 11 -15 -3 13 -4 21
22 17 -8 1 -2 17 24 16 -20 -17 -20 -20 -20 -20 -20 3 -20 -20 -20 -20 -20 -20 -16 -15 -4 -20 -19 -20 -20 -20 -20 -12 -20 1 4 31 10 -11 -20 -12 23 -15 -20 -19 -13 14 13
18 19 10 6 -18 20 34 17 2 4 -20 -20 -20 -20 -19 -19 -20 -20 -20 -20 -20 -20 2 6 -20 -20 -10 4 -20 -20 -20 -14 -11 -20 -19 -19 -20 -20 -5 -6 3 10 1 6 -8 6 18
14 27 17 11 9 20 30 23 2 6 -20 -20 -20 -20 0 -20 -20 -20 -20 -20 -20 -20 -20 6 6 -10 -19 -0 5 -16 11 0 -8 -12 -13 7 -2 2 10 19 20 14 21 9 -0 23 5
9 22 -3 18 12 13 35 18 7 -7 -20 -20 -20 -17 -20 -14 -14 -20 -20 -20 -8 -15 -20 -20 -5 -20 -20 -20 3 39 -5 10 21 32 18 6 18 2 -20 -6 -20 -20 23 -14 -3 -16 -20
19 25 10 23 26 15 37 28 18 -20 -20 -20 -20 -20 -20 -20 -20 -20 -20 -20 -20 -20 -20 -20 -7 -20 2 -20 -10 13 32 1 -3 17 -17 -20 8 22 -15 1 2 -16 -19 -13 -20 -20 -20
15 24 21 26 28 14 37 25 18 -20 -20 -20 -20 -13 -20 -20 -20 -20 -5 -20 -2 -20 -20 -19 -19 -12 -20 -20 -20 22 6 6 -11 -20 8 -15 -10 1 -19 -6 -20 11 5 -20 -20 -20 -20
25 30 27 21 24 23 37 26 14 -20 -20 -20 -20 -17 -17 -15 -2 -20 -3 -20 -20 -20 -20 -4 9 12 8 -20 -15 -9 10 -20 4 -5 -20 -20 -20 -20 -20 -10 -20 -15 -20 -20 -20 -20 -20
15 28 25 26 27 32 35 30 6 -20 -18 -20 -20 -13 -12 -20 3 -5 -17 -20 -20 -20 -20 -6 -11 -4 -15 -7 -18 -7 -20 -20 -20 -20 -20 -20 -20 -3 2 0 -20 -20 -15 -20 -20 -20 7
4 28 25 31 25 36 36 35 -1 -20 -5 -20 -20 -7 -20 -20 9 -1 -20 -20 -20 -20 -20 -20 -20 -20 -20 5 4 1 -20 -20 -20 -20 -20 -20 15 -1 7 -19 -11 -18 5 7 -20 -20 -20
22 18 25 28 33 33 34 36 -2 -9 1 -20 -20 -14 -20 -20 -20 -20 -20 -20 -20 -20 -20 -20 -20 -20 -20 9 10 3 -20 -20 -20 -20 -20 -20 -20 -19 -16 -20 -20 4 -20 -15 -20 -20 -20
22 21 24 32 34 34 36 29 11 8 7 -20 -20 -7 -10 4 -20 -20 -20 -20 -20 -20 -20 -20 -20 -20 -20 -20 -20 6 -20 -20 -20 -20 -20 -20 -20 -20 -20 -20 -20 -20 -20 -20 -20 -20 -20
12 22 29 31 38 36 36 23 14 14 -5 -20 -20 -20 -20 -13 -20 -20 -20 -20 -20 -20 -20 -20 -20 -20 -15 5 -11 10 -20 -20 -20 -20 -20 -20 -20 -20 -20 -20 -20 -20 -20 -20 -20 -20 -20
23 26 35 30 34 36 39 19 19 9 -16 -20 -17 -20 -20 -20 -20 -20 -20 -20 -20 -20 -20 -20 -20 -20 -20 -0 -20 6 -19 -15 -19 -20 -20 -20 -20 -20 -20 -20 -20 -20 -20 -20 -20 -20 -20
22 32 28 22 34 35 34 17 5 -11 -19 -20 -11 -20 -20 -20 -20 -20 -20 -20 -20 -20 -20 -20 -20 -20 -20 -20 -20 -20 -20 -20 -20 -13 -20 -20 -20 -20 3 -20 -20 -20 -20 -20 -20 -20 -20
23 33 33 38 34 37 30 5 1 2 -20 -20 -2 -20 -20 -20 -20 -20 -20 -20 -20 -20 -20 -20 -20 -20 -20 -20 -20 -20 -20 -20 -20 -20 -20 14 -20 -20 -20 -20 -20 -20 -20 -20 -20 -20 -20
15 29 37 34 37 34 28 1 -6 6 -20 -13 -20 -20 -20 -20 -20 -20 -20 -20 -20 -20 -20 -20 -20 -20 -20 -20 -20 -20 -20 -20 -20 -20 -20 -2 -20 -20 1 -20 -20 -20 -20 -20 -20 -20 -20
25 30 36 37 35 36 25 14 8 6 -20 -20 -20 -11 -20 -20 -20 -20 -20 -20 -20 -20 -20 -20 -20 -20 -20 -18 -6 5 -20 -20 -20 -20 -20 -20 -20 -2 -20 -20 -12 -20 -20 -20 -20 -20 -20
19 35 36 36 33 31 26 11 5 13 -4 -20 -20 -20 -20 -20 -20 -20 -20 -20 -20 -20 -20 -20 -20 -20 -20 -20 -17 2 10 -20 -20 -20 -20 -20 -20 -20 -19 -1 -20 -20 -20 -20 -20 -20 -20
23 26 37 38 34 27 19 15 20 12 -12 -20 -20 -20 -8 -20 -20 -20 -20 -20 -20 -20 -20 -20 -20 -20 -19 -20 -20 -20 -20 -20 -20 -20 -20 -20 -20 -18 -20 9 -14 -20 -20 -20 -20 -20 -20
28 31 36 36 36 23 25 24 26 9 -6 -20 -20 -20 -20 -20 -20 -20 -20 -20 -20 -20 -20 -20 -20 -20 -20 -20 -20 -20 -20 -20 -20 -20 -20 -20 -19 2 -20 -20 -20 -20 -20 -20 -20 -20 -20

GFSGBSN_prec_radar_081.txt.gz
Reflectivity
18 22 18 12 14 16 20 17 10 -10 -20 -20 -20 -13 4 -6 7 10 -13 -20 -12 12 -18 -20 -20 -20 -20 -20 -8 -20 -20 -16 -20 -20 -20 22 -3 25 11 -20 -7 4 -2 25 21 -20 -13
3 6 18 21 11 5 22 22 -2 4 -8 -11 -4 -19 4 -19 6 10 12 -20 1 -5 -20 -0 -20 -20 -20 -9 -20 -20 -20 31 24 -18 -20 -5 9 -8 -20 2 -19 -20 -20 3 32 -7 13
18 17 -1 -4 13 4 14 16 -4 -2 -20 -20 -8 -20 3 3 -1 -4 -18 -5 -1 -20 -15 -20 -20 -20 -20 -20 -20 -20 -19 30 35 1 10 19 -12 20 26 -9 -20 20 14 11 26 7 44
2 23 -16 13 12 14 14 9 11 3 -17 -20 -20 -6 0 5 -20 11 -7 9 -20 -20 -17 -20 -20 -20 6 -20 -20 -20 -20 20 17 22 21 25 -20 24 -19 -15 -17 5 4 24 19 39 7
9 -7 21 -2 21 18 -8 17 7 15 -6 -20 -20 -18 -1 -3 -20 -13 -20 2 -20 -20 -20 -20 -20 -20 -6 -20 -20 -20 -19 -20 -5 22 29 -15 10 25 7 -7 -4 6 30 24 24 27 24
14 19 2 17 20 2 -2 25 4 13 9 -20 -20 -20 -12 2 -20 1 -8 -20 -20 -20 -20 -20 -20 -2 -11 -20 -20 -20 -20 -20 -20 6 -20 22 -10 7 16 -4 12 16 18 25 21 24 18
16 9 20 -5 20 -15 -10 21 -1 3 5 -19 -20 -20 -14 -19 -20 11 -20 -20 -20 -20 -20 -20 -15 -20 -17 -20 -20 -20 -20 -20 -20 -20 -20 -0 35 -20 -20 -9 23 -20 -6 10 12 6 -7
-20 5 18 18 19 17 6 3 25 20 12 -1 -20 -20 -20 -20 -10 2 -20 -20 -20 -20 -20 -20 -20 -20 -20 -20 -20 -20 -20 -20 -20 -20 -3 12 36 3 -20 -20 -16 -17 4 17 20 18 16
-20 -20 -5 23 15 25 7 7 25 29 7 3 -20 -20 -20 -20 -20 -20 -20 -20 -20 -20 -20 -20 -20 -20 -20 -20 -14 -20 -20 -20 -15 -20 -20 -8 26 12 -5 -8 -3 -20 -20 -18 -5 17 25
-20 -20 -20 -10 27 1 22 -1 24 19 21 11 -20 -20 -20 -20 -20 -20 -20 -20 -20 -20 -20 -19 -9 -20 -20 -20 -20 -20 -20 -12 -20 -20 -20 -15 -11 6 19 29 -15 1 -20 -20 0 -0 20
-20 -20 -20 -20 25 13 32 5 20 27 26 11 -13 -20 -20 -20 -20 -20 -20 -20 -20 -20 -20 -18 -20 -20 1 -20 -20 -20 -20 -18 -20 -20 -20 -20 7 5 1 1 -20 -16 -20 -20 -19 20 25
-20 -15 -20 -12 5 26 22 11 20 30 30 -0 -0 -20 -20 -19 -20 -20 -20 -20 -20 -20 -20 9 -3 -20 -19 -15 15 -14 21 -19 -20 -19 -13 26 3 1 -19 -3 6 -7 -13 10 -1 22 -20
-20 -20 -20 -20 -20 25 17 29 16 30 31 13 0 -20 -20 -20 -11 -20 -20 -20 -20 -20 -20 -20 -17 -20 -20 -16 21 -20 -18 -20 -7 -10 -13 20 15 23 -3 11 -8 17 -19 23 25 16 -20
-20 -1 4 -3 -5 27 26 36 20 33 35 17 3 -20 -20 -20 -20 -20 -20 -20 -20 -20 -20 -20 -20 -20 -16 -20 -4 -17 -2 8 14 12 8 -1 1 -18 -20 -20 -16 -20 -19 8 15 -20 -20
-3 17 -8 11 -16 31 25 37 21 33 32 17 2 -20 -20 -20 -20 -20 -2 -19 -20 -20 -20 -20 -20 -18 4 5 -20 -10 -16 -20 19 -20 -7 11 30 -20 -20 -20 -20 5 16 -20 -20 -20 -20
21 20 21 13 7 33 34 35 25 34 28 15 -2 -20 -20 -20 -20 -20 -15 -20 -20 -20 -20 -20 -5 -2 -1 -20 -15 -20 25 -15 -5 -20 15 -18 -1 23 -20 -20 -20 -20 -20 -20 -20 -20 -20
20 9 22 8 35 34 30 34 24 38 24 18 -4 -13 -20 -16 -20 4 -16 -20 -20 -20 -20 -20 -2 9 -12 -20 -18 -16 -20 -20 -20 -20 -20 -20 -20 -20 -20 -20 -20 -20 -20 -20 -20 -20 -13
30 36 31 26 33 37 32 36 23 37 20 13 1 -14 -13 0 -15 -16 -6 -20 -20 -20 -20 -20 -20 -6 -20 -20 -20 -20 -20 -20 -20 -20 -20 -20 -20 -20 -20 -20 -20 -20 -20 -20 -20 -20 -20
35 31 30 26 38 30 32 36 32 36 21 14 -3 -12 4 -6 -20 -16 -20 -20 -20 -20 -20 -20 -20 -20 -20 -1 2 -20 -20 -20 -20 -20 -20 -20 -20 -20 -14 -20 -20 -20 -20 -20 -20 -20 -20
24 29 29 26 37 37 33 36 38 31 10 14 -8 -20 -3 -1 -20 -20 -20 -20 -20 -20 -20 -20 -20 -20 -20 9 -20 -20 -20 -20 -20 -20 -20 -20 -20 -20 -20 -20 -20 -20 -20 -20 -20 -20 -20
20 10 29 34 26 31 33 34 36 23 5 14 -9 -20 -20 -15 -20 -20 -20 -20 -20 -20 -20 -20 -20 -20 -20 -20 5 -20 -20 -20 -20 -20 -20 -20 -20 -20 -20 -20 -20 -20 -20 -20 -20 -20 -20
7 -10 20 28 33 35 35 37 34 9 4 15 6 -20 -20 -20 -20 -20 -20 -20 -20 -20 -20 -20 -20 -20 -20 -20 -20 -20 -20 -20 -20 -20 -20 -20 -20 -20 -20 -20 -20 -20 -20 -20 -20 -20 -20
9 24 20 26 30 34 37 37 27 13 13 11 1 -20 -20 -20 -20 -20 -20 -20 -20 -20 -20 -20 -20 -20 -20 -20 -20 -20 -20 -20 -20 -20 -20 -20 -20 -20 -20 -20 -20 -20 -20 -20 -20 -20 -20
9 9 10 14 34 39 36 36 16 13 8 2 5 -15 -20 -20 -20 -20 -20 -20 -20 -20 -20 -20 -20 -20 -20 -20 -20 -20 -20 -20 -20 -20 -20 -20 -9 -19 -20 -20 -20 -20 -20 -20 -20 -20 -20
5 23 24 24 37 31 33 32 19 18 12 -17 -6 -20 -20 -20 -20 -20 -20 -20 -20 -20 -20 -20 -20 -20 -20 -20 -20 -20 -20 -20 -20 -20 -20 14 -8 -20 -20 -20 -20 -20 -20 -20 -20 -20 -20
15 19 20 37 34 32 33 19 22 11 -7 -20 -5 -20 -20 -20 -20 -20 -20 -20 -20 -20 -20 -20 -20 -20 -20 -20 -20 -20 -20 -20 -20 -20 -20 -20 -20 -20 -18 -20 -20 -20 -20 -20 -20 -20 -20
7 22 24 29 40 36 37 24 17 5 1 -20 -5 -20 -20 -20 -20 -20 -20 -20 -20 -20 -20 -20 -20 -20 -20 -20 -20 -20 -20 -20 -20 -20 -20 -20 -20 -20 -20 -10 -20 -20 -20 -20 -20 -20 -20
9 30 30 36 37 37 39 15 10 2 1 -12 -1 -20 -20 -20 -20 -20 -20 -20 -20 -20 -20 -20 -20 -20 -20 -20 -20 -20 -20 -20 -20 -20 -20 -20 -20 -20 -19 -13 -13 -20 -20 -20 -20 -20 -20
6 16 32 38 26 37 37 21 6 22 -8 8 -6 -20 -20 -20 -20 -20 -20 -20 -20 -20 -20 -20 -20 -20 -20 -20 -20 -20 -20 -20 -20 -20 -20 -20 -20 -20 -20 -20 -20 -20 -20 -20 -20 -20 -20

GFSGBSN_prec_radar_084.txt.gz
Reflectivity
3 7 19 23 20 19 14 13 27 14 -4 -7 -20 -20 -20 -15 -15 11 13 12 -12 11 12 -20 1 -20 -20 -20 -20 -20 -20 -20 -20 -9 1 -9 29 21 8 -20 14 -4 21 12 35 6 19
11 1 -6 -10 20 -6 16 15 21 18 5 -20 -20 -20 -20 -20 -6 -12 13 -1 -19 -7 -12 -20 3 -20 -20 -20 -20 -20 -20 13 28 -20 -20 -20 23 22 -10 -20 -20 -13 15 -9 29 2 16
-12 1 4 -0 -20 13 -2 18 19 26 19 18 -20 -20 -20 -20 -18 -20 13 9 2 -20 -20 -2 4 -20 -20 -20 -20 -20 -19 32 13 -20 -20 -14 13 23 20 -20 -20 17 40 -10 32 19 27
-20 -20 -6 14 5 -18 9 18 10 22 26 22 -18 -20 -20 -20 -20 -9 -18 -19 -3 -20 -20 -20 -6 -20 -20 -20 -20 -20 -20 19 25 -19 5 20 16 25 17 -20 -20 12 27 33 35 39 29
-20 -19 -3 -3 16 15 5 12 10 3 29 22 14 -20 -16 -20 -20 -20 -12 -20 -20 -20 -20 -20 -20 -20 -20 -20 -20 -20 -20 -10 19 21 36 18 27 11 22 15 4 13 31 31 28 22 26
-20 -20 -20 -20 -17 17 23 15 -11 5 30 26 19 17 2 -20 -20 -20 -20 -20 -20 -20 -20 -20 -20 -11 -20 -20 -20 -20 -20 -20 13 18 14 -15 -2 -8 5 17 -0 -19 12 -5 13 2 11
-20 -20 -20 -20 -20 -2 19 17 27 5 22 29 25 7 4 -20 -20 -20 -20 -20 -20 -20 -20 -20 -20 -20 -20 -20 -20 -20 -20 -20 -20 7 -20 -20 -9 23 -13 17 15 -20 -20 -20 1 18 32
-20 -20 -20 -20 -20 -18 2 25 19 17 16 30 29 8 -14 -20 -20 -20 -20 -20 -20 -20 -20 -20 -20 -20 -20 -20 -20 -20 -20 -20 -20 -20 -20 22 2 28 16 -2 -9 -20 -20 -18 -19 14 12
-20 -20 -20 -20 -20 -20 -2 -2 30 31 14 29 23 13 14 3 -20 -20 -20 -20 -20 -20 -20 -20 -20 -20 -20 -20 -20 -20 -20 -20 -20 -20 -15 21 18 6 7 21 15 -6 10 -7 -1 28 22
-20 -20 -20 -20 -20 -20 -16 1 26 21 22 26 28 10 3 15 -20 -20 -20 -20 -20 -20 -20 -20 -20 -20 -20 -20 -20 -20 -20 -20 -20 -20 -2 18 35 17 -20 -2 6 14 20 26 14 14 17
-20 -20 -20 -20 -20 -20 -20 -20 17 23 35 19 28 3 5 5 -20 -20 -20 -20 -20 -20 -20 -20 -20 -20 -19 -20 -20 -20 -20 -20 -20 -20 -20 5 29 16 -19 -20 -9 14 2 -1 15 18 -20
-20 -20 -20 -20 -20 -16 -16 -20 -8 27 32 18 28 0 13 -6 -20 -20 -20 -20 -20 -20 -20 -19 -12 -20 -20 -4 14 -16 -20 -20 -20 -20 -19 -5 11 12 14 6 8 18 -20 7 -11 20 1
11 -8 -20 -20 -20 -20 9 -6 7 28 33 27 29 -1 19 -8 -20 -20 -20 -20 -20 -20 -20 -20 -20 -20 -20 11 19 -20 2 -20 -20 -20 4 3 2 19 22 -10 -13 12 -19 9 22 17 -17
11 -13 13 -3 -20 3 11 5 11 30 33 32 27 4 19 -19 -20 -20 -20 -20 -20 -20 -20 -20 -20 -20 -20 -20 1 -17 9 -19 -20 -20 7 -14 -6 12 4 20 30 -4 -20 -20 -20 -12 -20
15 -1 17 -15 17 15 -3 12 10 28 35 31 31 -11 23 -9 -20 -20 -20 -20 -20 -20 -20 -13 -20 -20 -13 -20 -6 -3 -20 -20 -20 -20 -18 -20 -6 -20 -19 -20 -12 17 -20 -13 -20 -19 4
19 17 16 23 16 14 -2 -6 23 32 32 31 29 -12 22 -17 -20 -20 -15 -20 -20 -20 -20 -20 -20 -20 -20 -20 -20 -15 -20 -20 -20 -6 -20 -7 -16 -15 -20 -20 -20 -20 -20 -20 -20 -20 -20
24 13 15 23 33 30 17 4 33 36 29 35 21 0 11 -20 -20 -14 -20 -20 -20 -20 -20 -20 -20 -9 -10 -20 -20 -20 -20 -20 -20 -20 -7 -5 -20 -20 -20 -20 -20 -20 -20 -20 -20 -20 -20
17 19 22 21 33 35 26 28 36 36 29 35 -10 22 1 -20 -17 -11 -20 -20 -20 -20 -20 -20 -20 -20 -20 -20 -20 -3 -20 -20 -20 -20 -20 -20 -20 -20 -20 -20 -20 -20 -20 -20 -20 -20 -20
19 7 14 14 31 38 41 36 28 27 31 16 -11 24 -19 -19 -20 -12 -20 -20 -20 -20 -20 -20 -20 -20 -20 -20 -10 -20 -20 -20 -20 -20 -20 -20 -20 -19 -19 -20 -20 -20 -20 -20 -20 -20 -20
6 14 12 13 29 27 36 38 26 33 31 1 20 25 18 2 -20 -14 -20 -20 -20 -20 -20 -20 -20 -20 -20 -10 -20 -20 -20 -20 -20 -20 -20 -20 -20 -20 -20 -20 -20 -20 -20 -20 -20 -20 -20
10 9 -18 8 32 20 30 34 31 31 27 7 32 -15 -17 -3 -5 -20 -20 -20 -20 -20 -20 -20 -20 -20 -20 -20 -20 -20 -20 -20 -20 -20 -20 -20 -20 -20 -20 -20 -20 -20 -20 -20 -20 -20 -20
8 8 -4 15 29 32 34 29 32 34 34 22 32 -20 -20 -20 -20 -20 -1 -20 -20 -20 -20 -20 -20 -20 -20 -20 -20 -20 -20 -20 -20 -20 -20 -20 -20 -20 -20 -20 -20 -20 -20 -20 -20 -20 -20
-20 -2 7 32 34 36 33 33 33 32 31 32 2 -20 -20 -20 -20 -20 -20 -20 -20 -20 -20 -20 -20 -20 -20 -20 -20 -20 -20 -20 -20 -20 -20 -20 -20 -20 -20 -20 -20 -20 -20 -20 -20 -20 -20
-20 -20 3 31 37 27 38 33 34 35 29 28 -14 -20 -20 -20 -20 -20 -20 -20 -20 -20 -20 -20 -20 -20 -20 -20 -20 -20 -20 -20 -20 -20 -20 -20 -20 -20 -20 -20 -20 -20 -20 -20 -20 -20 -20
7 -6 14 34 21 23 34 33 31 35 31 18 4 -20 -20 -20 -20 -20 -20 -20 -20 -20 -20 -20 -20 -20 -20 -20 -20 -20 -20 -20 -20 -20 -20 -20 -20 -20 -20 -20 -20 -20 -20 -20 -20 -20 -20
-20 -7 11 25 19 23 34 27 32 37 18 19 -0 -20 -20 -20 -20 -20 -20 -20 -20 -20 -20 -20 -20 -20 -20 -20 -20 -20 -20 -20 -20 -20 -20 -20 -20 -20 -20 -20 -20 -20 -20 -20 -20 -20 -20
-9 1 18 27 25 36 36 32 36 26 11 10 14 13 -18 -20 -20 -20 -20 -20 -20 -20 -20 -20 -20 -20 -20 -20 -20 -20 -20 -20 -20 -20 -20 -20 -20 -20 -20 -19 -20 -20 -20 -20 -20 -20 -20
0 10 16 17 29 32 34 35 35 20 2 16 19 -10 -20 -20 -20 -20 -20 -20 -20 -20 -20 -20 -20 -20 -20 -20 -20 -20 -20 -20 -20 -20 -20 -20 -20 -20 -20 -20 -17 -20 -20 -20 -20 -20 -20
-1 3 12 21 26 30 25 33 31 11 11 17 13 -20 -20 -20 -20 -20 -20 -20 -20 -20 -20 -20 -20 -20 -20 -20 -20 -20 -20 -20 -20 -20 -20 -20 -20 -20 -20 -20 -20 -20 -20 -20 -20 -20 -20

GFSGBSN_prec_radar_087.txt.gz
Reflectivity
9 -1 1 5 2 11 -1 17 22 14 15 20 20 19 -9 -20 -1 3 -20 -20 0 -13 15 13 -20 10 -20 -20 -20 -20 -20 -15 -20 -20 -20 19 -20 22 -6 0 16 20 -20 20 34 24 26
-9 -16 -18 9 11 8 11 3 -1 27 13 25 22 23 16 -20 -4 -5 -20 -20 -13 -11 -6 7 -20 -10 -11 -20 -20 -20 -20 -20 19 -1 -14 -20 -20 9 17 17 -8 -14 11 41 22 20 28
-20 -20 -20 -14 11 -6 2 6 23 -17 3 27 18 21 14 -4 2 -11 -20 -20 -19 7 -20 -1 -8 -20 -14 -20 -20 -20 -20 10 8 15 -20 -20 24 -4 23 -9 -4 -20 11 23 33 21 20
-20 -20 -20 -20 -20 -7 -3 -17 8 14 23 17 21 23 17 12 -10 -12 -20 -20 -20 -14 -20 2 -20 -20 -18 -20 -20 -20 -20 9 22 -20 -20 -18 27 31 15 -12 13 -11 11 39 28 17 33
-20 -20 -20 -20 -20 -20 -20 -11 -18 18 8 26 22 25 24 23 -2 -13 -20 -20 -20 -20 -20 -20 -20 -20 -20 -20 -20 -20 -20 -20 25 -20 -20 28 27 35 23 3 -4 -8 1 19 30 -13 24
2 -7 -20 -20 -20 -20 -20 -20 -14 -7 21 25 5 22 26 26 5 -20 -5 -20 -20 -20 -20 -20 -20 -20 -20 -20 -20 -20 -20 -20 13 23 -1 15 36 33 12 19 -15 -20 -17 27 39 21 33
-19 -7 -20 -20 -20 -20 -20 -20 -20 -16 -15 24 31 18 30 25 17 -6 -4 -20 -20 -20 -20 -20 -20 -20 -20 -20 -20 -20 -20 -20 -20 4 35 23 17 40 -13 -9 -20 -20 1 22 34 35 36
-20 -20 -20 -20 -20 -20 -20 -20 -20 -20 -10 17 28 16 25 20 26 -2 -20 -20 -20 -20 -20 -20 -20 -20 -20 -20 -20 -20 -20 -20 -20 -20 -20 -20 -19 4 9 21 -8 10 7 18 26 28 28
-20 -20 -20 -20 -20 -13 -20 -20 -20 -20 -20 -2 26 29 29 21 25 -3 -20 -20 -20 -20 -20 -20 -20 -20 -20 -20 -20 -20 -20 -20 -20 -20 -20 -20 -3 -20 29 -9 17 18 -1 -20 -12 11 19
-20 -20 -20 -20 -20 -20 -20 -1 -20 -20 -20 -20 23 26 30 23 14 -17 -20 -20 -20 -20 -20 -20 -20 -20 -19 -20 -20 -20 -20 -20 -20 -20 7 -20 6 -15 -10 26 15 17 -19 15 20 8 13
15 2 -20 -20 -20 -20 -20 -20 -20 -20 -20 -20 21 28 28 35 26 -11 -20 -20 -20 -20 -20 -20 -20 -20 -17 -20 -20 -20 -20 -20 -20 -20 -13 -14 19 23 5 26 14 6 -20 -17 -6 -3 -10
10 6 -16 2 -10 -20 -20 -20 -20 -14 -20 -20 17 30 27 26 23 -13 -20 -20 -20 -20 -20 -11 -20 -20 -6 -20 13 -20 -20 -20 -20 -20 3 3 -9 -19 -1 26 -7 -2 11 11 19 21 -1
13 2 16 9 10 -20 -20 -20 -19 -7 -20 3 19 29 27 27 27 -20 -20 -20 -20 -20 -20 -20 -20 -20 -20 5 9 -20 -12 -20 -20 -19 6 8 6 -1 16 8 -8 20 -20 20 15 28 -7
15 14 16 28 26 2 -2 4 5 7 -20 9 28 28 25 35 15 -17 -20 -20 -20 -20 -20 -20 -20 -20 -8 -17 -18 11 -20 -20 -20 -20 10 -18 -10 32 -19 -2 20 13 -20 -20 -2 -1 -18
17 20 20 9 15 19 -2 26 25 14 -11 11 34 26 21 30 19 -16 -20 -20 -20 -20 -20 -20 -20 -20 -20 -20 9 -6 -20 -20 -20 2 -3 8 5 -9 33 5 -4 -2 -20 -20 -20 -20 -20
19 23 20 11 13 -2 14 23 11 16 -16 23 36 29 21 34 4 -20 -20 -20 -20 -20 -20 -20 -20 -20 -20 -20 -7 -20 -20 -20 -20 -8 -14 -20 -19 2 24 4 15 -19 -20 -20 -20 -20 -20
24 19 12 14 18 20 16 15 8 17 -3 26 37 34 22 32 -11 -20 -20 -20 -20 -20 -20 -20 -20 -20 -20 -20 -3 -20 -20 -20 -20 -20 -9 -20 -20 -20 -20 -20 -20 -20 -20 -20 -20 -20 -20
31 17 16 16 18 19 26 30 34 33 12 34 35 30 27 28 -2 -20 -20 -20 -20 -20 -20 -20 -20 -20 -20 -20 -20 7 -20 -20 -20 -20 -20 -20 -20 -20 -20 -20 -20 -20 -20 -20 -20 -20 -20
37 9 20 4 14 23 13 33 30 23 28 37 32 33 32 19 -20 -20 -20 -20 -20 -20 -20 -20 -20 -20 -20 -20 -13 -20 -20 -20 -20 -20 -20 -20 -20 -20 -20 -20 -20 -20 -20 -20 -20 -20 -20
25 18 17 -5 16 25 36 37 31 27 33 27 27 33 36 6 -20 -20 -20 -20 -20 -20 -20 -20 -20 -20 -20 -20 -20 -20 -20 -20 -20 -20 -20 -20 -20 -20 -20 -20 -20 -20 -20 -20 -20 -20 -20
14 -20 -8 11 14 24 34 26 7 15 31 20 23 29 4 7 1 -20 -20 -20 -20 -20 -20 -20 -20 -20 -20 -20 -20 -20 -20 -20 -20 -20 -20 -20 -20 -20 -20 -20 -20 -20 -20 -20 -20 -20 -20
16 10 -20 -14 17 30 27 21 30 32 30 24 23 13 -10 -20 -20 -20 -20 -20 -20 -20 -20 -20 -20 -20 -20 -20 -20 -20 -20 -20 -20 -20 -20 -20 -20 -20 -20 -20 -20 -20 -20 -20 -20 -20 -20
17 -16 -3 17 19 25 14 16 36 36 34 19 31 -0 10 -6 -20 -20 -20 -20 -20 -20 -20 -20 -20 -20 -20 -20 -20 -20 -20 -20 -20 -20 -20 -20 -20 -20 -20 -20 -20 -20 -20 -20 -20 -20 -20
-10 4 -20 9 20 27 19 7 30 32 26 25 30 23 -20 -20 -20 -20 -20 -20 -20 -20 -20 -20 -20 -20 -20 -20 -20 -20 -20 -20 -20 -20 -20 -20 -20 -20 -20 -20 -20 -20 -20 -20 -20 -20 -20
-0 -7 4 10 30 19 20 18 30 30 23 30 35 5 -20 -20 -20 -20 -20 -20 -20 -20 -20 -20 -20 -20 -20 -20 -20 -20 -20 -20 -20 -20 -20 -20 -20 -20 -20 -20 -20 -20 -20 -20 -20 -20 -20
-20 -16 3 6 31 33 27 25 29 28 30 30 11 -18 -20 -20 -20 -20 -20 -20 -20 -20 -20 -20 -20 -20 -20 -20 -20 -20 -20 -20 -20 -20 -20 -20 -20 -20 -20 -20 -20 -20 -20 -20 -20 -20 -20
-20 -20 -20 7 20 30 30 26 24 28 29 15 10 -20 -20 -20 -20 -20 -20 -20 -20 -20 -20 -20 -20 -20 -20 -20 -20 -20 -20 -20 -20 -20 -20 -20 -20 -18 -11 -20 -20 -20 -20 -20 -20 -20 -20
-20 2 11 22 19 29 28 25 25 23 2 11 -8 -20 -20 -20 -20 -20 -20 -20 -20 -20 -20 -20 -20 -20 -20 -20 -20 -20 -20 -20 -20 -20 -20 -20 -20 -20 -19 2 -20 -20 -20 -20 -20 -20 -20
-19 23 21 -3 1 29 21 21 22 19 -0 3 -15 -20 -20 -20 -20 -20 -20 -20 -20 -20 -20 -20 -20 -20 -20 -20 -20 -20 -20 -20 -20 -20 -20 -20 -20 -20 -20 -20 -20 -20 -20 -20 -20 -20 -20

GFSGBSN_prec_radar_093.txt.gz
Reflectivity
-20 -20 -20 -20 -20 -20 -20 -12 -12 11 -20 -20 0 -3 10 21 -2 3 5 -1 1 6 -6 -20 -10 -3 -20 -20 -20 -20 -20 -20 -20 -20 -20 -20 -17 21 5 -20 -20 4 -20 -14 -20 12 5
6 5 9 9 5 -20 -20 -20 -20 -20 -2 -20 -17 16 5 22 24 14 20 -1 5 -9 -20 15 -15 -3 -20 -20 -20 -20 -20 -20 -20 -20 -20 -19 -9 22 6 -20 -12 4 -20 -15 -10 -20 -20
12 11 12 12 10 3 9 -16 -20 -20 -20 -20 -20 -14 14 15 13 15 18 7 -1 25 5 1 -20 11 -20 -20 -20 -20 -20 -20 -20 3 5 2 21 33 19 -18 -9 -20 13 -5 11 14 18
-7 16 15 16 14 10 14 11 1 -19 -20 -20 -20 -20 -20 17 18 22 -6 25 2 18 15 13 -1 -20 -18 -20 -20 -20 -20 -20 -20 -20 -20 -19 -1 27 3 -20 16 23 27 24 12 -20 14
16 14 16 17 11 12 10 10 10 11 -20 -20 -20 -20 -20 15 22 19 14 5 5 2 7 12 10 -10 -20 -20 -20 -20 -20 -20 -5 -20 -20 9 6 15 -4 17 26 16 11 9 -20 -19 1
17 12 15 17 15 15 15 15 16 13 9 -20 -20 -20 -20 13 15 13 15 19 17 11 13 17 -5 -12 -20 -20 -20 -20 -20 -20 -11 -20 -20 9 -16 -13 9 21 20 -20 -3 -18 2 -19 2
16 14 14 14 15 14 14 13 12 4 8 -20 -20 -20 -20 9 23 12 11 17 9 6 1 1 7 -20 -20 -20 -20 -20 -20 -20 -11 -20 -7 -3 17 -20 -16 12 16 14 25 5 12 20 6
19 17 13 12 15 16 13 16 21 -11 9 -9 -20 -20 -20 10 21 6 2 22 19 4 3 18 7 -20 -20 -20 -20 -20 -20 -20 -20 -20 -20 -17 -4 13 18 -20 -0 19 13 3 1 22 13
14 13 13 11 4 9 10 15 11 13 13 5 -20 -20 -8 14 20 -2 1 21 20 8 4 11 5 -20 -20 -20 -20 -20 -20 -20 -20 -20 -20 -20 -15 26 6 1 3 19 -11 -5 14 -0 -6
4 4 7 17 10 18 -10 3 11 12 16 -16 -20 -20 7 19 23 -17 -16 9 23 23 16 5 -9 -20 -20 -20 -20 -20 -20 -20 -20 -20 -20 -19 -0 7 17 -1 8 22 -19 -20 14 5 9
6 16 12 19 18 -4 13 15 23 19 15 8 -20 -20 -3 10 5 11 -7 15 27 23 14 -2 -20 -20 -20 -20 -20 -20 -20 -20 -20 -20 -20 2 5 13 -20 -0 -19 8 -20 17 -20 -20 -18
10 7 13 13 16 15 14 20 -17 26 -20 20 4 -13 -20 -5 4 15 6 24 14 19 10 -0 -9 -20 4 -20 -14 -20 -20 -20 -20 -20 22 -4 -6 10 -20 19 -2 16 20 18 -20 -20 -9
0 17 9 17 18 16 26 40 26 32 -20 10 13 -20 -20 15 -4 5 14 13 18 1 4 2 -20 -20 -20 -16 -8 -20 -20 -20 -20 8 -17 -20 -2 21 18 27 28 -6 -17 4 -20 -20 -20
9 11 10 14 16 21 27 25 5 23 1 -20 13 -20 -20 -20 13 14 18 15 12 6 11 -20 -20 -20 -20 -20 -17 -20 -20 -20 -12 -18 -20 -20 -20 1 29 4 28 33 10 -20 -20 -20 -14
11 10 14 20 21 19 12 24 16 -20 24 24 9 -18 -14 7 8 15 14 5 6 15 2 -20 -20 -20 -20 10 -9 -20 -20 -20 -20 -12 -20 -20 11 -16 -17 -5 -19 -20 -20 -20 -20 -20 -20
14 13 16 23 23 24 9 -2 4 19 21 22 2 -19 -17 14 13 24 13 -2 19 15 -14 -20 -20 -20 -20 -20 -20 -20 -20 -20 -20 -20 -20 -20 8 24 6 -17 11 -17 -20 -20 -20 -20 -20
17 17 19 15 23 36 24 -4 -20 2 16 23 1 -3 31 37 23 26 0 17 27 4 -20 -20 -20 -20 -20 -20 -20 -20 -20 -20 -5 -20 14 -0 -18 -5 -19 -20 -19 -20 -20 -20 -20 -20 -20
27 33 24 22 29 25 -4 -15 -20 18 15 -20 21 6 25 37 26 22 2 28 20 -17 -20 -20 -20 -20 -20 -20 -20 -20 -20 -20 -10 -20 -20 -20 -20 -20 -20 -20 -20 -20 -20 -20 -20 -20 -20
24 21 20 8 25 4 -20 12 -10 21 21 6 31 -15 18 25 -8 -2 -5 29 19 -20 -20 -20 -20 -20 -20 -20 -20 -20 -20 -20 -20 -20 -20 -20 -20 -20 -20 -20 -20 -20 -20 -20 -20 -20 -20
17 23 -7 -18 2 4 12 11 21 21 24 27 19 -14 33 30 10 -20 22 21 -7 -20 -20 -20 -20 -20 -20 -20 -20 -20 -20 -20 -20 -20 -20 -20 -20 -20 -20 -20 -20 -20 -20 -20 -20 -20 -20
9 8 -20 -4 12 2 -1 36 36 34 32 23 18 -8 10 9 22 9 23 1 -20 -14 -14 -20 -20 -20 -20 -20 -20 -20 -20 -20 -20 -20 -20 -20 -20 -20 -20 -20 -20 -20 -20 -20 -20 -20 -20
6 12 8 7 -7 -20 12 29 19 16 11 21 11 -20 -12 -14 7 25 19 -20 -20 -20 -20 -20 -20 -20 -20 -20 -20 -20 -20 -20 -20 -20 -20 -20 -20 -20 -20 -20 -20 -20 -20 -20 -20 -20 -20
2 1 13 13 17 -15 15 21 24 -15 -13 19 -20 -20 -5 10 29 -2 -8 -20 -20 -20 -20 -20 -20 -20 -20 -20 -20 -20 -20 -20 -20 -20 -20 -20 -20 -20 -20 -20 -20 -20 -20 -20 -20 -20 -20
-8 -19 0 8 25 4 15 13 24 -13 -2 -5 -19 -17 11 -18 -15 -8 -20 -20 -20 4 -20 -20 -20 -20 -20 -20 -20 -20 -20 -20 -20 -20 -20 -20 -20 -20 -20 -20 -20 -20 -20 -20 -20 -20 -20
-20 -20 -20 -0 12 10 -1 2 -20 0 9 -16 -19 18 -1 -20 -16 -8 -20 -20 -17 -6 -20 -20 -20 -20 -20 -20 -20 -20 -20 -20 -20 -20 -20 -20 -20 -20 -20 -20 -20 -20 -20 -20 -20 -20 -20
-20 -20 -19 9 13 -1 10 -11 -20 -19 -17 -19 -0 -20 -20 -20 -20 -20 -20 -19 -7 -20 -20 -20 -20 -20 -20 -20 -20 -20 -20 -20 -20 -20 -20 -20 -20 -20 -20 -20 -20 -20 -20 -20 -20 -20 -20
-20 9 15 22 22 -20 14 -20 -20 -4 1 -12 -20 -20 -20 -20 -20 -20 -20 -20 -20 -20 -20 -20 -20 -20 -20 -20 -20 -20 -20 -20 -20 -20 -20 -20 -20 -20 -20 -20 -20 -20 -20 -20 -20 -20 -20
-20 -5 -9 18 1 5 11 3 15 14 -18 -20 -20 -20 -20 -20 -20 -20 -20 -20 -20 -20 -20 -20 -20 -20 -20 -20 -20 -20 -20 -20 -20 -20 -20 -20 -20 -20 -20 -20 -20 -20 -20 -20 -20 -20 -20
-20 -20 -20 15 23 14 11 -18 -20 -20 -20 -4 -20 -20 -20 -20 -20 -20 -20 -20 -20 -20 -20 -20 -20 -20 -20 -20 -20 -20 -20 -20 -20 -20 -20 -20 -20 -20 -20 -20 -20 -20 -20 -20 -20 -20 -20

GFSGBSN_prec_radar_096.txt.gz
Reflectivity
-6 16 7 -2 -6 -13 13 10 -9 -20 -12 -20 0 15 -4 -10 2 15 -0 21 -13 6 -20 -20 -20 -0 -19 -20 -20 -20 -20 -20 -20 -20 -20 -15 12 6 13 5 3 -20 -20 -20 -20 -20 -20
13 15 6 -14 0 -20 4 10 6 9 -3 -4 -20 -20 -20 -20 12 11 20 -5 17 -5 11 -20 -20 -18 -20 5 -15 -20 -20 -20 -20 -20 -20 -20 -8 -20 8 18 16 -20 -20 -20 -20 -20 -20
16 8 9 14 16 11 -3 -20 -20 -20 11 -16 -20 -20 -20 -20 5 20 20 11 18 -11 -4 -0 0 -9 -20 -20 -20 -20 -20 -20 -20 -20 -18 2 6 20 14 25 -7 5 2 -20 -14 -20 12
10 1 10 -18 17 -15 -20 12 11 -20 -20 -10 -20 -20 -20 -20 -20 24 19 16 10 -6 -11 -16 -20 -20 -8 -2 -16 -20 -20 -20 -20 -20 -20 4 -3 8 11 -3 -15 -20 27 9 -20 -20 -20
4 -7 -12 15 2 6 15 -20 19 16 -2 -20 -12 -19 -20 -20 -15 26 3 30 16 -7 16 9 -17 -11 8 -9 -10 -20 -20 -20 -20 -20 -2 -16 -14 8 11 -4 -20 -14 31 32 26 -20 19
-14 14 15 -13 3 2 9 19 -18 19 27 8 -20 -20 -20 -20 -17 24 21 19 5 12 12 -20 -20 -4 14 3 -20 -20 -20 -20 -20 -20 -20 15 17 14 7 -20 -20 16 19 23 12 6 10
9 -20 6 16 19 22 17 18 20 12 -6 8 -20 -20 -20 -20 4 17 11 12 15 12 -3 11 -19 -20 -20 -20 -20 -20 -20 -20 -20 14 13 3 7 -1 -18 -20 8 22 23 25 27 24 6
6 -20 14 13 12 15 13 2 18 19 -4 10 -20 -20 -20 -20 15 12 -11 22 23 -1 -2 -20 -20 -1 6 -20 -20 -20 -20 -20 -20 5 8 3 -20 6 22 -1 -8 -1 17 24 8 7 -11
-1 2 3 16 18 11 18 19 9 7 21 21 16 -20 -20 22 19 21 8 23 18 -20 -8 -20 -15 9 3 -20 -20 -20 -20 -20 -20 -20 -10 -1 -20 3 -3 -13 5 18 15 13 5 1 -9
-15 3 8 14 19 15 9 16 14 -16 -0 24 23 -20 -20 14 5 13 12 13 -15 -16 -20 -20 11 11 -20 -20 -20 -20 -20 -20 -20 -20 -20 -20 -20 4 -18 10 18 12 -20 14 24 0 16
12 10 8 18 20 22 12 20 19 20 23 15 23 19 -20 3 19 -12 22 -8 -20 -15 -17 -18 6 -4 -17 -20 -20 -20 -20 -20 -20 -20 9 -1 -3 21 -3 15 27 20 12 11 2 -20 -20
2 1 5 19 23 18 20 19 31 16 16 13 13 12 -20 3 -4 -1 -1 21 -20 -3 -0 18 8 -17 -13 -20 -7 -20 -20 -20 -20 -12 5 -6 -19 16 16 11 37 4 15 10 12 -7 -2
27 9 13 19 18 15 25 24 30 -4 -20 18 21 20 -20 -20 20 16 -11 17 9 -13 -20 7 -9 -16 -20 2 -2 -20 -20 -20 -9 18 15 -20 -3 -20 12 23 36 -18 15 9 10 -6 6
20 10 16 15 16 15 25 37 18 23 18 -11 17 -20 -12 -1 -15 11 -8 31 0 -20 10 7 -13 -11 -19 -17 -18 -20 -20 -20 -20 -20 -17 -13 -6 29 -3 29 19 -20 10 12 -20 2 4
1 1 23 11 18 20 25 33 8 -18 5 -20 20 22 20 -20 -20 10 16 13 6 7 6 7 7 -15 -9 -6 4 -20 -20 -20 -20 -11 16 4 19 8 28 34 30 -0 -20 -20 -20 -20 -15
-20 17 22 20 13 29 23 -3 25 11 18 -10 4 0 -20 -5 -1 20 22 -20 14 9 9 -6 -20 -10 -7 -15 -12 -20 -20 -20 -14 -20 -19 -2 11 1 10 -15 -7 -1 -20 -20 -20 -20 -0
5 19 21 5 -4 10 -7 21 22 20 -3 -20 -20 0 -15 15 9 25 18 3 22 10 1 -20 -20 -20 -20 -20 -20 -20 -20 -20 -12 -3 -20 -2 4 17 24 5 -20 -17 -20 -20 -20 -20 -20
13 15 2 -16 20 22 -19 -6 21 16 -20 -20 -19 13 33 23 36 28 5 13 26 0 -20 -20 -20 -20 -20 -20 -20 -20 -20 -9 4 -7 -20 -20 -20 2 -15 10 -20 -20 -20 -20 -20 -20 -20
11 14 -10 -15 13 -14 -19 5 12 13 -20 -20 5 3 30 34 16 24 27 29 15 -13 13 13 12 -20 -20 -20 -17 -20 -20 -20 -20 -20 -20 -20 -20 -20 -14 -20 -20 -20 -20 -20 -20 -17 -20
5 6 14 14 -4 -3 8 5 12 19 -13 -20 -11 2 32 31 6 14 23 22 5 -15 -20 -20 -20 -20 -20 -20 -20 -20 -20 -20 -20 -20 -20 -20 -20 -20 -20 -20 -20 -20 -20 -20 -20 -20 -20
6 5 8 10 24 23 21 25 32 23 14 -17 -11 -20 10 10 4 13 25 22 -20 -20 -13 -20 -20 -20 -20 -20 -20 -20 -20 -20 -20 -20 -20 -20 -20 -20 -20 -20 -20 -20 -20 -20 -20 -20 -20
3 -1 -4 1 23 21 22 15 16 25 19 3 -18 6 -12 11 -1 29 26 0 -20 -20 6 7 -9 -20 -20 -20 -20 -20 -20 -20 -20 -20 -20 -20 -20 -20 -20 -20 -20 -20 -20 -20 -20 -20 -20
-14 -18 -2 -1 21 6 -2 21 7 -7 15 -11 -20 -20 -20 18 29 18 -15 -20 -20 -13 -20 -20 -15 -20 -20 -20 -20 -20 -20 -20 -20 -20 -20 -20 -20 -20 -20 -20 -20 -20 -20 -20 -20 -20 -20
-20 -20 -20 9 -12 -18 -11 18 11 -14 -20 -20 -20 -20 -20 2 -14 -20 -20 -20 -10 -16 -18 -20 -20 -20 -20 -20 -20 -20 -20 -20 -20 -20 -20 -20 -20 -20 -20 -20 -20 -20 -20 -20 -20 -20 -20
-20 -20 1 -13 -19 -7 -20 -20 -20 -20 -19 -20 -20 -20 -20 -20 -17 -16 -20 -20 -19 -20 -20 -20 -20 -20 -20 -20 -20 -20 -20 -20 -20 -20 -20 -20 -20 -20 -20 -20 -20 -20 -20 -20 -20 -20 -20
-20 -20 -20 -20 -7 -20 -20 -20 -20 -20 3 -20 -20 -20 -20 -20 -20 -20 -20 -20 -19 -20 -20 -20 -20 -20 -20 -20 -20 -20 -20 -20 -20 -20 -20 -20 -20 -20 -20 -20 -20 -20 -20 -20 -20 -20 -20
-20 -20 -20 -13 -20 -20 -20 -20 -20 -20 -20 -20 -20 -20 -20 -20 -20 -20 -10 -20 -13 -20 -20 -20 -20 -20 -20 -20 -20 -20 -20 -20 -20 -20 -10 -20 -20 -20 -20 -20 -20 -20 -20 -20 -20 -20 -20
-20 -20 -8 10 -6 -20 -20 -20 -12 -20 -20 -20 -20 -20 -20 -20 -20 -20 -20 -20 -20 -20 -20 -20 -20 -20 -20 -20 -20 -20 -20 -20 -20 -20 -20 -20 -20 -20 -20 -20 -20 -20 -20 -20 -20 -20 -20
-20 -20 -20 -15 11 -0 0 -20 -20 -8 -20 -20 -20 -20 -20 -20 -20 -20 -20 -20 -20 -20 -20 -20 -20 -20 -20 -20 -20 -20 -20 -20 -20 -20 -20 -20 -20 -20 -20 -20 -20 -20 -20 -20 -20 -20 -20

GFSGBSN_prec_radar_099.txt.gz
Reflectivity
-3 12 5 11 -20 14 14 -4 -20 -20 -20 -20 9 -20 -20 -3 -20 7 18 22 9 -14 1 -20 -19 -20 -20 -20 -20 -20 -20 -20 -20 -20 -20 -7 0 7 11 -5 -20 -12 -20 -20 -20 -20 -20
-5 5 7 14 -15 6 17 20 8 -20 -20 -20 -20 -15 -20 -20 -20 -20 -16 27 12 21 -16 -13 3 -20 -20 -20 -20 -20 -20 -20 -20 -20 -20 -20 -14 -16 7 11 9 -10 9 -20 -20 -20 -20
10 -6 -12 -1 -20 -12 5 -11 -7 13 17 -20 -20 -20 -20 -20 -20 -20 2 22 24 13 14 9 6 -20 -20 -20 -20 -20 -20 -20 -20 -20 4 -6 -17 15 12 -20 -20 4 7 -20 -20 -20 -20
5 -20 -20 5 12 -15 -15 17 -18 20 20 16 -20 -20 -20 -20 -20 -20 7 13 18 -4 25 11 19 5 -20 -20 -20 -20 -17 -20 -20 -20 -20 -14 7 12 16 -16 -6 -2 1 -20 -20 -20 -20
5 -20 -20 -20 9 16 10 -11 20 -2 3 19 -20 -20 -8 -20 -20 -12 28 0 27 -13 25 16 1 -3 -19 -20 -20 -15 -20 -20 -20 -20 -7 -20 -7 8 -5 11 8 -2 -20 -20 3 -19 -16
-20 -20 -20 -20 -20 11 19 23 12 4 27 26 -20 -20 -20 -20 -20 8 20 33 29 21 16 12 9 -5 -19 -20 -20 -20 -20 -20 -12 -7 17 -15 11 20 13 5 -8 9 9 4 28 9 -20
-20 -20 -20 3 -20 16 24 20 25 4 3 -3 27 -4 -5 -15 -20 15 26 9 33 -4 8 -20 -17 -19 -20 -20 -20 -20 -20 -20 -12 9 15 19 17 -6 0 -4 -20 4 -6 -19 28 36 9
19 -4 7 -18 -20 7 12 6 21 25 13 22 -3 -20 -20 -20 -15 9 11 15 3 -8 -5 -20 -20 8 -20 -20 -20 -20 -20 -20 -15 -17 16 9 -9 -19 -7 13 3 4 -16 -20 20 21 14
28 26 22 21 18 18 26 25 26 -6 6 20 4 -0 14 -20 -0 26 20 -16 -17 -5 19 -20 -20 3 -19 -20 -20 -20 -20 -20 -20 1 2 7 4 10 3 -8 2 -2 -4 13 23 5 -4
32 31 34 27 13 18 22 22 18 23 23 29 24 27 -12 -20 -14 8 36 22 15 -20 11 -1 1 -5 -20 -20 -20 -20 -20 -20 -20 -8 10 11 4 12 13 3 1 17 -13 20 33 34 29
33 34 6 -0 10 17 20 17 22 11 33 31 14 15 -20 -20 -1 9 4 -18 7 -19 15 4 4 -19 -15 -4 -20 -20 -20 -20 -20 -1 9 13 14 2 4 23 -4 20 -16 21 1 -14 36
29 24 -17 -3 22 15 19 24 21 37 39 -20 20 22 -18 -15 -15 6 9 -15 -14 16 10 14 1 -1 5 -20 -17 -20 -20 -20 -20 0 -9 -13 -6 -13 16 6 6 -12 7 9 10 6 26
26 -19 -14 20 7 22 7 28 29 28 15 9 10 29 -20 -13 2 -20 -12 17 16 14 -17 7 5 8 5 -4 13 -20 -20 -3 2 15 12 9 10 -20 -4 26 10 24 6 19 20 0 18
-20 -20 -1 19 -4 3 18 7 17 -20 -2 -20 -16 -20 -20 -20 3 10 -9 27 11 -17 -1 8 -9 -3 7 7 -2 -4 -20 1 -20 -4 13 20 14 -16 18 17 -6 29 32 25 12 19 11
-20 8 2 2 10 -14 -20 -20 -18 -20 -20 -20 -20 -16 -2 -16 5 -8 14 12 22 5 -19 9 -16 7 2 2 -10 -20 -20 11 12 8 16 17 7 -16 32 6 -9 -1 2 -20 13 9 -19
-20 1 4 -20 -20 -20 -11 -20 -16 -20 -20 -20 25 6 14 3 2 4 13 9 25 9 -11 -20 9 -5 -12 -20 -12 -14 7 -20 18 -20 -7 18 16 26 25 24 -16 -7 -20 -17 -20 -2 -17
8 -10 9 1 8 -20 -20 4 -20 -20 -20 -20 -2 15 -10 22 -3 10 11 26 33 -5 -20 -6 -11 6 -17 -20 -4 9 -19 -20 -19 12 10 7 34 14 22 8 -3 7 -20 -20 -20 -20 -20
13 5 10 5 -20 -20 10 -20 -16 -20 -20 -20 -19 13 -20 6 -16 14 18 10 27 -14 -20 -20 -11 4 5 -16 8 6 4 -17 -20 9 30 22 5 15 -20 -20 -20 -20 -20 -20 -20 -20 -20
12 3 5 -10 -16 -7 6 1 -18 -20 -20 -20 14 29 19 11 15 14 18 23 8 -12 -10 11 17 2 -20 12 9 -14 7 -20 -20 -20 -20 -2 4 4 -13 -19 -20 -20 -20 -20 -20 -20 -20
12 -13 -3 1 10 15 21 29 -10 -20 -20 -20 -1 25 9 11 -18 -12 9 15 -13 -20 -11 -20 8 -20 7 8 -20 -20 -18 -20 -20 -20 -20 -20 -20 -20 -15 -20 -20 -20 -20 -20 -20 -20 -20
8 -14 -5 1 -8 11 19 31 13 -20 -20 -20 -16 9 -13 0 2 6 -1 2 -20 -20 -18 -20 3 -14 9 -6 -20 -18 -20 -20 -20 -20 -20 -20 -20 -20 -20 -20 -20 -20 -20 -20 -20 -20 -20
-0 -20 -20 9 8 13 -20 -20 -20 -20 -20 -0 -20 -13 -12 5 -20 1 -15 -20 -20 -20 9 9 -10 -20 -20 -20 -20 -20 -20 -20 -20 -20 -20 -20 -20 -20 -20 -20 -20 -20 -20 -20 -20 -20 -20
-18 -20 -20 2 14 14 -17 -20 -1 -16 -20 -8 -16 -20 -19 -1 -6 -10 -20 -1 -20 -20 -20 -20 -13 -2 -19 -20 -20 -20 -20 -20 -20 -20 -20 -20 -20 -20 -20 -20 -20 -20 -20 -20 -20 -20 -20
-20 -20 -20 -15 13 4 -4 -20 -12 -20 -20 -20 -20 -20 -20 0 -11 -20 -20 -20 -20 -20 -12 -20 -20 -4 -20 -20 -20 -20 -20 -20 -20 -20 -20 -20 -20 -20 -20 -20 -20 -20 -20 -20 -20 -20 -20
-20 -20 -20 -20 -7 -20 -14 -20 -20 -20 -20 -20 -20 -20 -20 -20 -20 -20 -20 -20 -20 -20 -20 -20 -20 -20 -20 -20 -15 -18 -20 -20 -20 -20 -20 -20 -20 -20 -20 -20 -20 -20 -20 -20 -20 -20 -20
-20 -20 -18 -1 -20 -20 -20 -20 -20 -20 -20 -20 -20 -20 -20 -20 -20 -20 -20 -20 -20 -20 -20 -20 -20 -20 -20 -20 -20 -20 -20 -20 -19 -20 -20 -20 -20 -20 -20 -20 -20 -20 -20 -20 -20 -20 -20
-20 -19 11 7 -20 -20 -20 -20 -20 -18 -14 -20 -20 -20 -20 -20 -20 -20 -20 -20 -20 -20 -5 -20 -20 -20 -20 -20 -13 -20 -20 -20 -20 -20 -20 -20 -20 -20 -20 -20 -20 -20 -20 -20 -20 -20 -20
-20 -20 8 -8 -20 -20 -20 -20 -20 -20 -20 -20 -20 -20 -20 -20 -20 -20 -20 -20 -20 -20 -9 -20 -4 -20 -13 6 -18 -20 -20 -20 -20 -20 -20 -20 -20 -20 -20 -20 -20 -20 -20 -20 -20 -20 -20
-20 -20 -1 11 -20 -20 -20 -20 -12 -20 -20 -20 -20 -20 -20 -20 -20 -20 -20 -20 -20 -20 -20 -20 -17 -20 -17 -17 -20 -20 -20 -20 -20 -20 -20 -20 -20 -20 -20 -20 -20 -20 -20 -20 -20 -20 -20

GFSGBSN_prec_radar_102.txt.gz
Reflectivity
11 9 -10 -8 -10 4 -6 4 16 -8 11 10 5 0 -20 -1 -20 -17 -20 9 3 31 8 -3 -20 -7 -20 -20 -20 -20 -20 -20 -20 -20 -20 -20 -20 -20 -20 -20 -20 -20 -20 -20 -20 -20 -20
-9 6 0 -20 -6 10 14 2 5 -4 6 19 -15 13 1 -11 -10 -12 -20 -20 -11 28 -16 7 5 -8 -20 -20 -20 -20 -20 -20 -20 -20 -20 -20 -20 -7 2 -20 -8 -20 -20 -20 -20 -20 -20
9 -18 -20 1 5 0 6 14 -3 12 -1 0 -17 -16 1 -2 -20 -20 -16 -15 1 29 3 8 -6 29 1 -20 -20 -20 -20 -20 -20 -20 -20 -2 -7 -18 -10 -20 -8 -18 -20 -20 -20 -20 -20
-17 -18 3 5 -2 -20 -20 -2 12 -10 18 13 19 26 -10 -4 -14 -20 -20 -2 21 14 -5 36 7 17 1 -20 -20 -20 -20 -20 -20 -20 -20 -20 -13 -3 -14 -20 -20 -20 -7 4 -20 -20 -20
7 13 2 -20 -20 -20 -20 -20 5 14 2 21 9 9 21 -20 -20 -19 15 28 20 13 -14 19 -19 15 -18 -20 -20 -20 -20 -20 -20 -10 -8 -20 -20 -14 -9 -1 -14 -20 -20 -20 -20 -20 -18
17 18 21 21 24 12 -19 10 22 24 23 28 24 29 19 -18 -20 -20 13 30 29 25 26 14 24 19 10 -20 -20 -20 -20 -20 -20 3 13 -1 -17 -5 9 11 -16 2 14 -9 -20 -20 25
24 24 27 35 26 34 -6 22 21 19 41 34 23 30 26 27 -20 -20 -2 3 31 46 24 23 -9 -11 -16 -20 -20 -20 -20 -20 -20 -20 -3 -20 -9 -15 -20 -20 -20 -20 -17 -5 -20 -20 16
21 36 32 29 31 19 18 4 16 18 33 24 21 21 -4 -19 -19 -17 -8 19 -11 19 22 34 31 -1 -17 -20 -20 -20 -20 -20 -20 -0 -12 13 -20 -20 -20 -20 7 9 2 -11 -20 16 -20
36 21 23 4 -10 8 14 5 14 19 24 24 24 22 -1 -1 21 15 7 6 26 -14 -10 3 -16 12 -1 -20 -15 -20 -20 -20 -16 -1 -9 -4 -17 -20 -8 4 14 -6 -10 -20 13 7 11
26 27 -11 3 10 5 10 10 17 18 3 -16 -18 23 30 3 -19 6 35 27 8 5 27 2 -20 -16 -20 -17 -20 -20 -20 -20 -20 -20 -6 -14 -20 -20 12 7 16 -11 19 13 18 21 25
18 1 7 6 -7 -18 15 12 20 26 -17 -2 -18 8 18 -18 18 20 17 29 13 19 9 17 6 -2 -16 -18 -20 -20 -20 -8 -20 -2 -19 -20 12 -3 -9 -4 -20 -20 -20 -19 1 28 33
-20 -9 3 -1 -20 -14 -6 5 -20 -20 -20 -20 -9 -20 -10 -20 -20 -7 -6 -3 8 2 10 24 -5 -1 -7 -20 -20 -20 -20 -20 -20 -17 -13 -20 -20 -11 4 7 6 -20 -20 -17 -15 8 26
-20 4 -5 -11 -14 -20 -12 -9 -20 -20 -20 -20 -18 -20 -14 11 22 1 -20 -20 1 10 16 -19 -14 -18 1 -20 -3 -20 -20 -20 -8 -8 -20 -19 -14 -1 -20 -20 -20 -5 22 9 8 16 21
-20 -2 -2 -8 -20 -20 -14 -20 -20 -20 -20 -20 -20 -20 -20 5 14 -20 -20 -8 10 13 23 -18 -20 -4 3 6 6 -20 -20 -20 -20 -5 -18 -12 9 -20 -20 11 2 22 -1 20 21 22 24
-20 -20 12 -11 -20 -16 -18 -20 -20 -20 -20 -20 -20 -1 7 -18 -13 -20 -10 14 17 18 -2 -15 8 2 -6 -20 -20 -20 -20 -16 15 6 20 -2 8 4 -19 -7 11 20 4 11 24 24 10
-20 -20 8 -18 -20 -20 -20 -20 -20 -20 -20 -20 -20 7 -20 7 -14 -20 -8 20 25 -6 -2 8 4 -12 -20 -20 -20 -20 -20 -1 -1 -20 -20 4 -3 14 1 -16 -20 -20 -20 -20 10 3 17
-20 -20 -6 -20 -2 -20 -20 -20 -20 -20 -20 -20 -20 -20 -0 -1 -20 -20 3 11 4 -11 -19 3 12 -5 -20 -20 -20 19 17 -20 -20 3 22 25 31 23 -12 1 -20 -20 -20 -20 -20 -20 -4
-1 0 -20 -16 7 -20 -20 -20 -20 -20 -20 -20 -20 -19 -5 -19 -20 -18 8 6 -20 -20 -20 -20 9 -20 -20 -20 -3 16 19 10 -1 31 33 27 32 -13 -20 -20 -20 -20 -20 -20 -20 -20 -20
-0 2 -3 -20 3 3 -20 -20 -20 -20 -20 -20 -0 -16 -17 -1 -14 -11 -4 -17 -20 -20 10 -9 -20 -20 -20 18 -17 6 -18 -10 -6 -20 -20 -19 -20 -3 -14 -20 -20 -20 -20 -20 -20 -20 -20
4 -0 -19 -13 3 12 8 14 7 -20 -20 -17 -9 -9 -17 -20 -20 -14 -20 -20 -20 -20 3 -20 -20 -20 6 -1 -20 -20 -20 -20 -20 -20 -19 -16 -20 -20 -20 -20 -20 -20 -20 -20 -20 -20 -20
-2 -4 9 2 -18 10 15 12 15 -20 -20 -20 -19 -17 -19 -19 6 -20 -20 -20 -20 -20 -16 -20 -20 -10 9 -6 -20 -18 -20 -20 -20 -20 -20 -19 -20 -20 -20 -20 -20 -20 -20 -20 -20 -20 -20
-20 -20 9 12 17 12 9 6 15 -20 -20 -20 -18 -15 -14 -20 -20 -20 -20 -20 -20 -20 -2 -20 9 -20 -20 -20 -20 -20 -20 -20 -20 -20 -20 -20 -20 -20 -20 -20 -20 -20 -20 -20 -20 -20 -20
-20 -20 -13 5 -1 -1 -0 -16 9 -20 -20 -20 -20 -20 -20 1 -20 -17 -20 -20 -20 -20 -20 -20 -20 -6 -20 -20 -20 -20 -20 -20 -20 -20 -20 -20 -20 -20 -20 -20 -20 -20 -20 -20 -20 -20 -20
-20 -20 -20 -20 9 -13 -20 -20 -8 -20 -20 -20 -20 -20 -20 -12 -20 -20 -20 -20 -20 -20 -20 -20 -20 -20 -20 -20 -20 -20 -20 -20 -20 -20 -20 -20 -20 -20 -20 -20 -20 -20 -20 -20 -20 -20 -20
-20 -20 -20 -20 7 -20 -20 -20 -20 -20 -20 -20 -20 -20 -20 -20 -20 -20 -20 -20 -20 -20 -20 -20 -20 -20 -20 -20 -20 -20 -20 -20 -20 -20 -20 -20 -20 -20 -20 -20 -20 -20 -20 -20 -20 -20 -20
-20 -20 -16 -0 7 -20 -20 -20 -20 -20 -20 -20 -20 -20 -20 -20 -20 -20 -20 -20 -20 -20 -20 -20 -20 -20 -20 -20 -20 -20 -20 -20 -20 -20 -20 -20 -20 -20 -20 -20 -20 -20 -20 -20 -20 -20 -20
-20 -20 -20 8 10 -20 -20 -20 -20 -20 -20 -20 -20 -20 -20 -20 -20 -20 -20 -20 -20 -20 -20 -20 -20 -20 -20 -20 -20 -20 -20 -20 -20 -20 -20 -20 -20 -20 -20 -20 -20 -20 -20 -20 -20 -20 -20
-20 -20 -18 -0 -20 -20 -20 -20 -20 -20 -20 -20 -20 -20 -20 -20 -20 -20 -20 -20 -20 -20 -20 -20 -20 -20 -20 -20 -20 -20 -20 -20 -20 -20 -20 -20 -20 -20 -20 -20 -20 -20 -20 -20 -20 -20 -20
-20 -20 -20 -14 -20 -20 -20 -20 -20 -20 -20 -20 -20 -20 -20 -20 -20 -20 -20 -20 -20 -20 -20 -20 -20 -20 -20 -20 -20 -20 -20 -20 -20 -20 -20 -20 -20 -20 -20 -20 -20 -20 -20 -20 -20 -20 -20

GFSGBSN_prec_radar_105.txt.gz
Reflectivity
-20 -10 -8 11 21 21 16 14 23 17 15 17 9 10 5 6 10 16 15 8 -3 10 33 23 6 20 -10 -20 -20 -20 -20 -20 -20 -20 -20 -20 -20 -20 -20 -20 -20 -20 -20 -20 -20 -20 -20
14 16 19 18 4 -17 -18 -12 -18 2 10 14 20 16 4 6 6 9 16 8 13 17 23 24 34 -20 -20 -20 -20 -20 -20 -20 -20 -20 -20 -20 -20 -20 -20 -20 -20 -20 -20 -20 -20 -20 -20
18 15 13 19 18 11 -12 -20 4 -3 6 -1 13 22 20 2 -20 -20 -1 2 4 12 23 5 28 -20 -3 -17 -20 -20 -20 -20 -20 -20 -20 -19 -20 -3 -6 -20 -20 -20 -20 -20 -20 -20 -20
21 19 17 21 20 24 21 9 10 -2 16 24 24 9 18 -9 20 -20 -20 -8 -1 15 9 17 39 -0 -19 23 16 -20 -20 -20 -20 -20 -20 -20 -20 1 -16 -20 -20 -20 -20 -20 -20 -20 -20
11 18 28 32 30 21 22 14 -17 11 20 21 -11 31 31 13 20 -20 -20 34 12 25 20 34 27 30 -3 6 -13 -20 -20 -20 -20 -20 -10 -2 -20 -8 -14 -20 -20 -20 -20 -20 -20 -20 -20
17 29 19 18 19 15 10 -0 14 9 20 -15 -4 36 37 30 25 -20 -6 31 25 26 27 18 -13 8 -10 1 -19 -20 -20 -20 -20 13 11 -0 -4 -20 4 -15 -20 -20 -20 -20 -20 -20 -19
23 19 4 -19 -20 7 -20 -20 12 -6 25 -5 25 29 33 25 14 -1 6 20 33 32 10 2 -5 -7 10 13 -10 -20 -20 -20 -20 10 9 -3 -17 -20 -20 -20 -20 -20 -20 -20 -20 -20 3
7 12 -20 2 4 7 4 4 8 4 18 22 -19 23 13 12 -20 0 -20 -12 15 36 33 31 27 -1 -10 -20 -20 -20 -20 -20 -20 -14 5 -14 -20 -20 -20 -20 -20 -20 -0 -20 -20 -20 -17
0 -20 4 -13 12 10 10 1 4 14 21 16 -5 -12 -20 -20 -20 -9 -20 2 33 4 6 32 27 15 -10 -20 -15 -20 -20 -20 -1 -15 -20 -20 -20 -20 -20 -20 -9 -6 -3 -20 -20 -20 -20
-20 -15 14 4 -1 -1 11 -20 -15 2 11 -20 -20 -2 -20 -20 -20 -20 -20 -20 -5 -7 15 11 5 11 12 -1 4 -20 -20 -19 -20 -20 -20 -20 -20 -20 -20 -2 -11 2 -18 -13 4 -13 -13
-20 10 2 -2 -20 -20 -5 -20 -20 0 -18 7 -20 -2 -20 -20 -20 19 10 -13 -9 -19 -19 12 6 -10 5 -12 -20 -20 -20 -20 -20 -20 -20 -20 8 -20 -20 -20 -6 -18 -20 -20 -20 3 25
-20 9 12 -20 -20 -6 -20 -19 -20 -20 11 12 -20 -20 -20 -20 -20 -20 -19 -10 -19 -7 -3 20 11 28 3 -20 -20 -20 -20 -20 -20 -20 -20 -20 -20 -20 -20 -20 -10 -20 -20 -11 -13 6 19
-20 6 15 -20 -20 4 -20 -20 -20 -20 -20 4 -9 -20 -4 -19 -20 -20 -20 -20 7 2 18 -18 -7 -20 -20 -20 -20 -20 -20 -20 -17 -20 -20 -20 -20 -20 -11 -20 -20 -20 8 8 19 24 11
-20 7 12 -14 -20 5 -20 -20 -20 -20 -20 -20 -20 -20 -20 -20 -20 -20 -13 1 1 13 -19 -20 -20 4 5 -20 -4 -20 -20 -20 -20 -20 -20 -20 -20 -20 -20 -11 -3 -20 24 15 13 11 22
-20 10 6 -13 -20 -13 -7 -20 -20 -20 -20 -20 -20 -20 -20 -20 -20 -20 -20 -18 14 15 -17 -2 7 -20 1 -20 -20 -20 -20 -20 -12 -20 11 -4 -20 -4 -19 -20 -3 -20 30 31 24 33 13
-20 11 1 12 -20 -20 -20 -20 -20 -20 -20 -20 -20 -20 -20 -18 -20 -20 -20 15 13 -12 -20 -20 7 -20 -20 -20 -20 -20 -20 -20 12 -1 -20 -17 -18 -12 -20 -20 -20 8 22 20 10 14 25
-20 4 0 -20 -20 -6 -20 -20 -20 -20 -20 -20 -20 -20 -20 -20 -20 -20 -6 16 -13 -13 -10 -19 -20 -20 -20 -16 3 -20 -19 -16 -6 20 22 29 17 -20 -19 -20 -20 -20 11 -2 -20 -6 -5
-20 -5 2 -15 -20 11 -8 -20 -20 -20 -20 -20 -20 -20 -20 -20 -20 -20 -20 -20 -20 -20 -20 -20 -20 -20 -20 -20 -20 -6 11 16 19 1 25 -11 -19 -20 -20 -20 -20 -20 -9 -17 -20 2 -20
-20 -17 -12 -20 -20 -17 -13 13 4 -20 -20 -20 -20 -20 -20 -20 -20 -20 -20 -20 -20 -20 -20 -20 -20 -20 -20 -20 -20 0 3 -20 -12 15 -19 -20 -20 -20 -20 -20 -20 -20 -20 -20 -20 -20 -20
-20 -20 -19 -20 -20 -20 -10 -11 -20 -20 -20 -20 -20 -20 -20 -20 -20 -20 -20 -20 -20 -20 -20 -20 -20 -20 -20 -20 -20 -20 -20 -20 -20 -20 -20 -20 -20 -20 -20 -20 -20 -20 -20 -20 -20 -20 -20
-20 -20 -20 -16 -5 -1 -20 -4 -18 -20 -20 -20 -20 -20 -20 -20 -20 -20 -20 -20 -20 -20 -20 -20 -20 -20 -20 -20 -20 -20 -20 -20 -20 -20 -20 -20 -20 -20 -20 -20 -20 -20 -20 -20 -20 -20 -20
-20 -20 10 13 -1 3 7 -20 -20 -20 -20 -20 -20 -20 -20 -20 -20 -20 -20 -20 -20 -20 -20 -20 -20 -20 -20 -20 -20 -20 -20 -20 -20 -20 -20 -20 -20 -20 -20 -20 -20 -20 -20 -20 -20 -20 -20
-20 -20 -18 17 -13 -20 -20 -20 -20 -20 -20 -20 -20 -20 -20 -20 -20 -20 -20 -20 -20 -20 -20 -20 -20 -20 -20 -20 -20 -20 -20 -20 -20 -20 -20 -20 -20 -20 -20 -20 -20 -20 -20 -20 -20 -20 -20
-20 -20 -20 12 -9 -20 -20 -20 -20 -20 -20 -20 -20 -20 -20 -20 -20 -20 -20 -20 -20 -20 -20 -20 -20 -20 -20 -20 -20 -20 -20 -20 -20 -20 -20 -20 -20 -20 -20 -20 -20 -20 -20 -20 -20 -20 -20
-20 -20 -20 -6 9 -20 -20 -20 -20 -20 -20 -20 -20 -20 -18 -20 -20 -20 -20 -20 -20 -20 -20 -20 -20 -20 -20 -20 -20 -20 -20 -20 -20 -20 -20 -20 -20 -20 -20 -20 -20 -20 -20 -20 -20 -20 -20
-20 -20 -20 -20 1 -20 -20 -20 -20 -20 -20 -20 -20 -20 -20 -20 -20 -20 -20 -20 -20 -20 -20 -20 -20 -20 -20 -20 -20 -20 -20 -20 -20 -20 -20 -20 -20 -20 -20 -20 -20 -20 -20 -20 -20 -20 -20
-20 -20 -20 -20 -20 -20 -20 -20 -20 -20 -20 -20 -20 -20 -20 -20 -20 -20 -20 -20 -20 -20 -20 -20 -20 -20 -20 -20 -20 -20 -20 -20 -20 -20 -20 -20 -20 -20 -20 -20 -20 -20 -20 -20 -20 -20 -20
-20 -20 -20 -20 -20 -20 -20 -20 -20 -20 -20 -20 -20 -20 -20 -20 -20 -20 -20 -20 -20 -20 -20 -20 -20 -20 -20 -20 -20 -20 -20 -20 -20 -20 -20 -20 -20 -20 -20 -20 -20 -20 -20 -20 -20 -20 -20
-20 -20 -20 -20 -20 -20 -20 -20 -20 -20 -20 -20 -20 -20 -20 -20 -20 -20 -20 -20 -20 -20 -20 -20 -20 -20 -20 -20 -20 -20 -20 -20 -20 -20 -20 -20 -20 -20 -20 -20 -20 -20 -20 -20 -20 -20 -20

GFSGBSN_prec_radar_108.txt.gz
Reflectivity
23 21 20 21 22 22 25 20 23 7 5 7 2 25 23 22 7 5 15 14 14 9 2 10 7 13 11 -8 -19 -20 -20 -20 -20 -20 -20 -20 -20 -20 -20 -20 -20 -20 -20 -20 -20 -20 -20
22 20 23 23 23 25 33 38 26 22 12 -20 -1 22 22 27 25 16 -15 -1 8 10 9 5 29 20 1 30 -6 -20 -20 -20 -20 -20 -20 -20 -20 -20 -20 -20 -20 -20 -20 -20 -20 -20 -20
15 17 21 -2 -7 -6 -12 24 -10 24 12 -20 -2 24 15 26 22 2 -20 -17 -18 -2 9 34 37 30 30 29 -20 -20 -20 -20 -20 -20 -20 -20 -20 -20 -20 -20 -20 -20 -20 -20 -20 -20 -20
25 -19 -12 1 9 10 24 -20 -20 -1 -18 21 21 -2 -19 28 21 13 -20 -20 -18 -20 -13 42 16 8 33 14 1 -17 -20 -20 -20 -20 -20 -20 -20 -20 -2 -20 -20 -20 -18 -20 -20 -20 -20
-20 -2 0 -20 -5 12 18 23 -1 8 16 16 15 5 1 13 21 13 -20 -0 -1 14 7 37 6 12 36 9 8 11 -19 -20 -20 -20 -20 -20 -20 -9 -2 -11 -20 -20 -20 -20 -20 -20 -20
20 13 -20 14 -12 20 18 17 21 10 6 9 6 32 33 18 22 3 14 31 33 15 31 16 22 30 25 1 3 -12 -20 -20 -20 6 10 4 -12 -20 -19 2 -20 -20 -20 -20 -20 -20 -20
7 -20 13 2 21 13 19 11 16 22 -20 17 20 25 23 29 22 4 9 31 18 30 31 33 28 15 13 18 19 -19 -20 -20 6 -0 -20 -16 -15 -20 -20 -20 -20 -20 -20 -20 -20 -20 -20
-20 -9 -5 16 16 11 21 7 20 12 5 17 9 -12 21 20 25 -4 12 27 27 32 35 26 -8 11 9 21 -17 -20 -20 -20 -7 -20 -6 -2 -10 -20 -20 -20 -20 -20 -20 -20 -20 -20 -20
-20 8 -18 12 6 13 19 -2 13 8 14 12 -10 -20 -20 -20 0 -20 -13 24 7 27 36 33 22 22 -5 -19 -20 -20 -20 -20 -20 -20 -20 -20 -20 -20 -20 -20 -13 -0 -14 -20 -20 -20 -20
-20 -2 7 10 6 4 19 -18 21 20 -1 -20 -20 -20 -20 -20 -20 -20 -20 23 12 -17 6 30 25 29 6 -15 -20 -20 -20 -20 -20 -20 -20 -20 -20 -20 -20 -20 -20 -1 -20 -13 2 13 -1
-18 4 -4 9 6 7 13 -5 19 21 -20 -20 -20 -20 -20 -20 -20 9 -15 -14 -20 -18 -19 11 4 -20 -15 1 -20 -20 -20 -20 -20 -20 -19 -20 -18 10 -20 -20 -7 -0 -20 -20 -20 -20 -14
5 -17 4 1 0 1 1 6 -20 -20 -20 -20 -20 -20 -20 -20 -20 -20 -20 -20 -20 -20 -5 17 10 18 -13 -20 -20 -20 -20 -20 -20 -20 -20 -20 -20 -20 -20 -20 -0 -20 -20 -20 -20 8 6
4 -20 10 -8 -9 -20 3 -16 -20 -20 -20 -20 -20 -20 -20 -20 -20 -20 -20 -20 -20 -19 10 19 -3 -20 -20 -20 -20 -20 -20 -20 -20 -20 -20 -20 -20 -20 -20 -16 -20 1 1 -20 -20 11 -20
2 -10 -15 -6 -2 -20 -19 -20 -20 -20 -20 -20 -20 -20 -20 -20 -20 -20 -20 -20 -6 7 -19 -20 -20 -20 -20 -20 -20 -20 -20 -20 -20 -20 -20 -20 -20 -20 -20 -20 -8 -20 -2 8 -8 12 0
4 6 -13 -17 -10 -7 -20 -20 -20 -20 -20 -20 -20 -20 -20 -20 -20 -20 -20 -20 -8 -17 -11 -20 -20 -20 -20 -20 -20 -20 -20 -20 -19 -20 -18 -16 -20 -20 -20 -14 -20 -20 19 26 16 20 11
-6 0 -4 -20 -20 -19 1 -20 -20 -20 -20 -20 -20 -20 -20 -20 -20 -20 -20 3 -13 -20 -20 -20 -20 -20 -20 -20 -20 -20 -20 -20 9 -5 -20 -17 -18 -20 -20 -20 -20 -20 23 24 16 3 -18
-20 -13 3 -16 -20 -20 -18 -14 -20 -20 -20 -20 -20 -20 -20 -20 -20 -20 -11 19 -15 -20 -20 -20 -20 -20 -20 -20 -20 -8 5 5 19 16 5 19 -8 -16 6 -19 -20 12 27 19 -4 -20 -17
-20 -20 1 -20 -20 -20 -20 -19 -20 -20 -20 -20 -20 -20 -20 -20 -20 -20 -20 -20 -20 -20 -20 -20 -20 -20 -20 0 16 30 5 -16 -17 -12 -20 -20 -20 -16 -20 -4 -11 13 10 5 -20 2 -20
-20 -20 9 -19 -20 -20 -20 -20 -20 -20 -20 -20 -20 -20 -20 -20 -20 -20 -20 -20 -20 -20 -20 -20 -20 -20 -20 -20 -20 -20 -20 -20 -20 -20 -20 -20 -20 -20 -20 -20 -20 -20 -8 -20 9 16 4
-20 -20 1 -14 11 8 -20 -20 -20 -20 -20 -20 -20 -20 -20 -20 -20 -20 -20 -20 -20 -20 -20 -20 -20 -20 -20 -20 -20 -20 -20 -20 -20 -20 -20 -20 -20 -20 -20 -20 -20 -20 -20 -20 -20 -18 -14
-20 -20 -4 -20 13 12 8 -20 -20 -20 -20 -20 -20 -20 -20 -20 -20 -20 -20 -20 -20 -20 -20 -20 -20 -20 -20 -20 -20 -20 -20 -20 -20 -20 -20 -20 -20 -20 -20 -20 -20 -20 -20 -20 -20 -20 -18
-20 -20 -20 -20 -20 -11 7 -20 -20 -20 -20 -20 -20 -20 -20 -20 -20 -20 -20 -20 -20 -20 -20 -20 -20 -20 -20 -20 -20 -20 -20 -20 -20 -20 -20 -20 -20 -20 -20 -20 -20 -20 -20 -20 -20 -20 -20
-20 -20 -20 -20 -20 -20 -20 -20 -20 -20 -20 -20 -20 -20 -20 -20 -20 -20 -20 -20 -20 -20 -20 -20 -20 -20 -20 -20 -20 -20 -20 -20 -20 -20 -20 -20 -20 -20 -20 -20 -20 -20 -20 -20 -20 -20 -20
-20 -20 -20 -20 -20 -20 2 -18 -20 -20 -20 -20 -20 -20 -20 -20 -20 -20 -20 -20 -20 -20 -20 -20 -20 -20 -20 -20 -20 -20 -20 -20 -20 -20 -20 -20 -20 -20 -20 -20 -20 -20 -20 -20 -20 -20 -20
-20 -20 -20 -20 -20 -17 -20 -20 -20 -20 -20 -20 -20 -20 -20 -20 -20 -20 -20 -20 -20 -20 -20 -20 -20 -20 -20 -20 -20 -20 -20 -20 -20 -20 -20 -20 -20 -20 -20 -20 -20 -20 -20 -20 -20 -20 -20
-20 -20 -20 -20 -20 -20 -20 -20 -20 -20 -20 -20 -20 -20 -20 -20 -20 -20 -20 -20 -20 -20 -20 -20 -20 -20 -20 -20 -20 -20 -20 -20 -20 -20 -20 -20 -20 -20 -20 -20 -20 -20 -20 -20 -20 -20 -20
-20 -20 -20 -20 -20 -20 -20 -20 -20 -20 -20 -20 -20 -20 -20 -20 -20 -20 -20 -20 -20 -20 -20 -20 -20 -20 -20 -20 -20 -20 -20 -20 -20 -20 -20 -20 -20 -20 -20 -20 -20 -20 -20 -20 -20 -20 -20
-20 -20 -20 -20 -20 -20 -20 -20 -20 -20 -20 -20 -20 -20 -20 -20 -20 -20 -20 -20 -20 -20 -20 -20 -20 -20 -20 -20 -20 -20 -20 -20 -20 -20 -20 -20 -20 -20 -20 -20 -20 -20 -20 -20 -20 -20 -20
-20 -20 -20 -20 -20 -20 -20 -20 -20 -20 -20 -20 -20 -20 -20 -20 -20 -20 -20 -20 -20 -20 -20 -20 -20 -20 -20 -20 -20 -20 -20 -20 -20 -20 -20 -20 -20 -20 -20 -20 -20 -20 -20 -20 -20 -20 -20

GFSGBSN_prec_radar_111.txt.gz
Reflectivity
5 21 4 14 15 12 11 -0 2 25 37 38 33 -9 -20 -3 8 -15 15 11 9 22 16 14 35 29 27 -20 -20 -20 4 -20 -20 -20 -20 -20 -20 -20 -20 -20 -20 -20 -20 -20 -20 -20 -20
22 -13 22 -13 -20 -20 -1 9 2 22 28 7 26 14 -16 -20 -11 -5 -20 -6 7 8 19 18 25 5 18 -19 -16 -19 -20 -20 -20 -20 -20 -20 -20 -20 -20 -20 -20 -20 -20 -20 -20 -20 -20
6 23 -20 -20 9 6 8 22 20 5 16 20 -10 3 4 -20 -20 -2 -10 17 -13 6 7 8 27 38 3 1 20 -2 -16 -20 -20 -20 -20 -20 -20 -20 -20 -20 -20 -20 -20 -20 -20 -20 -20
20 -20 -2 -4 -3 17 22 15 17 3 21 4 -1 -20 -20 -20 -13 22 7 -20 -20 -0 5 28 31 16 29 20 18 24 4 -20 -20 -20 -20 -20 -20 -20 -17 -20 -20 -20 -20 -20 -20 -20 -20
-20 -4 -20 8 7 10 15 12 10 14 9 20 -3 28 28 23 -20 35 13 -20 -20 -20 -14 35 38 40 32 30 29 15 -17 -20 -20 -20 -20 -20 -20 -20 -20 -20 -20 -20 -20 -20 -20 -20 -20
-20 12 -20 7 5 8 -17 12 13 3 0 -20 -16 17 29 28 23 27 -17 -20 27 -2 34 35 32 34 20 27 10 -5 -20 -20 -20 -20 -1 -17 -9 -20 -19 -16 -20 -20 -20 -20 -20 -20 -20
8 13 6 -13 -20 9 -20 14 8 3 -12 -20 -20 20 21 7 15 16 -16 36 28 10 18 33 28 28 20 19 16 27 -2 -20 -20 -20 -20 -20 -20 -20 -20 -20 -20 -20 -20 -20 -20 -20 -20
11 10 3 -15 5 7 -11 18 18 12 -3 -20 -20 -20 -20 8 -3 -5 -4 24 29 32 33 33 26 4 20 16 1 -9 -20 -20 -20 -20 -16 -2 -20 -20 -20 -20 -20 -20 -20 -20 -20 -20 -20
3 10 3 -1 -20 -3 -20 19 1 11 8 -16 -20 -20 -20 -20 -14 8 24 28 38 32 32 33 28 27 14 -4 -20 -20 -20 -20 -20 -20 -20 -20 -20 -20 -20 -20 -20 -20 -20 -20 -20 -20 -20
-10 11 4 1 -6 -6 -20 -17 9 11 -20 -20 -20 -20 -20 -20 -20 -20 10 21 -12 14 22 31 26 23 3 -20 -20 -20 -20 -20 -18 -20 -20 -20 -20 -20 -20 -20 -20 -19 -20 -20 -20 9 -20
-3 11 7 4 -8 -20 -20 -20 -20 13 6 -20 -20 -20 -20 -20 -20 -9 -20 -20 -20 -20 -20 19 15 -14 -18 -20 -20 -20 -20 -20 -20 -20 -20 -20 -20 -20 -10 -20 -20 -18 -20 -20 4 9 -0
2 -15 10 7 -20 -20 -20 -20 -20 -20 9 3 -20 -20 -20 -20 -20 -8 -20 -20 -20 -20 4 -19 2 7 -13 -20 -20 -20 -20 -20 -20 -20 -20 -20 -20 -20 -20 -20 -20 -17 -20 -20 -20 -2 5
-20 -20 7 8 -11 -20 -20 -20 -20 -20 -20 7 -20 -20 -20 -20 -20 -20 -20 -20 -20 -20 -3 14 -15 -20 -20 -20 -20 -20 -20 -20 -20 -20 -20 -20 -20 -20 -20 -20 -20 -15 10 -20 -20 -19 -20
-20 -10 -2 8 -20 -20 -20 -20 -20 -20 -20 -20 -20 -20 -20 -20 -20 -20 -20 -20 -20 -1 -3 -20 -20 -20 -20 -20 -20 -20 -20 -20 -20 -20 -20 -20 -20 -20 -20 -20 -9 -20 -3 -6 -17 -20 -18
-20 -3 -13 2 7 -20 -20 -20 -20 -20 -20 -20 -20 -20 -20 -20 -20 -20 -20 -20 -5 -20 -20 -20 -19 -20 -20 -20 -20 -20 -20 -20 -20 -20 -20 -17 -20 -20 -20 -20 -18 -19 6 19 11 -4 8
-20 -13 3 -20 6 -20 -20 -20 -20 -20 -20 -20 -20 -20 -20 -20 -20 -20 -20 -10 -20 -20 -20 -20 -20 -20 -20 -20 -20 -20 -20 -19 -16 -20 -20 -18 -13 -20 -20 -19 -20 -9 17 9 12 2 8
-20 -19 -7 -17 -15 4 -20 -20 -20 -20 -20 -20 -20 -20 -20 -20 -20 -20 -20 -20 -20 -20 -20 -20 -20 -20 -20 -20 -2 12 12 -20 -7 6 -8 -2 -2 -20 -20 -17 11 23 24 6 5 -18 1
-20 -17 -20 -15 5 4 5 -20 -20 -20 -20 -20 -20 -20 -20 -20 -20 -20 -20 -20 -20 -20 -20 -20 -20 -20 -20 -17 6 5 15 -18 -20 -20 -19 -20 -20 -20 -20 -20 4 18 -5 -19 -20 -20 -20
-20 -20 -14 -20 -2 -18 6 -19 -20 -20 -20 -20 -20 -20 -20 -20 -20 -20 -20 -20 -20 -20 -20 -20 -20 -20 -20 -20 -20 -20 -20 -20 -20 -20 -20 -20 -20 -20 -20 -20 -20 -20 -20 -20 -20 -20 -9
-20 -20 -20 -17 -20 15 12 -17 -20 -20 -20 -20 -20 -20 -20 -20 -20 -20 -20 -20 -20 -20 -20 -20 -20 -20 -20 -20 -20 -20 -20 -20 -20 -20 -20 -20 -20 -20 -20 -20 -20 -20 -20 -16 4 -11 -20
-20 -20 -20 -6 -20 -18 10 -20 -20 -20 -20 -20 -20 -20 -20 -20 -20 -20 -20 -20 -20 -20 -20 -20 -20 -20 -20 -20 -20 -20 -20 -20 -20 -20 -20 -20 -20 -20 -20 -20 -20 -20 -20 -20 -20 -20 -16
-20 -20 -20 -20 -5 -20 -20 -20 -20 -20 -20 -20 -20 -20 -20 -20 -20 -20 -20 -20 -20 -20 -20 -20 -20 -20 -20 -20 -20 -20 -20 -20 -20 -20 -20 -20 -20 -20 -20 -20 -20 -20 -20 -20 -20 -20 -20
-20 -20 -20 -20 -7 0 -20 -20 -20 -20 -20 -20 -20 -20 -20 -20 -20 -20 -20 -20 -20 -20 -20 -20 -20 -20 -20 -20 -20 -20 -20 -20 -20 -20 -20 -20 -20 -20 -20 -20 -20 -20 -20 -20 -20 -20 -20
-20 -20 -20 -20 -9 -20 -20 -20 -20 -20 -20 -20 -20 -20 -20 -20 -20 -20 -20 -20 -20 -20 -20 -20 -20 -20 -20 -20 -20 -20 -20 -20 -20 -20 -20 -20 -20 -20 -20 -20 -20 -20 -20 -20 -20 -20 -20
-20 -20 -20 -20 -20 -16 -20 -20 -20 -20 -20 -20 -20 -20 -20 -20 -20 -20 -20 -20 -20 -20 -20 -20 -20 -20 -20 -20 -20 -20 -20 -20 -20 -20 -20 -20 -20 -20 -20 -20 -20 -20 -20 -20 -20 -20 -20
-20 -20 -20 -20 -20 -20 -20 -20 -20 -20 -20 -20 -20 -20 -20 -20 -20 -20 -20 -20 -20 -20 -20 -20 -20 -20 -20 -20 -20 -20 -20 -20 -20 -20 -20 -20 -20 -20 -20 -20 -20 -20 -20 -20 -20 -20 -20
-20 -20 -20 -20 -20 -20 -20 -20 -20 -20 -20 -20 -20 -20 -20 -20 -20 -20 -20 -20 -20 -20 -20 -20 -20 -20 -20 -20 -20 -20 -20 -20 -20 -20 -20 -20 -20 -20 -20 -20 -20 -20 -20 -20 -20 -20 -20
-20 -20 -20 -20 -20 -20 -20 -20 -20 -20 -20 -20 -20 -20 -20 -20 -20 -20 -20 -20 -20 -20 -20 -20 -20 -20 -20 -20 -20 -20 -20 -20 -20 -20 -20 -20 -20 -20 -20 -20 -20 -20 -20 -20 -20 -20 -20
-20 -20 -20 -20 -20 -20 -20 -20 -20 -20 -20 -20 -20 -20 -20 -20 -20 -20 -20 -20 -20 -20 -20 -20 -20 -20 -20 -20 -20 -20 -20 -20 -20 -20 -20 -20 -20 -20 -20 -20 -20 -20 -20 -20 -20 -20 -20

GFSGBSN_prec_radar_114.txt.gz
Reflectivity
12 -20 -15 -15 -20 9 17 20 21 23 3 -2 30 32 12 19 -20 -1 3 26 3 -3 -20 -20 16 26 4 35 32 -12 -6 10 -20 -20 -20 -20 -20 -20 -20 -20 -20 -20 -20 -20 -20 -20 -20
-20 -17 -20 -11 -11 -19 2 -4 6 8 23 -6 23 10 10 -18 -19 -17 -20 -20 22 -5 -0 -20 11 23 24 28 33 -11 -16 -20 -20 -20 -20 -20 -20 -20 -20 -20 -20 -20 -20 -20 -20 -20 -20
-20 5 -4 -20 13 11 -20 5 -1 14 12 -8 -18 -20 -20 2 -20 -20 -20 5 -18 -20 -10 -20 9 39 39 34 28 21 -20 -20 -20 -20 -20 -20 -20 -20 -20 -20 -20 -20 -20 -20 -20 -20 -20
-20 14 12 9 13 -18 28 14 2 11 16 -20 -20 -4 -3 -20 -20 -20 22 -20 -20 -20 -20 -20 13 28 38 12 9 -18 -16 -5 -20 -20 -20 -20 -20 -20 -20 -20 -20 -20 -20 -20 -20 -20 -20
-20 -7 14 17 -17 -1 20 10 12 11 17 -20 -20 -15 -14 -19 -20 -20 -14 -20 -4 -16 23 2 18 27 34 32 14 32 18 -7 -20 -20 -20 -20 -20 -20 -20 -20 -20 -20 -20 -20 -20 -20 -20
0 -18 12 -6 -20 11 8 3 23 13 8 14 5 -20 -20 -3 12 11 -13 20 2 -12 1 18 32 30 31 31 26 19 -20 -20 -20 -20 -20 -20 -20 -20 -20 -20 -20 -20 -20 -20 -20 -20 -20
4 12 8 -20 -12 2 7 17 5 -1 -0 10 -20 -20 2 23 8 -20 -20 -13 -20 8 38 35 30 5 21 31 19 3 -11 -20 -20 -20 -20 -20 -20 -20 -20 -20 -20 -20 -20 -20 -20 -20 -20
-20 12 9 -19 -20 -20 -9 11 4 2 -5 -7 -14 -0 4 -20 10 10 2 -20 -16 30 39 34 25 20 33 27 13 -17 -20 -20 -20 -20 -20 -20 -20 -20 -20 -20 -20 -20 -20 -20 -20 -20 -20
-20 12 -6 2 -20 -20 -20 -6 2 -20 -11 -2 -15 -20 -20 -6 18 6 -1 25 30 22 34 38 34 30 33 24 20 -9 -20 -20 -20 -20 -20 -20 -20 -20 -20 -20 -20 -20 -20 -20 -20 -20 -20
-20 -7 10 -1 -20 -20 -20 -20 -20 -20 -20 -20 -20 -20 -20 -20 -20 10 22 31 24 10 8 32 25 24 19 -20 -7 -20 -20 -20 -20 -20 -20 -20 -20 -20 -20 -20 -20 -20 -20 -20 -20 -0 -7
-17 -20 14 6 -20 -20 -20 -20 -20 -20 -20 -20 -20 -20 -20 -13 -20 -10 -13 -20 -20 -7 -20 18 18 9 -17 -20 -20 -20 -20 -20 -20 -20 -20 -20 -20 -20 -20 -20 -20 -20 -20 -20 -20 0 -5
2 -20 -19 12 7 -20 -20 -20 -20 -20 -20 -20 -20 -20 -20 -20 -20 -20 -20 -20 -20 -20 -8 -13 -3 -18 -20 -20 -20 -20 -20 -20 -20 -20 -20 -20 -20 -20 -20 -20 -20 -20 -20 -20 -20 4 -10
-9 0 -20 -5 12 9 -20 -20 -20 -20 -20 -20 -20 -20 -20 -20 -20 -20 -20 -20 -20 -20 -2 -20 -20 -20 -20 -20 -20 -20 -20 -20 -20 -20 -20 -20 -20 -20 -20 -20 -20 -20 4 -20 -20 -20 -20
12 4 -20 -20 11 11 12 -14 -20 -20 -20 -20 -20 -20 -20 -20 -20 -20 -20 -20 -20 5 -2 -20 -20 -20 -20 -20 -20 -20 -20 -20 -20 -20 -20 -20 -20 -20 -20 -20 -20 -20 -10 -20 -20 -20 -20
-20 -9 -5 -20 1 9 5 6 -20 -20 -20 -20 -20 -20 -20 -20 -20 -20 -20 -20 -18 -11 -20 -20 -20 -20 -20 -20 -20 -20 -20 -20 -20 -20 -20 -20 -20 -20 -20 -20 -20 -1 19 16 -3 -20 2
-20 2 -3 -20 -20 -4 1 7 -20 -20 -20 -20 -20 -20 -20 -20 -20 -20 -20 -4 -20 -20 -20 -20 -20 -20 -20 -20 -20 -20 -20 -19 -20 -20 -20 -17 -13 -20 -20 -18 -10 6 3 8 10 -0 -16
-20 -20 14 -7 -20 -20 -20 -16 -20 -20 -20 -20 -20 -20 -20 -20 -20 -20 -20 -20 -20 -20 -20 -20 -20 -20 -20 -20 -20 -20 -20 -20 -17 -5 15 15 -2 -20 -20 -20 19 6 15 15 14 -9 3
-20 -20 -12 1 -20 -9 -1 -20 -20 -20 -20 -20 -20 -20 -20 -20 -20 -20 -20 -20 -20 -20 -20 -20 -17 -14 -20 -20 -2 1 -17 -20 -20 -20 -19 -20 -2 -19 -20 -20 -20 -19 -20 -13 -15 11 1
-20 -20 -20 -20 -20 -20 -9 -17 -20 -20 -20 -20 -20 -20 -20 -20 -20 -20 -20 -20 -20 -20 -20 -20 -20 -20 -20 -20 -20 -20 -20 -20 -20 -20 -20 -20 -17 -20 -20 -20 -20 -20 -20 -20 -20 -20 -19
-20 -20 -20 -20 -20 -20 -20 -18 -20 -20 -20 -20 -20 -20 -20 -20 -20 -20 -20 -20 -20 -20 -20 -20 -20 -20 -20 -20 -20 -20 -20 -20 -20 -20 -20 -20 -20 -20 -20 -20 -20 -20 -20 -20 -20 -20 -20
-20 -20 -20 -20 -20 -18 -20 -20 -20 -20 -20 -20 -20 -20 -20 -20 -20 -20 -20 -20 -20 -20 -20 -20 -20 -20 -20 -20 -20 -20 -20 -20 -20 -20 -20 -20 -20 -20 -20 -20 -20 -20 -20 -20 -20 -20 -20
-20 -20 -20 -20 -20 -7 -20 -20 -20 -20 -20 -20 -20 -20 -20 -20 -20 -20 -20 -20 -20 -20 -20 -20 -20 -20 -20 -20 -20 -20 -20 -20 -20 -20 -20 -20 -20 -20 -20 -20 -20 -20 -20 -20 -20 -20 -20
-20 -20 -20 -20 10 5 -20 -20 -20 -20 -20 -20 -20 -20 -20 -20 -20 -20 -20 -20 -20 -20 -20 -20 -20 -20 -20 -20 -20 -20 -20 -20 -20 -20 -20 -20 -20 -20 -20 -20 -20 -20 -20 -20 -20 -20 -20
-20 -20 -20 -20 10 -20 -20 -20 -20 -20 -20 -20 -20 -20 -20 -20 -20 -20 -20 -20 -20 -20 -20 -20 -20 -20 -20 -20 -20 -20 -20 -20 -20 -20 -20 -20 -20 -20 -20 -20 -20 -20 -20 -20 -20 -20 -20
-20 -20 -20 -20 0 -13 -16 -20 -20 -20 -20 -20 -20 -20 -20 -20 -20 -20 -20 -20 -20 -20 -20 -20 -20 -20 -20 -20 -20 -20 -20 -20 -20 -20 -20 -20 -20 -20 -20 -20 -20 -20 -20 -20 -20 -20 -20
-18 -20 -20 -20 -20 -20 -20 -20 -20 -20 -20 -20 -20 -20 -20 -20 -20 -20 -20 -20 -20 -20 -20 -20 -20 -20 -20 -20 -20 -20 -20 -20 -20 -20 -20 -20 -20 -20 -20 -20 -20 -20 -20 -20 -20 -20 -20
-20 -20 -20 -20 -20 -20 -20 -20 -20 -20 -20 -20 -20 -20 -20 -20 -20 -20 -20 -20 -20 -20 -20 -20 -20 -20 -20 -20 -20 -20 -20 -20 -20 -20 -20 -20 -20 -20 -20 -20 -20 -20 -20 -20 -20 -20 -20
-20 -20 -20 -20 -20 -20 -20 -20 -20 -20 -20 -20 -20 -20 -20 -20 -20 -20 -20 -20 -20 -20 -20 -20 -20 -20 -20 -20 -20 -20 -20 -20 -20 -20 -20 -20 -20 -20 -20 -20 -20 -20 -20 -20 -20 -20 -20
-20 -20 -20 -20 -20 -20 -20 -20 -20 -20 -20 -20 -20 -20 -20 -20 -20 -20 -20 -20 -20 -20 -20 -20 -20 -20 -20 -20 -20 -20 -20 -20 -20 -20 -20 -20 -20 -20 -20 -20 -20 -20 -20 -20 -20 -20 -20

GFSGBSN_prec_radar_117.txt.gz
Reflectivity
7 -7 16 9 -4 -20 15 21 14 10 23 -4 26 24 22 34 32 -1 -12 26 27 24 -20 -20 -14 25 28 34 20 -19 24 -8 -20 -20 -20 -20 -20 -20 -20 -20 -20 -20 -20 -20 -20 -20 -20
14 12 -9 -13 -20 13 11 7 11 6 12 15 -19 -20 -7 9 14 9 -5 5 19 24 -20 -20 -20 20 18 33 29 18 32 -5 -20 -20 -20 -20 -20 -20 -20 -20 -20 -20 -20 -20 -20 -20 -20
-16 6 4 17 7 -0 11 13 2 10 8 -20 -20 -19 8 -10 -20 -20 -12 -3 -0 -10 -20 -17 11 28 8 7 17 17 26 -20 -19 -20 -20 -20 -20 -20 -20 -20 -20 -20 -20 -20 -20 -20 -20
6 8 17 18 17 14 11 9 11 5 19 19 8 17 -1 -20 10 -20 -20 -1 -17 -20 -20 4 28 38 9 10 18 37 -19 -20 -20 -20 -20 -20 -20 -20 -20 -20 -20 -20 -20 -20 -20 -20 -20
9 4 15 17 19 16 17 14 3 -7 -20 -13 6 22 -2 -20 -20 -20 22 25 -14 -11 -7 2 -13 18 32 33 36 26 -16 -20 -20 -20 -20 -20 -20 -20 -20 -20 -20 -20 -20 -20 -20 -20 -20
11 -15 9 17 19 20 19 10 14 2 1 -20 -16 21 -1 22 -20 5 21 -20 -9 -20 -20 -17 3 28 30 33 22 -20 -20 -18 4 -20 -20 -14 -20 -20 -20 -20 -20 -20 -20 -20 -20 -20 -20
11 -15 4 16 18 13 -0 -6 -20 -12 5 -20 -20 -15 8 -20 -20 -20 -20 -20 -20 -4 -17 8 8 28 23 31 17 14 -20 -20 -20 -20 -20 -20 -20 -20 -20 -20 -20 -20 -20 -20 -20 -20 -20
-5 5 9 14 6 3 -11 -1 -20 -20 -20 -20 -20 -5 -20 -20 -15 -6 -7 -11 14 27 37 38 31 26 30 19 5 3 -20 -20 -20 -20 -20 -20 -20 -20 -20 -20 -20 -20 -20 -20 -20 -20 -20
-20 3 -2 8 11 -2 -20 -20 -20 -20 -20 -20 -20 -20 -20 -20 -19 -17 -3 25 31 15 30 33 35 33 34 19 10 -20 -20 -20 -20 -20 -20 -20 -20 -20 -20 -20 -20 -20 -20 -20 -20 -20 -20
-9 -8 -5 -1 -0 -3 -20 -20 -20 -20 -20 -20 -20 -20 -20 -20 -20 -4 8 20 16 8 -13 31 28 26 24 14 -20 -20 -20 -20 -20 -20 -20 -20 -20 -20 -20 -20 -20 -20 -20 -20 -20 8 -20
1 -2 -7 -20 8 2 -10 -20 -20 -20 -20 -20 -20 -20 -20 -20 -20 -20 -16 -20 -20 -20 -20 5 10 4 -19 -20 -20 -20 -20 -20 -20 -20 -20 -20 -20 -20 -20 -20 -20 -20 -20 -20 -20 8 -8
-20 14 -20 -20 -20 -3 8 5 -20 -20 -20 -20 -20 -20 -20 -20 -20 -20 -20 -20 -20 -15 0 -12 -15 -20 -20 -20 -20 -20 -20 -20 -20 -20 -20 -20 -20 -20 -20 -20 -20 -20 -20 -20 -20 -5 8
-20 -10 6 -20 -20 -18 5 9 0 -20 -20 -20 -20 -20 -20 -20 -20 -20 -20 -20 -20 -20 -2 -20 -20 -20 -20 -20 -20 -20 -20 -20 -20 -20 -20 -20 -20 -20 -20 -20 -20 -20 -20 -20 -20 -16 -20
-20 -20 2 3 1 -20 -18 1 8 -20 -20 -20 -20 -20 -20 -20 -20 -20 -20 -20 -20 3 -20 -20 -20 -20 -20 -20 -20 -20 -20 -20 -20 -20 -20 -20 -20 -20 -20 -20 -20 -20 -20 -20 -20 -20 -20
-20 -20 -20 9 1 4 -20 1 -20 -19 -20 -20 -20 -20 -20 -20 -20 -20 -20 -20 -12 -17 -20 -20 -20 -20 -20 -20 -20 -20 -20 -20 -20 -20 -20 -18 -20 -20 -20 -20 -20 -1 -15 9 2 -20 -17
-20 -20 -20 -16 -6 4 -20 -20 -20 -20 -18 -20 -20 -20 -20 -20 -20 -20 -20 -20 -20 -20 -20 -20 -20 -20 -20 -20 -20 -20 -20 -20 -12 -9 -20 -13 -20 -20 -20 -20 -14 4 -9 13 10 -20 -12
-20 -20 -20 -20 -20 -13 3 -20 -20 -20 -20 -20 -20 -20 -20 -20 -20 -20 -20 -20 -20 -20 -20 -20 -20 -20 -20 -20 -14 -20 -20 -20 -6 -13 6 -13 -12 -20 -20 -19 7 21 23 24 13 16 -15
-20 -20 -20 -20 -20 -20 -20 -20 -20 -20 -20 -20 -20 -20 -20 -20 -20 -20 -20 -20 -20 -20 -20 -20 -20 -20 -20 -20 -20 -10 -20 -20 -20 -20 -20 -20 1 -10 -20 -20 -20 -20 -19 -13 -20 -2 -11
-20 -20 -20 -20 -20 -20 -20 -20 -20 -20 -20 -20 -20 -20 -20 -20 -20 -20 -20 -20 -20 -20 -20 -20 -20 -20 -20 -20 -20 -20 -20 -20 -20 -20 -20 -20 -20 -20 -20 -20 -20 -20 -20 -20 -20 -20 -20
-20 -20 -20 -20 -20 -15 -20 -20 -20 -20 -20 -20 -20 -20 -20 -20 -20 -20 -20 -20 -20 -20 -20 -20 -20 -20 -20 -20 -20 -20 -20 -20 -20 -20 -20 -20 -20 -20 -20 -20 -20 -20 -20 -20 -20 -20 -20
-20 -20 -20 -20 -20 5 -12 -20 -20 -20 -20 -20 -20 -20 -20 -20 -20 -20 -20 -20 -20 -20 -20 -20 -20 -20 -20 -20 -20 -20 -20 -20 -20 -20 -20 -20 -20 -20 -20 -20 -20 -20 -20 -20 -20 -20 -20
-20 -20 -20 -20 -20 2 -10 -20 -20 -20 -20 -20 -20 -20 -20 -20 -20 -20 -20 -20 -20 -20 -20 -20 -20 -20 -20 -20 -20 -20 -20 -20 -20 -20 -20 -20 -20 -20 -20 -20 -20 -20 -20 -20 -20 -20 -20
-20 -20 -20 -20 -20 -17 -12 -20 -20 -20 -20 -20 -20 -20 -20 -20 -20 -20 -20 -20 -20 -20 -20 -20 -20 -20 -20 -20 -20 -20 -20 -20 -20 -20 -20 -20 -20 -20 -20 -20 -20 -20 -20 -20 -20 -20 -20
-20 -20 -20 -20 -20 -19 -10 -16 -20 -20 -20 -20 -20 -20 -20 -20 -20 -20 -20 -20 -20 -20 -20 -20 -20 -20 -20 -20 -20 -20 -20 -20 -20 -20 -20 -20 -20 -20 -20 -20 -20 -20 -20 -20 -20 -20 -20
-20 -20 -20 -20 -20 -20 1 -5 -20 -20 -20 -20 -20 -20 -20 -20 -20 -20 -20 -20 -20 -20 -20 -20 -20 -20 -20 -20 -20 -20 -20 -20 -20 -20 -20 -20 -20 -20 -20 -20 -20 -20 -20 -20 -20 -20 -20
-20 -20 -20 -20 -20 -20 -20 -20 -20 -20 -20 -20 -20 -20 -20 -20 -20 -20 -20 -20 -20 -20 -20 -20 -20 -20 -20 -20 -20 -20 -20 -20 -20 -20 -20 -20 -20 -20 -20 -20 -20 -20 -20 -20 -20 -20 -20
-20 -20 -20 -20 -20 -20 -20 -20 -20 -20 -20 -20 -20 -20 -20 -20 -20 -20 -20 -20 -20 -20 -20 -20 -20 -20 -20 -20 -20 -20 -20 -20 -20 -20 -20 -20 -20 -20 -20 -20 -20 -20 -20 -20 -20 -20 -20
-20 -20 -20 -20 -20 -20 -20 -20 -20 -20 -20 -20 -20 -20 -20 -20 -20 -20 -20 -20 -20 -20 -20 -20 -20 -20 -20 -20 -20 -20 -20 -20 -20 -20 -20 -20 -20 -20 -20 -20 -20 -20 -20 -20 -20 -20 -20
10 -1 11 5 12 -20 -20 -20 -20 -20 -20 -20 -20 -20 -20 -20 -20 -20 -20 -20 -20 -20 -20 -20 -20 -20 -20 -20 -20 -20 -20 -20 -20 -20 -20 -20 -20 -20 -20 -20 -20 -20 -20 -20 -20 -20 -20

GFSGBSN_prec_radar_123.txt.gz
Reflectivity
-20 -20 -3 10 15 18 9 -15 -11 -2 -10 21 14 9 9 10 17 37 31 -9 20 -20 -20 -20 24 39 31 -6 22 4 -20 -10 -20 -20 -20 -20 -20 -20 -20 -20 -20 -20 -20 -20 -20 -20 -20
-20 -15 -1 2 10 -19 -20 3 17 7 22 18 5 4 17 1 15 30 20 17 18 -20 -20 -20 15 18 21 33 29 5 -2 -13 -20 -20 -20 -20 -20 -20 -20 -20 -20 -20 -20 -20 -20 -20 -20
-20 -20 7 -20 5 15 14 -3 14 16 20 -6 18 -20 -20 -16 8 29 34 10 4 1 -19 -3 24 11 29 26 29 34 9 -20 -20 -20 -20 -20 -20 -20 -20 -20 -20 -20 -20 -20 -20 -20 -20
-3 -20 -0 6 11 6 -20 4 -0 11 19 -19 17 -20 -20 -13 -11 24 26 5 -20 -20 -20 -17 17 22 28 35 31 21 4 -20 -20 -20 -20 -20 -20 -20 -20 -20 -20 -20 -20 -20 -20 -20 -20
9 -20 -20 -12 -8 12 -4 0 -0 15 13 -10 -19 -20 -20 14 -20 5 2 -14 -20 -11 -20 -1 -9 25 33 26 23 9 -18 -20 -20 -20 -20 -20 -20 -20 -20 -20 -20 -20 -20 -20 -20 -20 -20
0 13 -20 -20 -20 3 -3 2 3 -8 19 -7 -20 -20 -5 4 24 -3 12 -20 -20 -12 -16 -13 -20 1 32 27 19 -9 -10 -20 -20 -20 -20 -20 -20 -20 -20 -20 -20 -20 -20 -20 -20 -20 -20
15 -0 4 -2 5 11 2 -20 8 9 12 -0 -20 -20 -20 -20 -20 -20 -20 -20 -20 -12 3 24 20 5 27 30 27 -19 -20 -20 -20 -20 -20 -20 -20 -18 -20 -20 -20 -20 -20 -20 -20 -20 -20
12 -2 10 1 1 -2 5 7 -3 7 8 4 -20 -20 -20 -20 -20 -20 -20 -20 -5 -20 10 25 23 5 10 16 13 -20 -20 -20 -20 -20 -20 -20 -20 -20 -20 -20 -20 -20 -20 -20 -20 -20 -20
10 2 -4 -4 -20 -14 -8 3 -4 -17 -8 -11 -20 -20 -20 -20 -20 -20 -20 -9 -16 -20 -6 10 28 25 20 5 21 -20 -20 -20 -20 -20 -20 -20 -20 -20 -20 -20 -20 -20 -20 -20 -20 -20 -20
-20 0 -7 2 -7 -20 -20 -17 -19 -20 -20 -20 -20 -20 -20 -20 -20 -20 -20 -20 -20 -20 -16 1 7 15 -1 -20 -20 -20 -20 -20 -20 -20 -20 -20 -20 -20 -20 -20 -20 -20 -20 -20 -20 -20 -20
-20 -20 -17 -1 4 -1 -12 -1 -20 -20 -20 -20 -20 -20 -20 -20 -20 -20 -20 -20 -20 -20 -10 -3 1 -20 -20 -20 -20 -20 -20 -20 -20 -20 -20 -20 -20 -20 -20 -20 -20 -20 -20 -20 -20 -20 -18
8 -20 -20 -14 1 -6 -17 -20 -20 -20 -20 -20 -20 -20 -20 -20 -20 -20 -20 -20 -20 -15 -1 -4 -2 -16 -20 -20 -20 -20 -20 -20 -20 -20 -20 -20 -20 -20 -20 -20 -20 -20 -20 -20 -20 -15 -6
1 3 -20 -18 -4 8 -6 -7 -20 -20 -20 -20 -20 -20 -20 -20 -20 -20 -20 -20 -8 -2 -20 -20 -20 -20 -20 -20 -20 -20 -20 -20 -20 -13 -20 -20 -20 -20 -20 -20 -20 -20 -19 -3 -10 -13 -13
-19 1 -20 -20 -20 -2 -3 2 -20 -20 -20 -20 -20 -20 -20 -20 -20 -20 -20 -20 -20 -10 -20 -20 -20 -20 -20 -20 -20 -20 -20 -20 -20 -20 -20 -19 -20 -20 -20 -20 -20 -20 -3 -1 -13 -17 5
6 -16 8 -20 -20 -20 12 13 -20 -20 -20 -20 -20 -20 -20 -20 -20 -20 -20 -20 -20 -20 -20 -20 -20 -20 -20 -20 -20 -20 -20 -20 -20 -20 -20 -20 -19 -20 -20 -20 -20 -8 5 -7 -20 -17 -14
-20 -20 5 -18 -20 -20 -15 10 -4 -20 -20 -20 -20 -20 -20 -20 -20 -20 -20 -20 -20 -20 -20 -20 -20 -20 -20 -20 -20 -20 -20 -20 -20 -20 -20 -13 -20 -20 -20 -20 -20 -20 -3 9 6 -3 8
-20 -20 -8 -14 -20 -20 -20 -20 -13 -20 -20 -20 -20 -20 -20 -20 -20 -20 -20 -16 -20 -20 -20 -20 -20 -20 -20 -20 -20 -20 -20 -20 -20 -20 -20 -19 -9 -20 -20 -17 -10 -5 -8 -3 0 -10 10
-20 -20 2 -20 -20 -20 -20 -20 -20 -20 -20 -20 -20 -20 -20 -20 -20 -20 -20 -20 -20 -20 -20 -20 -20 -20 -20 -20 -20 -9 -20 -20 -20 -20 2 -19 -19 -8 -20 -20 -20 5 10 10 12 15 -6
-0 -20 -20 -20 -20 -20 -20 -20 -20 -20 -20 -20 -20 -20 -20 -20 -20 -20 -20 -20 -20 -20 -20 -20 -20 -20 -20 -20 -20 -20 -20 -20 -20 -20 -20 -20 -13 -20 -20 -20 -20 -20 -10 -12 -19 -20 -20
-18 -20 -20 -17 -19 -19 -20 -20 -20 -20 -20 -20 -20 -4 -20 -20 -20 -20 -20 -20 -20 -20 -20 -20 -20 -20 -20 -20 -20 -20 -20 -20 -20 -20 -20 -17 -20 -20 -19 -20 -20 -20 -20 -20 -20 -9 -20
-20 2 -20 -20 -20 -17 -19 -20 -20 -20 -20 -20 -20 -20 -20 -20 -20 -20 -20 -20 -20 -20 -20 -20 -20 -20 -20 -20 -20 -20 -20 -20 -20 -20 -20 -13 -20 -20 -20 -20 -20 -20 -20 -20 -20 -20 -20
-20 -13 -20 -20 -20 -20 -20 -20 -20 -20 -20 -20 -20 -20 -20 -20 -20 -20 -20 -20 -20 -20 -20 -20 -20 -20 -20 -20 -20 -20 -20 -20 -20 -20 -20 -20 -20 -20 -20 -20 -20 -20 -20 -20 -20 -20 -20
-20 -20 -17 -20 -20 -20 -20 -20 -20 -20 -20 -20 -20 -20 -20 -20 -20 -20 -20 -20 -20 -20 -20 -20 -20 -20 -20 -20 -20 -20 -20 -20 -20 -20 -20 -20 -20 -20 -20 -20 -20 -20 -20 -20 -20 -20 -20
-2 -20 -3 -20 -20 -20 -20 -20 -20 -20 -20 -20 -20 -20 -20 -20 -20 -20 -20 -20 -20 -20 -20 -20 -20 -20 -20 -20 -20 -20 -20 -20 -20 -20 -20 -20 -20 -20 -20 -20 -20 -20 -20 -20 -20 -20 -20
-17 -9 11 3 -20 -20 -20 -20 -20 -20 -20 -20 -20 -20 -20 -20 -20 -20 -20 -20 -20 -20 -20 -20 -20 -20 -20 -20 -20 -20 -20 -20 -20 -20 -20 -20 -20 -20 -20 -20 -20 -20 -20 -20 -20 -20 -20
6 -20 9 6 -17 -20 -20 -20 -20 -20 -20 -20 -20 -20 -20 -20 -20 -20 -20 -20 -20 -20 -20 -20 -20 -20 -20 -20 -20 -20 -20 -20 -20 -20 -20 -20 -20 -20 -20 -20 -20 -20 -20 -20 -20 -20 -20
-20 -20 2 8 4 -18 -20 -20 -20 -20 -20 -20 -20 -20 -20 -20 -20 -20 -20 -20 -20 -20 -20 -20 -20 -20 -20 -20 -20 -20 -20 -20 -20 -20 -20 -20 -20 -20 -20 -20 -20 -20 -20 -20 -20 -20 -20
-20 -20 -20 -4 11 -19 -20 -20 -20 -20 -20 -20 -20 -20 -20 -20 -20 -20 -20 -20 -20 -20 -20 -20 -20 -20 -20 -20 -20 -20 -20 -20 -20 -20 -20 -20 -20 -20 -20 -20 -20 -20 -20 -20 -20 -20 -20
-20 -20 -8 -13 -10 5 1 -13 1 -18 -20 2 -20 -20 -20 -20 -20 -20 -20 -20 -20 -20 -20 -20 -20 -20 -20 -20 -20 -20 -20 -20 -20 -20 -20 -20 -20 -20 -20 -20 -20 -20 -20 -20 -20 -20 -20